[[{"header":{"parameterUnit":"m.s-1","parameterCategory":1,"la1":30.6,"la2":28.766,"lo1":-90.7593,"lo2":-88.6598,"dy":0.0162,"dx":0.0183,"nx":116,"ny":114,"refTime":"2024-03-01T06:00:00:Z","depth":0,"parameterNumber":2,"parameterNumberName":"U-component_of_WINDS"},"data":[0.0,0.0,0.0,0.0,0.0,0.0,0.0,0.0,0.0,0.0,0.0,0.0,0.0,0.0,0.0,0.0,0.0,0.0,0.0,0.0,0.0,0.0,0.0,0.0,0.0,0.0,0.0,0.0,0.0,0.0,0.0,0.0,0.0,0.0,0.0,0.0,0.0,0.0,0.0,0.0,0.0,0.0,0.0,0.0,0.0,0.0,0.0,0.0,0.0,0.0,0.0,0.0,0.0,0.0,0.0,0.0,0.0,0.0,0.0,0.0,0.0,0.0,0.0,0.0,0.0,0.0,0.0,0.0,0.0,0.0,0.0,0.0,0.0,0.0,0.0,0.0,0.0,0.0,0.0,0.0,0.0,0.0,0.0,0.0,0.0,0.0,0.0,0.0,0.0,0.0,0.0,0.0,0.0,0.0,0.0,0.0,0.0,0.0,0.0,0.0,0.0,0.0,0.0,0.0,0.0,0.0,0.0,0.0,0.0,0.0,0.0,0.0,0.0,0.0,0.0,0.0,0.0,0.0,0.0,0.0,0.0,0.0,0.0,0.0,0.0,0.0,0.0,0.0,0.0,0.0,0.0,0.0,0.0,0.0,0.0,0.0,0.0,0.0,0.0,0.0,0.0,0.0,0.0,0.0,0.0,0.0,0.0,0.0,0.0,0.0,0.0,0.0,0.0,0.0,0.0,0.0,0.0,0.0,0.0,0.0,0.0,0.0,0.0,0.0,0.0,0.0,0.0,0.0,0.0,0.0,0.0,0.0,0.0,0.0,0.0,0.0,0.0,0.0,0.0,0.0,0.0,0.0,0.0,0.0,0.0,0.0,0.0,0.0,0.0,0.0,0.0,0.0,0.0,0.0,0.0,0.0,0.0,0.0,0.0,0.0,0.0,0.0,0.0,0.0,0.0,0.0,0.0,0.0,0.0,0.0,0.0,0.0,0.0,0.0,0.0,0.0,0.0,0.0,0.0,0.0,0.0,0.0,0.0,0.0,0.0,0.0,0.0,0.0,0.0,0.0,0.0,0.0,0.0,0.0,0.0,0.0,0.0,0.0,0.0,0.0,0.0,0.0,0.0,0.0,0.0,0.0,0.0,0.0,0.0,0.0,0.0,0.0,0.0,0.0,0.0,0.0,0.0,0.0,0.0,0.0,0.0,0.0,0.0,0.0,0.0,0.0,0.0,0.0,0.0,0.0,0.0,0.0,0.0,0.0,0.0,0.0,0.0,0.0,0.0,0.0,0.0,0.0,0.0,0.0,0.0,0.0,0.0,0.0,0.0,0.0,0.0,0.0,0.0,0.0,0.0,0.0,0.0,0.0,0.0,0.0,0.0,0.0,0.0,0.0,0.0,0.0,0.0,0.0,0.0,0.0,0.0,0.0,0.0,0.0,0.0,0.0,0.0,0.0,0.0,0.0,0.0,0.0,0.0,0.0,0.0,0.0,0.0,0.0,0.0,0.0,0.0,0.0,0.0,0.0,0.0,0.0,0.0,0.0,0.0,0.0,0.0,0.0,0.0,0.0,0.0,0.0,0.0,0.0,0.0,0.0,0.0,0.0,0.0,0.0,0.0,0.0,0.0,0.0,0.0,0.0,0.0,0.0,0.0,0.0,0.0,0.0,0.0,0.0,0.0,0.0,0.0,0.0,0.0,0.0,0.0,0.0,0.0,0.0,0.0,0.0,0.0,0.0,0.0,0.0,0.0,0.0,0.0,0.0,0.0,0.0,0.0,0.0,0.0,0.0,0.0,0.0,0.0,0.0,0.0,0.0,0.0,0.0,0.0,0.0,0.0,0.0,0.0,0.0,0.0,0.0,0.0,0.0,0.0,0.0,0.0,0.0,0.0,0.0,0.0,0.0,0.0,0.0,0.0,0.0,0.0,0.0,0.0,0.0,0.0,0.0,0.0,0.0,0.0,0.0,0.0,0.0,0.0,0.0,0.0,0.0,0.0,0.0,0.0,0.0,0.0,0.0,0.0,0.0,0.0,0.0,0.0,0.0,0.0,0.0,0.0,0.0,0.0,0.0,0.0,0.0,0.0,0.0,0.0,0.0,0.0,0.0,0.0,0.0,0.0,0.0,0.0,0.0,0.0,0.0,0.0,0.0,0.0,0.0,0.0,0.0,0.0,0.0,0.0,0.0,0.0,0.0,0.0,0.0,0.0,0.0,0.0,0.0,0.0,0.0,0.0,0.0,0.0,0.0,0.0,0.0,0.0,0.0,0.0,0.0,0.0,0.0,0.0,0.0,0.0,0.0,0.0,0.0,0.0,0.0,0.0,0.0,0.0,0.0,0.0,0.0,0.0,0.0,0.0,0.0,0.0,0.0,0.0,0.0,0.0,0.0,0.0,0.0,0.0,0.0,0.0,0.0,0.0,0.0,0.0,0.0,0.0,0.0,0.0,0.0,0.0,0.0,0.0,0.0,0.0,0.0,0.0,0.0,0.0,0.0,0.0,0.0,0.0,0.0,0.0,0.0,0.0,0.0,0.0,0.0,0.0,0.0,0.0,0.0,0.0,0.0,0.0,0.0,0.0,0.0,0.0,0.0,0.0,0.0,0.0,0.0,0.0,0.0,0.0,0.0,0.0,0.0,0.0,0.0,0.0,0.0,0.0,0.0,0.0,0.0,0.0,0.0,0.0,0.0,0.0,0.0,0.0,0.0,0.0,0.0,0.0,0.0,0.0,0.0,0.0,0.0,0.0,0.0,0.0,0.0,0.0,0.0,0.0,0.0,0.0,0.0,0.0,0.0,0.0,0.0,0.0,0.0,0.0,0.0,0.0,0.0,0.0,0.0,0.0,0.0,0.0,0.0,0.0,0.0,0.0,0.0,0.0,0.0,0.0,0.0,0.0,0.0,0.0,0.0,0.0,0.0,0.0,0.0,0.0,0.0,0.0,0.0,0.0,0.0,0.0,0.0,0.0,0.0,0.0,0.0,0.0,0.0,0.0,0.0,0.0,0.0,0.0,0.0,0.0,0.0,0.0,0.0,0.0,0.0,0.0,0.0,0.0,0.0,0.0,0.0,0.0,0.0,0.0,0.0,0.0,0.0,0.0,0.0,0.0,0.0,0.0,0.0,0.0,0.0,0.0,0.0,0.0,0.0,0.0,0.0,0.0,0.0,0.0,0.0,0.0,0.0,0.0,0.0,0.0,0.0,0.0,0.0,0.0,0.0,0.0,0.0,0.0,0.0,0.0,0.0,0.0,0.0,0.0,0.0,0.0,0.0,0.0,0.0,0.0,0.0,0.0,0.0,0.0,0.0,0.0,0.0,0.0,0.0,0.0,0.0,0.0,0.0,0.0,0.0,0.0,0.0,0.0,0.0,0.0,0.0,0.0,0.0,0.0,0.0,0.0,0.0,0.0,0.0,0.0,0.0,0.0,0.0,0.0,0.0,0.0,0.0,0.0,0.0,0.0,0.0,0.0,0.0,0.0,0.0,0.0,0.0,0.0,0.0,0.0,0.0,0.0,0.0,0.0,0.0,0.0,0.0,0.0,0.0,0.0,0.0,0.0,0.0,0.0,0.0,0.0,0.0,0.0,0.0,0.0,0.0,0.0,0.0,0.0,0.0,0.0,0.0,0.0,0.0,0.0,0.0,0.0,0.0,0.0,0.0,0.0,0.0,0.0,0.0,0.0,0.0,0.0,0.0,0.0,0.0,0.0,0.0,0.0,0.0,0.0,0.0,0.0,0.0,0.0,0.0,0.0,0.0,0.0,0.0,0.0,0.0,0.0,0.0,0.0,0.0,0.0,0.0,0.0,0.0,0.0,0.0,0.0,0.0,0.0,0.0,0.0,0.0,0.0,0.0,0.0,0.0,0.0,0.0,0.0,0.0,0.0,0.0,0.0,0.0,0.0,0.0,0.0,0.0,0.0,0.0,0.0,0.0,0.0,0.0,0.0,0.0,0.0,0.0,0.0,0.0,0.0,0.0,0.0,0.0,0.0,0.0,0.0,0.0,0.0,0.0,0.0,0.0,0.0,0.0,0.0,0.0,0.0,0.0,0.0,0.0,0.0,0.0,0.0,0.0,0.0,0.0,0.0,0.0,0.0,0.0,0.0,0.0,0.0,0.0,0.0,0.0,0.0,0.0,0.0,0.0,0.0,0.0,0.0,0.0,0.0,0.0,0.0,0.0,0.0,0.0,0.0,0.0,0.0,0.0,0.0,0.0,0.0,0.0,0.0,0.0,0.0,0.0,0.0,0.0,0.0,0.0,0.0,0.0,0.0,0.0,0.0,0.0,0.0,0.0,0.0,0.0,0.0,0.0,0.0,0.0,0.0,0.0,0.0,0.0,0.0,0.0,0.0,0.0,0.0,0.0,0.0,0.0,0.0,0.0,0.0,0.0,0.0,0.0,0.0,0.0,0.0,0.0,0.0,0.0,0.0,0.0,0.0,0.0,0.0,0.0,0.0,0.0,0.0,0.0,0.0,0.0,0.0,0.0,0.0,0.0,0.0,0.0,0.0,0.0,0.0,0.0,0.0,0.0,0.0,0.0,0.0,0.0,0.0,0.0,0.0,0.0,0.0,0.0,0.0,0.0,0.0,0.0,0.0,0.0,0.0,0.0,0.0,0.0,0.0,0.0,0.0,0.0,0.0,0.0,0.0,0.0,0.0,0.0,0.0,0.0,0.0,0.0,0.0,0.0,0.0,0.0,0.0,0.0,0.0,0.0,0.0,0.0,0.0,0.0,0.0,0.0,0.0,0.0,0.0,0.0,0.0,0.0,0.0,0.0,0.0,0.0,0.0,0.0,0.0,0.0,0.0,0.0,0.0,0.0,0.0,0.0,0.0,0.0,0.0,0.0,0.0,0.0,0.0,0.0,0.0,0.0,0.0,0.0,0.0,0.0,0.0,0.0,0.0,0.0,0.0,0.0,0.0,0.0,0.0,0.0,0.0,0.0,0.0,0.0,0.0,0.0,0.0,0.0,0.0,0.0,0.0,0.0,0.0,0.0,0.0,0.0,0.0,0.0,0.0,0.0,0.0,0.0,0.0,0.0,0.0,0.0,0.0,0.0,0.0,0.0,0.0,0.0,0.0,0.0,0.0,0.0,0.0,0.0,0.0,0.0,0.0,0.0,0.0,0.0,0.0,0.0,0.0,0.0,0.0,0.0,0.0,0.0,0.0,0.0,0.0,0.0,0.0,0.0,0.0,0.0,0.0,0.0,0.0,0.0,0.0,0.0,0.0,0.0,0.0,0.0,0.0,0.0,0.0,0.0,0.0,0.0,0.0,0.0,0.0,0.0,0.0,0.0,0.0,0.0,0.0,0.0,0.0,0.0,0.0,0.0,0.0,0.0,0.0,0.0,0.0,0.0,0.0,0.0,0.0,0.0,0.0,0.0,0.0,0.0,0.0,0.0,0.0,0.0,0.0,0.0,0.0,0.0,0.0,0.0,0.0,0.0,0.0,0.0,0.0,0.0,0.0,0.0,0.0,0.0,0.0,0.0,0.0,0.0,0.0,0.0,0.0,0.0,0.0,0.0,0.0,0.0,0.0,0.0,0.0,0.0,0.0,0.0,0.0,0.0,0.0,0.0,0.0,0.0,0.0,0.0,0.0,0.0,0.0,0.0,0.0,0.0,0.0,0.0,0.0,0.0,0.0,0.0,0.0,0.0,0.0,0.0,0.0,0.0,0.0,0.0,0.0,0.0,0.0,0.0,0.0,0.0,0.0,0.0,0.0,0.0,0.0,0.0,0.0,0.0,0.0,0.0,0.0,0.0,0.0,0.0,0.0,0.0,0.0,0.0,0.0,0.0,0.0,0.0,0.0,0.0,0.0,0.0,0.0,0.0,0.0,0.0,0.0,0.0,0.0,0.0,0.0,0.0,0.0,0.0,0.0,0.0,0.0,0.0,0.0,0.0,0.0,0.0,0.0,0.0,0.0,0.0,0.0,0.0,0.0,0.0,0.0,0.0,0.0,0.0,0.0,0.0,0.0,0.0,0.0,0.0,0.0,0.0,0.0,0.0,0.0,0.0,0.0,0.0,0.0,0.0,0.0,0.0,0.0,0.0,0.0,0.0,0.0,0.0,0.0,0.0,0.0,0.0,0.0,0.0,0.0,0.0,0.0,0.0,0.0,0.0,0.0,0.0,-1.9573,0.0,0.0,0.0,0.0,0.0,0.0,0.0,0.0,0.0,0.0,0.0,0.0,0.0,0.0,0.0,0.0,0.0,0.0,0.0,0.0,0.0,0.0,0.0,0.0,0.0,0.0,0.0,0.0,0.0,0.0,0.0,0.0,0.0,0.0,0.0,-1.8106,-1.8106,-1.8106,-1.8106,-1.8361,-1.8652,-1.8976,-1.9015,-1.8721,-1.8166,0.0,0.0,0.0,0.0,0.0,0.0,0.0,0.0,0.0,0.0,0.0,0.0,0.0,0.0,0.0,0.0,0.0,0.0,0.0,0.0,0.0,0.0,0.0,0.0,0.0,0.0,0.0,0.0,0.0,0.0,0.0,0.0,0.0,0.0,0.0,0.0,0.0,0.0,0.0,0.0,0.0,0.0,0.0,0.0,0.0,0.0,0.0,0.0,0.0,0.0,0.0,0.0,0.0,0.0,0.0,0.0,0.0,0.0,0.0,0.0,0.0,0.0,0.0,0.0,0.0,0.0,0.0,0.0,0.0,0.0,0.0,-1.8918,0.0,0.0,0.0,0.0,0.0,0.0,0.0,0.0,0.0,0.0,0.0,0.0,0.0,0.0,0.0,0.0,0.0,0.0,0.0,0.0,0.0,0.0,0.0,-1.7827,-1.8106,-1.8106,-1.8204,-1.8243,0.0,0.0,0.0,0.0,0.0,-1.838,-1.838,-1.8478,-1.8492,-1.838,-1.9166,-1.9963,-2.0727,-2.1407,-2.124,-2.038,-1.9689,0.0,0.0,0.0,0.0,0.0,0.0,0.0,0.0,0.0,0.0,0.0,0.0,0.0,0.0,0.0,0.0,0.0,0.0,0.0,0.0,0.0,0.0,0.0,0.0,0.0,0.0,0.0,0.0,0.0,0.0,0.0,0.0,0.0,0.0,0.0,0.0,0.0,0.0,0.0,0.0,0.0,0.0,0.0,0.0,0.0,0.0,0.0,0.0,0.0,0.0,0.0,0.0,0.0,0.0,0.0,0.0,0.0,0.0,0.0,0.0,0.0,0.0,0.0,-1.9708,-1.9708,-1.9708,-1.9588,-1.9211,-1.8674,-1.8404,-1.7822,-1.7161,-1.8649,0.0,0.0,0.0,0.0,0.0,0.0,0.0,0.0,0.0,0.0,0.0,0.0,0.0,0.0,0.0,0.0,0.0,0.0,0.0,0.0,0.0,-1.8066,-1.8106,-1.8106,-1.8535,-1.8798,-1.8798,0.0,-1.9479,-1.9479,-1.9479,-1.9479,-1.9479,-2.0072,-2.0068,-1.9479,-2.1327,-2.2807,-2.4008,-2.4663,-2.5214,-2.5456,-2.2014,-2.0813,-2.1322,0.0,0.0,0.0,0.0,0.0,0.0,0.0,0.0,0.0,0.0,0.0,0.0,0.0,0.0,0.0,0.0,0.0,0.0,0.0,0.0,0.0,0.0,0.0,0.0,0.0,0.0,0.0,0.0,0.0,0.0,0.0,0.0,0.0,0.0,0.0,0.0,0.0,0.0,0.0,0.0,0.0,-1.8837,-1.8837,0.0,0.0,0.0,0.0,0.0,0.0,0.0,0.0,0.0,0.0,0.0,0.0,0.0,-1.9747,-1.9708,-1.9747,-1.9747,-1.9708,-1.9708,-1.9708,-1.9678,-1.9091,-1.8792,-1.8672,-1.8063,0.0,-1.8448,-1.8695,0.0,0.0,0.0,0.0,0.0,0.0,0.0,0.0,0.0,0.0,0.0,0.0,0.0,0.0,0.0,0.0,0.0,0.0,0.0,0.0,0.0,-1.9502,-1.9981,-1.96,-2.1114,-2.1477,-2.0013,-2.085,-2.0876,-1.9753,-1.9708,-1.9708,-1.9708,-1.9989,-2.0543,-2.1385,-2.3751,-2.5383,-2.6303,-2.735,-2.7799,-2.7634,-2.551,-2.3894,-2.2727,-2.2084,0.0,0.0,0.0,0.0,0.0,0.0,0.0,0.0,0.0,0.0,0.0,0.0,0.0,0.0,0.0,0.0,0.0,0.0,0.0,0.0,0.0,0.0,0.0,0.0,0.0,0.0,0.0,0.0,0.0,0.0,0.0,0.0,0.0,0.0,0.0,0.0,0.0,0.0,0.0,-1.8942,-1.9256,-1.9256,-1.9528,-1.9708,0.0,0.0,0.0,0.0,0.0,0.0,0.0,0.0,0.0,-1.9708,-1.9708,-1.9708,-1.9708,-1.9708,-1.9708,-1.9708,-1.9708,-1.9708,-1.9693,-1.9408,-1.9256,-1.9241,-1.8957,-1.8986,-1.9226,-1.8852,-1.8867,-1.9166,0.0,0.0,0.0,0.0,-2.0244,-2.0486,0.0,0.0,0.0,0.0,0.0,0.0,0.0,0.0,0.0,0.0,0.0,0.0,-1.9856,-2.1252,-2.2188,-2.2218,-2.3513,-2.3588,-2.1809,-2.1844,-2.134,-2.0004,-1.9798,-1.9783,-1.9944,-2.0602,-2.2009,-2.4215,-2.6467,-2.8023,-2.8888,-3.0056,-3.0328,-2.9819,-2.8966,-2.7136,-2.4537,-2.3422,-2.2074,-2.0647,0.0,0.0,0.0,0.0,0.0,0.0,0.0,0.0,0.0,0.0,0.0,0.0,0.0,0.0,0.0,0.0,0.0,0.0,0.0,0.0,0.0,0.0,0.0,0.0,0.0,0.0,0.0,0.0,0.0,0.0,0.0,0.0,0.0,0.0,0.0,0.0,0.0,-1.9049,-1.9513,-1.9678,-1.9708,-1.9768,0.0,0.0,0.0,0.0,0.0,0.0,-1.9708,-1.9708,-1.9708,-1.9708,-1.9708,-1.9708,-1.9708,-1.9708,-1.9708,-1.9708,-1.9708,-1.9708,-1.9708,-1.9708,-1.9708,-1.9708,-1.9708,-1.9708,-1.9663,-1.9151,-1.8957,-1.9001,-1.9513,-1.9874,-2.0106,-1.9803,-1.9892,-2.003,0.0,0.0,0.0,0.0,0.0,0.0,0.0,0.0,0.0,0.0,0.0,-2.0408,-2.2288,-2.3101,-2.4253,-2.6138,-2.4672,-2.3864,-2.4365,-2.1545,-2.0079,-2.0613,-2.0034,-1.9989,-2.0628,-2.308,-2.5651,-2.8308,-2.9654,-3.0971,-3.2287,-3.2976,-3.329,-3.32,-3.1884,-2.9864,-2.7225,-2.4665,-2.349,-2.3236,-2.1376,0.0,0.0,0.0,0.0,0.0,0.0,0.0,0.0,0.0,0.0,0.0,0.0,0.0,0.0,0.0,0.0,0.0,0.0,0.0,0.0,0.0,0.0,0.0,0.0,0.0,0.0,0.0,0.0,0.0,0.0,0.0,0.0,0.0,0.0,0.0,0.0,0.0,0.0,-1.9633,-1.9708,0.0,0.0,0.0,0.0,-1.9708,-1.9708,-1.9708,-1.9708,-1.9708,-1.9708,-1.9708,-1.9708,-1.9708,-1.9708,-1.9708,-1.9708,-1.9708,-1.9708,-1.9708,-1.9708,-1.9708,-1.9708,-1.9708,-1.9708,-1.9708,-1.9708,-1.9663,-1.9648,-1.9648,-1.9693,-1.9711,-1.9744,-1.9708,-1.9711,-1.9711,0.0,0.0,0.0,0.0,0.0,0.0,0.0,0.0,-1.9708,-1.9708,-2.0831,-2.2059,-2.3167,-2.539,-2.7111,-2.7814,-2.7619,-2.6826,-2.5337,-2.334,-2.1949,-2.138,-2.0707,-2.1036,-2.2532,-2.4747,-2.6991,-2.922,-3.1375,-3.2886,-3.3784,-3.4472,-3.4786,-3.4756,-3.3844,-3.2662,-3.1149,-2.72,-2.4777,-2.3475,-2.1949,-2.1335,0.0,0.0,0.0,0.0,0.0,0.0,0.0,0.0,0.0,0.0,0.0,0.0,0.0,0.0,0.0,0.0,0.0,0.0,0.0,0.0,0.0,0.0,0.0,0.0,0.0,0.0,0.0,0.0,0.0,0.0,0.0,0.0,0.0,0.0,0.0,0.0,0.0,-1.9678,-1.9708,0.0,-2.0034,-1.9824,-1.9708,-1.9708,-2.0094,-2.0348,-2.0348,-2.0348,-2.0543,-2.0961,-2.0572,-2.0543,-2.0976,-2.0557,-2.0348,-2.0348,-1.9899,-1.9708,-1.9708,-1.9708,-1.9708,-1.9708,-1.9708,-1.9708,-1.9708,-1.9708,-1.9708,-1.9708,-1.9708,-1.9708,-1.9708,-1.9708,-1.9708,-1.9708,0.0,0.0,0.0,0.0,0.0,0.0,0.0,0.0,-1.9708,-1.9708,-2.164,-2.3422,-2.4492,-2.759,-2.9864,-3.0522,-2.9786,-2.8502,-2.6737,-2.4118,-2.2248,-2.1395,-2.1575,-2.2607,-2.4567,-2.7006,-2.9131,-3.0924,-3.3095,-3.4397,-3.4863,-3.5295,-3.5504,-3.5474,-3.4786,-3.4264,-3.3604,-3.0073,-2.7305,-2.5106,-2.3131,-2.2607,-2.2817,0.0,0.0,0.0,0.0,0.0,0.0,0.0,0.0,0.0,0.0,0.0,0.0,0.0,0.0,0.0,0.0,0.0,0.0,0.0,0.0,0.0,0.0,0.0,0.0,0.0,0.0,0.0,0.0,0.0,0.0,0.0,0.0,0.0,0.0,-2.0168,-2.0109,-2.0352,-2.0382,-2.0471,-2.0696,-2.0516,-2.0382,-2.0382,-2.0782,-2.1051,-2.1051,-2.1051,-2.1246,-2.168,-2.1051,-2.1017,-2.168,-2.1051,-2.0703,-2.0688,-2.0243,-1.9914,-1.9708,-1.9708,-1.9708,-1.9708,-1.9708,-1.9708,-1.9708,-1.9708,-1.9708,-1.9708,-1.9708,-1.9708,-1.9708,-1.9708,-1.9708,-1.9708,0.0,0.0,0.0,0.0,0.0,0.0,0.0,-1.9708,-1.9708,-1.9708,-2.2024,-2.4433,-2.6408,-2.9582,-3.2392,-3.4339,-3.0881,-2.8592,-2.8562,-2.3618,-2.0718,-2.0778,-2.2667,-2.4642,-2.6677,-2.9866,-3.2183,-3.3529,-3.4861,-3.5504,-3.5504,-3.5504,-3.5504,-3.5474,-3.4801,-3.447,-3.4381,-3.3095,-3.1049,-2.8461,-2.5106,-2.45,-2.5314,0.0,0.0,0.0,0.0,0.0,0.0,0.0,0.0,0.0,0.0,0.0,0.0,0.0,0.0,0.0,0.0,0.0,0.0,0.0,0.0,0.0,0.0,0.0,0.0,0.0,0.0,0.0,0.0,0.0,0.0,0.0,0.0,0.0,-1.9839,-2.0318,-2.0957,-2.162,-2.1695,-2.1969,-2.2598,-2.2089,-2.1695,-2.1695,-2.1724,-2.1724,-2.1724,-2.1724,-2.1739,-2.1754,-2.1111,-2.1077,-2.1739,-2.1111,-2.0763,-2.0763,-2.0733,-2.0393,-1.9768,-1.9753,-1.9753,-1.9768,-1.9723,-1.9708,-1.9738,-1.9708,-1.9708,-1.9708,-1.9708,-1.9708,-1.9708,-1.9708,-1.9708,-1.9708,0.0,0.0,0.0,0.0,0.0,0.0,-1.9708,-1.9708,-1.9708,-1.9708,-2.3257,-2.6153,-2.721,-3.1149,-3.3888,-3.4459,-3.0881,-2.8382,-2.7914,-2.337,-2.1316,-2.2742,-2.4702,-2.6916,-2.937,-3.1285,-3.2886,-3.4234,-3.507,-3.5504,-3.5504,-3.5504,-3.5504,-3.5457,-3.4534,-3.4151,-3.406,-3.3289,-3.2515,-3.1587,-2.8462,-2.653,-2.5398,0.0,0.0,0.0,0.0,0.0,0.0,0.0,0.0,0.0,0.0,0.0,0.0,0.0,0.0,0.0,0.0,0.0,0.0,0.0,0.0,0.0,0.0,0.0,0.0,0.0,0.0,0.0,0.0,0.0,0.0,0.0,-2.0887,-2.0862,-2.1099,-2.1306,-2.1485,-2.168,-2.1695,-2.1769,-2.1949,-2.1799,-2.1695,-2.1695,-2.2164,-2.2433,-2.2433,-2.2433,-2.2643,-2.3056,-2.2458,-2.2443,-2.3071,-2.2458,-2.2164,-2.2128,-2.1665,-2.1321,-2.1126,-2.0647,-2.0692,-2.1096,-2.0127,-1.9974,-2.0393,-1.9884,-1.9708,-1.9708,-1.9708,-1.9708,-1.9708,-1.9708,-1.9708,-1.9708,0.0,0.0,0.0,0.0,0.0,0.0,-1.9708,-1.9708,-1.9708,-1.9708,-2.3714,-2.6761,-2.7151,-3.1046,-3.3425,-3.2856,-2.9714,-2.723,-2.6012,-2.3161,-2.2532,-2.4762,-2.6767,-2.8951,-3.13,-3.2647,-3.3858,-3.4906,-3.531,-3.5504,-3.5504,-3.5504,-3.5504,-3.5487,-3.4719,-3.4376,-3.4327,-3.381,-3.3593,-3.3402,-3.1131,-2.9448,-2.8065,-2.6331,-2.4876,-2.3722,-2.2918,-2.262,-2.2433,-2.1126,0.0,0.0,0.0,0.0,0.0,0.0,0.0,0.0,0.0,0.0,0.0,0.0,0.0,0.0,0.0,0.0,0.0,0.0,0.0,0.0,0.0,0.0,0.0,0.0,-2.0992,-2.1438,-2.2338,-2.2446,-2.2382,-2.2153,-2.2832,-2.3116,-2.2547,-2.2757,-2.29,-2.29,-2.3011,-2.3191,-2.3475,-2.3242,-2.3236,-2.3595,-2.3017,-2.3002,-2.3595,-2.3002,-2.2703,-2.2703,-2.2313,-2.1964,-2.168,-2.1306,-2.1335,-2.1635,-2.0572,-2.0348,-2.0658,-2.0288,-2.0124,0.0,0.0,0.0,0.0,0.0,-2.0348,-2.0124,0.0,0.0,0.0,0.0,0.0,0.0,-1.9708,-1.9708,-1.9708,-1.9708,-2.3616,-2.6333,-2.6258,-2.9744,-3.1584,-3.0387,-2.7889,-2.5585,-2.3714,-2.3242,-2.42,-2.6811,-2.8846,-3.0791,-3.2691,-3.3963,-3.4891,-3.5504,-3.5504,-3.5504,-3.5504,-3.5504,-3.5549,-3.5606,-3.5121,-3.4909,-3.4818,-3.4469,-3.4255,-3.406,-3.3102,-3.2382,-3.1589,-2.8565,-2.7165,-2.6636,-2.4839,-2.3323,-2.2051,-2.1329,0.0,0.0,0.0,0.0,0.0,0.0,0.0,0.0,0.0,0.0,0.0,0.0,0.0,0.0,0.0,0.0,0.0,0.0,0.0,0.0,0.0,0.0,0.0,0.0,-2.1298,-2.2138,-2.3349,-2.3693,-2.3641,-2.3097,-2.4552,-2.5136,-2.3939,-2.435,-2.4709,-2.4709,-2.4163,-2.4103,-2.4679,0.0,0.0,0.0,0.0,-2.3152,-2.3595,-2.3077,-2.2808,-2.2808,-2.2808,-2.2493,-2.1904,-2.1844,-2.1844,-2.1874,-2.1122,-2.0872,-2.0912,-2.0838,-2.0808,-2.0748,-2.0154,-2.0288,-2.0882,-2.1485,-2.1276,-2.0703,0.0,0.0,0.0,0.0,0.0,0.0,-1.9708,-1.9708,-1.9708,-1.9708,-2.2787,-2.4769,-2.4238,-2.7275,-2.925,-2.8996,-2.6518,-2.459,-2.3655,-2.4507,-2.6228,-2.8918,-3.0896,-3.2617,-3.4099,-3.4891,-3.537,-3.5504,-3.5504,-3.5504,-3.5504,-3.5504,-3.5789,-3.6264,-3.5365,-3.4811,-3.4497,-3.4398,-3.3887,-3.3155,-3.3731,-3.2654,-3.0608,-2.9608,-2.8134,-2.6601,-2.6287,-2.5935,-2.5467,-2.4417,-2.3498,-2.2569,-2.1195,-2.0177,0.0,0.0,0.0,0.0,0.0,0.0,0.0,0.0,0.0,0.0,0.0,0.0,0.0,0.0,0.0,0.0,0.0,0.0,0.0,-2.0578,-2.1668,-2.2692,-2.3472,-2.4944,-2.5691,-2.5103,-2.5375,-2.551,-2.5241,-2.5322,-2.5397,-2.5397,-2.53,-2.527,-2.5397,-2.5285,-2.4971,-2.4425,-2.4291,-2.4022,-2.3595,-2.3475,-2.343,-2.343,0.0,0.0,-2.3221,-2.2733,-2.2778,-2.3176,-2.2009,-2.1799,-2.2283,-2.1724,-2.1515,-2.1485,-2.1365,-2.138,-2.1515,-2.165,-2.1276,-2.0703,0.0,0.0,0.0,0.0,0.0,0.0,-1.9241,-1.9465,-1.9708,-1.9708,-2.2009,-2.352,-2.3197,-2.5211,-2.6348,-2.5689,-2.3819,-2.3199,-2.4522,-2.5854,-2.8068,-3.139,-3.2796,-3.3963,-3.4966,-3.5325,-3.5504,-3.5504,-3.5833,-3.5833,-3.5519,-3.6163,-3.6462,-3.6473,-3.5533,-3.5046,-3.4823,-3.4046,-3.3429,-3.2993,-3.3169,-3.2463,-3.1281,-3.0977,-2.9759,-2.8177,-2.7898,-2.73,-2.6419,-2.5258,-2.4292,-2.3313,-2.1663,-2.0733,-2.0041,0.0,0.0,0.0,0.0,0.0,0.0,0.0,0.0,0.0,0.0,0.0,0.0,0.0,0.0,-1.919,-1.9805,0.0,-2.0559,-2.1493,-2.2115,-2.3065,-2.4803,-2.5565,-2.5864,-2.5622,-2.6183,-2.6333,-2.5674,-2.5899,-2.6093,-2.6093,-2.5794,-2.5749,-2.6078,-2.5457,-2.4948,-2.4619,-2.4276,-2.3939,-2.3595,-2.3595,-2.3595,-2.3595,-2.3954,-2.4096,-2.4096,-2.4133,-2.4133,-2.4059,-2.3071,-2.2673,-2.2673,-2.2343,-2.2368,-2.2652,-2.2652,-2.2458,-2.2239,-2.2532,-2.2248,-2.1695,0.0,0.0,0.0,0.0,0.0,0.0,0.0,-1.9009,-1.9513,-1.9513,-2.1145,-2.2269,-2.2134,-2.3161,-2.3424,-2.2403,-2.1665,-2.2622,-2.5779,-2.7255,-2.9696,-3.3514,-3.4354,-3.4996,-3.5684,-3.5564,-3.5624,-3.5878,-3.6148,-3.6148,-3.5893,-3.6806,-3.7105,-3.6828,-3.6198,-3.5871,-3.5665,-3.4314,-3.3586,-3.336,-3.2651,-3.2315,-3.2185,-3.1966,-3.1061,-2.9842,-2.9051,-2.7748,-2.622,-2.5158,-2.4045,-2.2847,-2.1447,-2.0867,-2.0478,-1.9321,-1.8857,0.0,0.0,0.0,0.0,0.0,0.0,0.0,0.0,-1.8109,-1.8753,-1.8425,-1.9133,-1.9874,-2.0087,-2.0878,-2.1822,-2.2773,-2.2914,-2.3725,-2.6158,-2.6008,-2.5659,-2.5771,-2.6761,-2.6986,-2.5899,-2.6273,-2.6632,-2.6767,-2.6288,-2.6213,-2.6776,-2.5659,-2.4933,-2.4799,-2.4126,-2.3729,-2.3595,-2.3595,-2.3595,-2.361,-2.4141,-2.441,-2.4425,-2.4971,-2.4926,-2.438,-2.3834,-2.331,-2.2882,-2.2882,-2.3167,-2.3595,-2.3595,-2.3295,-2.2942,-2.3415,-2.3227,-2.2703,0.0,0.0,0.0,0.0,0.0,0.0,0.0,0.0,-1.8807,-1.8807,-2.0049,-2.0707,-2.0112,-2.0692,-2.1077,-2.0946,-2.2368,-2.4433,-2.7195,-2.8633,-3.0894,-3.4249,-3.5026,-3.5699,-3.6357,-3.5804,-3.6058,-3.7195,-3.6133,-3.6163,-3.718,-3.6776,-3.7165,-3.8182,-3.8091,-3.7835,-3.7463,-3.6341,-3.5359,-3.4428,-3.3407,-3.2667,-3.2152,-3.1647,-3.1092,-3.0319,-2.8762,-2.7115,-2.561,-2.4996,-2.3734,-2.2371,-2.2187,-2.1455,-2.0478,-1.9321,-1.8342,-1.7448,-1.6785,-1.6588,-1.6597,-1.6586,-1.6688,-1.6883,0.0,-1.7857,-1.8413,-1.8832,-1.9371,-2.0112,-2.1117,-2.1405,-2.2076,-2.3837,-2.4646,-2.5398,-2.6363,-2.6498,-2.6461,-2.6497,-2.6617,-2.6632,-2.6497,-2.6566,-2.6866,-2.7435,-2.742,-2.7405,-2.748,-2.6767,-2.6093,-2.5501,-2.4829,-2.4201,-2.361,-2.3595,-2.3595,-2.3595,-2.3684,-2.3714,-2.3714,-2.3789,-2.3789,-2.3714,-2.3625,-2.3565,-2.349,-2.349,-2.3535,-2.3595,-2.3595,-2.355,-2.3505,-2.358,-2.3227,-2.2703,0.0,0.0,0.0,0.0,0.0,0.0,0.0,0.0,0.0,-1.8623,-1.9196,-1.9462,-1.9262,-1.9474,-1.9778,-2.009,-2.1216,-2.337,-2.6806,-2.8263,-3.0401,-3.3545,-3.5228,-3.5945,-3.5644,-3.5911,-3.6507,-3.7404,-3.6881,-3.6881,-3.7419,-3.7943,-3.7911,-3.7477,-3.7224,-3.669,-3.5935,-3.4856,-3.4137,-3.3713,-3.3283,-3.2729,-3.2089,-3.0909,-2.9716,-2.8549,-2.7519,-2.6076,0.0,-2.3653,-2.2686,-2.1782,-2.1455,-2.083,-1.9949,-1.8869,-1.799,-1.7272,-1.6651,-1.65,-1.6575,-1.6936,-1.7262,-1.7652,-1.8204,-1.8756,-1.9296,-1.9861,-2.0413,-2.1029,-2.182,-2.2234,-2.3125,-2.5187,-2.5096,-2.5438,-2.743,-2.6711,-2.5835,-2.5493,-2.5091,-2.5166,-2.5944,-2.6363,-2.6731,-2.7001,-2.7031,-2.7031,-2.7031,-2.6019,-2.5307,-2.5023,-2.4365,-2.3872,-2.3595,-2.3595,-2.3595,-2.3595,-2.4014,-2.4171,-2.4186,-2.4597,-2.4762,-2.4747,-2.4335,-2.4395,-2.4747,-2.4335,-2.4171,-2.4141,-2.3759,-2.3595,-2.3595,-2.3595,-2.343,-2.3206,0.0,0.0,0.0,0.0,0.0,0.0,0.0,0.0,0.0,0.0,-1.8229,-1.8483,-1.8599,-1.854,-1.8672,-1.921,-2.0007,-2.2014,-2.5604,-2.7394,-2.9707,-3.2794,-3.4636,-3.5524,-3.5409,-3.5667,-3.6331,-3.7404,-3.706,-3.706,-3.7419,-3.8227,-3.8106,-3.7208,-3.6618,-3.606,-3.5453,-3.4108,-3.3467,-3.3271,-3.2958,-3.2215,-3.1148,-2.9666,-2.7871,-2.6088,-2.5686,-2.4381,-2.2698,-2.1732,-2.1041,-2.0539,-2.0314,-1.9924,-1.9409,-1.848,-1.7702,-1.7049,-1.6613,-1.6613,-1.6898,-1.7463,-1.7903,-1.843,-1.9284,-1.9773,-2.02,-2.0805,-2.1358,-2.1832,-2.2234,-2.277,-2.382,-2.5808,-2.5434,-2.5716,-2.7984,-2.6552,-2.5097,-2.4641,-2.3693,-2.3535,-2.4687,-2.539,-2.5914,-2.6303,-2.6318,-2.6318,-2.6318,-2.5217,-2.4605,-2.4605,-2.3954,-2.3595,-2.3595,-2.3595,-2.3595,-2.361,-2.4081,-2.4321,-2.435,-2.5008,-2.5435,-2.5561,-2.5083,-2.5143,-2.557,-2.5068,-2.4769,-2.456,-2.4066,-2.3759,-2.3595,-2.3595,-2.3595,-2.3595,0.0,0.0,0.0,0.0,0.0,0.0,0.0,0.0,0.0,0.0,0.0,0.0,0.0,-1.7575,-1.7552,-1.8109,-1.9242,-2.105,-2.3708,-2.6253,-2.9086,-3.2363,-3.2949,-3.4218,-3.6413,-3.4893,-3.5171,-3.7404,-3.6163,-3.6193,-3.7404,-3.6836,-3.7225,-3.8322,-3.7245,-3.7112,-3.7563,-3.5534,-3.432,-3.3672,-3.2673,-3.0947,-2.8863,-2.7783,-2.5661,-2.3233,-2.3208,-2.1779,-1.9849,-1.9284,-1.8732,-1.8392,-1.8895,-1.9045,-1.892,-1.8367,-1.7413,-1.6525,-1.65,-1.6923,-1.7511,-1.8041,-1.8191,-1.8631,-2.0277,-2.0654,-2.083,-2.1343,-2.1895,-2.2297,-2.2309,-2.2887,-2.3844,-2.5218,-2.5987,-2.6695,-2.7514,-2.589,-2.4627,-2.4605,-2.2921,-2.2024,-2.2718,-2.3347,-2.4223,-2.554,-2.563,-2.563,-2.563,-2.4978,-2.4605,-2.4605,-2.3954,-2.3595,-2.3595,-2.3595,-2.3595,-2.3595,-2.3625,-2.3625,-2.3655,-2.4321,-2.4993,-2.5615,-2.5585,-2.5585,-2.5615,-2.5585,-2.5187,-2.4605,-2.459,-2.4171,-2.3595,-2.3595,-2.3595,-2.3595,0.0,0.0,0.0,0.0,0.0,0.0,0.0,0.0,0.0,0.0,0.0,0.0,0.0,0.0,0.0,0.0,-1.848,-1.9802,-2.2366,-2.4095,-2.6002,-2.8216,-3.0756,-3.2559,-3.3547,-3.4059,-3.5136,-3.6791,-3.5923,-3.5953,-3.6806,-3.6374,-3.6006,-3.5691,-3.472,-3.4012,-3.3489,-3.2804,-3.1966,-3.1084,-3.0337,-2.8938,-2.7092,-2.5234,-2.3263,-2.1355,0.0,-1.9359,-1.8606,-1.7654,-1.7215,-1.7089,-1.7277,-1.734,-1.7303,-1.7114,-1.6739,-1.6478,-1.6975,-1.7402,-1.7983,-1.9021,-1.956,-2.0201,-2.1455,-2.1509,-2.1295,-2.1443,-2.1941,-2.2258,-2.1897,-2.2684,-2.4011,-2.583,-2.5952,-2.6239,-2.7424,-2.6617,-2.5435,-2.4103,-2.3355,-2.2877,-2.2718,-2.3236,-2.3984,-2.4874,-2.5337,-2.5615,-2.5615,-2.4963,-2.4799,-2.5247,-2.4605,-2.4261,-2.4261,-2.4261,-2.4036,-2.361,-2.4036,-2.4261,-2.4291,-2.4948,-2.563,-2.6258,-2.6258,-2.6512,-2.6896,-2.6437,-2.6123,-2.5884,-2.545,-2.4844,-2.4261,-2.4261,-2.4261,-2.4201,0.0,0.0,0.0,0.0,0.0,0.0,0.0,0.0,0.0,0.0,0.0,0.0,0.0,0.0,0.0,0.0,0.0,-1.8893,-2.0769,-2.2262,-2.374,-2.5274,-2.771,-2.9403,-3.02,-3.1071,-3.2123,-3.3335,-3.2871,-3.2886,-3.3305,-3.3088,-3.2887,-3.2636,-3.1907,-3.1458,-3.1178,-3.0573,-2.9681,-2.8624,-2.7778,-2.6339,-2.4513,-2.2636,-2.1054,0.0,-1.8129,-1.7578,-1.7488,-1.6738,-1.65,-1.65,-1.65,-1.65,-1.65,-1.65,-1.6737,-1.7071,-1.7549,-1.8277,-1.9143,-2.0157,-2.0566,-2.093,-2.1807,-2.1569,-2.1124,-2.092,-2.1355,-2.166,-2.1387,-2.2122,-2.3322,-2.4894,-2.5158,-2.557,-2.6718,-2.6303,-2.5495,-2.4448,-2.4103,-2.3804,-2.3415,-2.3954,-2.4298,-2.4246,-2.5083,-2.551,-2.5247,-2.5053,-2.5143,-2.56,-2.5173,-2.4963,-2.4963,-2.4963,-2.4739,-2.4328,-2.4739,-2.5083,-2.5322,-2.5764,-2.6318,-2.6971,-2.6971,-2.721,-2.757,-2.7151,-2.6821,-2.6557,-2.6123,-2.5555,-2.4933,-2.4694,-2.4754,-2.4829,0.0,0.0,0.0,0.0,0.0,0.0,0.0,0.0,0.0,0.0,0.0,0.0,0.0,0.0,0.0,0.0,0.0,0.0,-1.8927,-2.0706,-2.2293,-2.3516,-2.4042,-2.5022,-2.657,-2.6287,-2.6582,-2.7515,-2.7515,-2.7515,-2.754,-2.7519,-2.8196,-2.9423,-2.8973,-2.9432,-3.0477,-2.8892,-2.7531,-2.6371,-2.5116,-2.3331,-2.1242,-2.0112,-1.9045,-1.8016,-1.6889,-1.65,-1.65,-1.65,-1.65,-1.65,-1.65,-1.65,-1.65,-1.6563,-1.7353,-1.8207,-1.8293,-1.9484,-2.0851,-2.1393,-2.1144,-2.0867,-2.1423,-2.1041,-2.0401,-1.9898,-2.0237,-2.0639,-2.0749,-2.1278,-2.1931,-2.2639,-2.3783,-2.4844,-2.5555,-2.5158,-2.5023,-2.5621,-2.5173,-2.4784,-2.4709,-2.5307,-2.5151,-2.3804,0.0,-2.5367,-2.4739,-2.5315,-2.5674,-2.5704,-2.5674,-2.5659,-2.5659,-2.563,-2.5615,-2.5615,-2.5621,-2.6004,-2.6632,-2.6701,-2.7061,-2.7645,-2.7645,-2.763,-2.76,-2.76,-2.7225,-2.6632,-2.6632,-2.6243,-2.5561,-2.4933,-2.5098,-2.5465,0.0,0.0,0.0,0.0,0.0,0.0,0.0,0.0,0.0,0.0,0.0,0.0,0.0,0.0,0.0,0.0,0.0,0.0,-1.7135,-1.8735,-1.9845,-2.0281,-2.2124,-2.3392,-2.3968,-2.4751,-2.5517,-2.6274,-2.6274,-2.6465,-2.6856,-2.6645,-2.6722,-2.7027,-2.6189,-2.5968,-2.6255,-2.5813,-2.4792,-2.3354,-2.2626,-2.1243,-1.9509,-1.8417,-1.7827,-1.7524,-1.6773,-1.65,-1.65,-1.65,-1.65,-1.65,-1.65,-1.65,-1.6663,-1.7526,-1.7871,-1.8285,-1.9669,-2.0572,-2.1233,-2.1914,-2.1681,-2.1456,-2.197,-2.1004,-1.998,-1.9845,-2.0273,-2.055,-2.0207,-2.0977,-2.2067,-2.3199,-2.4067,-2.5008,-2.6183,-2.7066,-2.7455,-2.7136,-2.738,-2.72,-2.6183,-2.6692,-2.6512,-2.5196,-2.5869,-2.6273,-2.6093,-2.6243,-2.6557,-2.7076,-2.6626,-2.6348,-2.6348,-2.5854,-2.5615,-2.5615,-2.6108,-2.6692,-2.736,-2.7859,-2.8173,-2.8338,-2.8338,-2.8053,-2.76,-2.76,-2.7495,-2.7345,-2.7345,-2.6941,-2.6318,-2.6153,-2.6198,-2.6213,0.0,0.0,0.0,0.0,0.0,0.0,0.0,0.0,0.0,0.0,0.0,0.0,0.0,0.0,0.0,0.0,0.0,0.0,0.0,-1.735,-1.7984,-1.8296,-1.9619,-2.0478,-2.0849,-2.1734,-2.2505,-2.3128,-2.3128,-2.3274,-2.3565,-2.3421,-2.349,-2.3757,-2.3266,-2.3208,-2.3458,-2.2918,-2.2006,0.0,0.0,-1.8971,-1.7842,-1.7237,-1.6999,-1.6961,-1.6613,-1.65,-1.6538,-1.681,-1.6722,-1.6588,-1.7077,-1.7403,-1.7817,-1.8957,-1.9391,-1.9822,-2.1359,-2.1894,-2.2205,-2.2867,-2.2083,-2.1218,-2.1498,-2.0437,-1.9413,-1.9412,-1.9844,-2.0274,-2.0235,-2.0561,-2.1141,-2.2173,-2.3146,-2.4223,-2.554,-2.7126,-2.8244,-2.8453,-2.9026,-2.9026,-2.8034,-2.8259,-2.8049,-2.7006,-2.6976,-2.6926,-2.6626,-2.6881,-2.736,-2.8034,-2.7664,-2.747,-2.747,-2.6797,-2.6467,-2.6482,-2.6866,-2.7405,-2.8049,-2.8113,-2.8308,-2.8577,0.0,-2.7959,-2.76,-2.76,-2.76,-2.76,-2.76,-2.7375,-2.7001,-2.6692,-2.6806,-2.6941,0.0,0.0,0.0,0.0,0.0,0.0,0.0,0.0,0.0,0.0,0.0,0.0,0.0,0.0,0.0,0.0,0.0,0.0,0.0,0.0,-1.6705,-1.7162,-1.7333,-1.7565,-1.7887,-1.8419,-1.893,-1.9387,-1.9387,-1.9424,-1.9479,-1.9479,-1.9805,-2.036,-2.0474,-2.0845,-2.1341,-2.0279,-1.952,-1.8924,-1.7843,-1.7027,-1.65,0.0,-1.65,-1.65,-1.65,-1.645,-1.6475,-1.7074,-1.7036,-1.6901,-1.7955,-1.8669,-1.9334,-2.0566,-2.1257,-2.1857,-2.3007,-2.3271,-2.3351,-2.3889,-2.234,-2.0678,-2.0723,-1.9782,-1.891,-1.8993,-1.9387,-1.9887,-2.0468,-2.0094,-1.9962,-2.0703,-2.1874,-2.3212,-2.4649,-2.6512,-2.8229,-2.9577,-3.0253,-3.0387,-2.9786,-2.9726,-2.9457,-2.8786,-2.8124,-2.745,-2.6752,-2.7375,-2.8049,-2.8712,-2.8562,-2.8502,-2.8607,-2.7944,-2.76,-2.76,-2.76,-2.8004,-2.8712,-2.8049,-2.8109,-2.8697,-2.8034,0.0,-2.76,-2.76,-2.76,-2.76,-2.76,-2.76,-2.7525,-2.6956,-2.7106,-2.751,0.0,0.0,0.0,0.0,0.0,0.0,0.0,0.0,0.0,0.0,-1.4128,-1.3301,0.0,0.0,0.0,0.0,0.0,0.0,0.0,0.0,0.0,-1.6633,-1.7483,-1.7585,-1.6795,-1.7312,-1.7626,-1.7727,-1.7727,-1.7947,-1.838,-1.838,-1.8436,-1.8548,-1.8581,-1.8639,-1.8737,-1.8535,-1.8132,-1.7636,-1.7405,-1.699,-1.65,-1.65,0.0,0.0,-1.65,-1.622,-1.5919,-1.6463,-1.7225,-1.8028,-1.8657,-1.9221,-1.9974,-2.1568,-2.2096,-2.251,-2.4073,-2.4161,-2.3876,-2.4046,-2.2329,-2.0746,-2.1305,-2.011,-1.9022,-1.9472,-1.9639,-1.9738,-1.9839,-1.9783,-2.0112,-2.1321,-2.2194,-2.3541,-2.5914,-2.75,-2.8906,-3.0193,-3.0941,-3.1062,-3.0417,-3.0342,-3.0088,-2.9487,-2.8801,-2.8128,-2.7465,-2.8053,-2.8727,-2.9412,-2.8364,-2.8049,-2.8592,-2.7944,-2.76,-2.76,-2.76,-2.8244,-2.9412,-2.8727,-2.8786,-2.9397,-2.8712,0.0,-2.76,-2.76,-2.76,-2.76,-2.76,-2.76,-2.7585,-2.7465,-2.7495,-2.7585,0.0,0.0,0.0,0.0,0.0,0.0,0.0,-1.4513,-1.4896,-1.5982,-1.5422,-1.4707,-1.4149,-1.3566,-1.3198,0.0,0.0,0.0,0.0,0.0,0.0,0.0,-1.6993,-1.7146,-1.6909,-1.7167,-1.7442,-1.7727,0.0,-1.7847,-1.8106,-1.8106,-1.8106,-1.8086,-1.7807,-1.7686,-1.7666,-1.7394,-1.7105,-1.6879,-1.6879,-1.6731,-1.65,0.0,0.0,0.0,-1.65,-1.6325,-1.6208,-1.6773,-1.7526,-1.8254,-1.8494,-1.9359,-2.0553,-2.1907,-2.2493,-2.307,-2.477,-2.4619,-2.3995,-2.4001,-2.202,-2.0247,-2.0944,-1.9672,-1.8633,-1.951,-1.9708,-1.9708,-1.9708,-1.9708,-1.9917,-2.0543,-2.15,-2.2966,-2.5255,-2.6707,-2.8293,-3.0268,-3.0763,-3.0972,-3.1017,-3.0717,-3.0372,-3.0088,-2.9475,-2.8816,-2.8169,-2.8742,-2.94,-3.0043,-2.943,-2.9101,-2.9116,-2.8468,-2.7959,-2.76,-2.7959,-2.8648,-2.9592,-2.8906,-2.9131,-2.9983,-2.8678,0.0,-2.8094,-2.775,-2.76,-2.76,-2.76,-2.76,-2.76,-2.76,-2.76,-2.76,0.0,0.0,0.0,0.0,0.0,0.0,0.0,-1.5173,-1.5668,-1.6876,-1.6848,-1.6321,-1.5349,-1.4249,-1.3516,0.0,0.0,0.0,0.0,0.0,0.0,0.0,0.0,0.0,-1.7105,0.0,0.0,-1.7767,-1.7767,0.0,0.0,0.0,0.0,0.0,-1.7333,-1.7126,-1.7097,-1.668,-1.65,0.0,0.0,-1.65,0.0,0.0,0.0,0.0,0.0,-1.65,-1.6563,-1.7049,-1.7564,-1.8003,-1.789,-1.9082,-2.0729,-2.1807,-2.2581,-2.3409,-2.487,-2.4835,-2.4318,-2.3874,-2.1877,-2.0132,-2.0528,-1.9296,-1.8378,-1.9468,-1.9708,-1.9708,-1.9708,-1.9708,-1.9753,-1.9902,-2.0797,-2.2173,-2.4111,-2.554,-2.7305,-2.9804,-3.0328,-3.0748,-3.1436,-3.1017,-3.0717,-3.0717,-3.0133,-2.9549,-2.9041,-2.9101,-2.9666,-3.0687,-3.0178,-2.9789,-2.9606,-2.8936,-2.8248,-2.76,-2.8412,-2.9086,-2.9592,-2.8906,-2.9295,-3.0387,-2.8453,0.0,0.0,-2.7884,-2.76,-2.76,-2.76,-2.769,-2.7809,-2.7809,-2.7809,-2.7839,0.0,0.0,0.0,0.0,0.0,0.0,0.0,-1.6045,-1.6926,-1.8556,-1.7928,-1.7061,-1.6412,-1.5399,-1.4563,0.0,0.0,0.0,0.0,0.0,0.0,0.0,0.0,0.0,0.0,0.0,0.0,-1.6659,-1.6659,0.0,0.0,0.0,0.0,0.0,0.0,-1.6573,-1.6573,-1.6522,0.0,0.0,0.0,0.0,0.0,0.0,0.0,0.0,0.0,-1.65,-1.65,-1.655,-1.6986,-1.7363,-1.6814,-1.8154,-2.0112,-2.123,-2.2309,-2.3246,-2.3966,-2.4915,-2.5344,-2.3676,-2.2335,-2.1291,-2.0794,-1.9614,-1.883,-1.9555,-1.9708,-1.9708,-1.9708,-1.9708,-1.9884,-2.0494,-2.0703,-2.1465,-2.343,-2.4852,-2.6467,-2.8532,-2.9804,-3.0748,-3.1436,-3.1451,-3.1406,-3.1406,-3.0806,-3.0387,-3.0328,-2.8723,-2.8891,-3.1331,-2.9101,-2.8423,-2.9592,-2.8936,-2.8248,-2.7615,-2.8903,-2.9547,-2.9592,-2.8906,-2.9295,-3.0387,-2.8453,0.0,0.0,-2.7884,-2.76,-2.76,-2.76,-2.7974,-2.8502,-2.8502,-2.8502,-2.8592,0.0,0.0,0.0,0.0,0.0,0.0,-1.548,-1.5613,-1.6371,-1.8694,-1.8355,-1.779,-1.7551,-1.6534,-1.5399,-1.4186,0.0,0.0,0.0,0.0,0.0,0.0,0.0,0.0,0.0,0.0,-1.65,-1.65,-1.65,0.0,0.0,0.0,0.0,0.0,0.0,-1.65,-1.65,-1.65,0.0,0.0,0.0,0.0,0.0,0.0,0.0,0.0,0.0,0.0,-1.65,-1.65,-1.6651,-1.6823,-1.6584,-1.7089,-1.8053,-1.9183,-2.0765,-2.2346,-2.3386,-2.4223,-2.4567,-2.3571,-2.2145,-2.083,-2.0243,-1.9375,-1.8897,-1.9573,-1.9708,-1.9708,-1.9708,-1.9708,-1.9798,-2.0049,-2.0094,-2.0647,-2.2233,-2.2921,-2.4433,-2.763,-2.8453,-2.931,-3.0748,-3.0883,-3.0761,-3.0387,-3.0103,-3.0118,-3.0477,-2.9759,-3.0013,-3.1451,-3.0103,-2.9415,-2.9606,-2.8936,-2.8248,-2.76,-2.8532,-2.9205,-2.9592,-2.931,-2.9894,-3.0987,-2.9041,0.0,0.0,-2.8622,-2.8453,-2.8798,-2.8798,-2.8978,-2.919,-2.919,-2.919,-2.922,0.0,0.0,0.0,0.0,0.0,-1.3923,-1.5261,-1.5412,-1.612,-1.8254,-1.8204,-1.7953,-1.7953,-1.681,-1.5693,-1.4871,-1.4513,0.0,0.0,0.0,0.0,0.0,0.0,0.0,0.0,0.0,-1.65,-1.65,-1.65,-1.65,0.0,0.0,-1.65,-1.65,0.0,0.0,0.0,0.0,0.0,0.0,0.0,0.0,0.0,0.0,0.0,0.0,0.0,0.0,0.0,0.0,0.0,-1.65,-1.65,-1.65,-1.6688,-1.7677,-1.9409,-2.1192,-2.2101,-2.3097,-2.3635,-2.2536,-2.1442,-2.0418,-1.9581,-1.9031,-1.8897,-1.9573,-1.9708,-1.9708,-1.9708,-1.9708,-1.9708,-1.9708,-1.9708,-2.0112,-2.1246,-2.1575,-2.2936,-2.6303,-2.6896,-2.7869,-3.0013,-3.0402,-3.0253,-2.9651,-2.9606,-2.9684,-2.9939,-3.0133,-3.0537,-3.1182,-3.0193,-2.952,-2.9295,-2.8831,-2.8248,-2.76,-2.8498,-2.9131,-2.9606,-2.9606,-3.0298,-3.1406,-2.9654,0.0,0.0,-2.934,-2.916,-2.9606,-2.9606,-2.9726,-2.9864,-2.9864,-2.9864,-2.9879,0.0,0.0,0.0,0.0,0.0,0.0,-1.4808,-1.5806,-1.6722,-1.7335,-1.741,-1.741,-1.741,-1.5915,-1.5349,-1.6375,-1.5492,0.0,0.0,0.0,0.0,0.0,0.0,0.0,0.0,0.0,-1.65,-1.65,-1.65,-1.65,-1.65,-1.65,-1.65,-1.65,0.0,0.0,0.0,0.0,0.0,0.0,0.0,0.0,0.0,0.0,0.0,0.0,0.0,0.0,0.0,0.0,0.0,0.0,0.0,-1.65,-1.6613,-1.7234,-1.8552,-1.9834,-1.9834,-2.1575,-2.2799,-2.0265,-2.0172,-2.0359,-1.8999,-1.8717,-1.8897,-1.9573,-1.9708,-1.9708,-1.9708,-1.9708,-1.9708,-1.9708,-1.9708,-1.9947,-2.0632,-2.1291,-2.2428,-2.4395,-2.5217,-2.6677,-2.9352,-3.0148,-3.0253,-2.9651,-2.9606,0.0,-2.8652,-2.9235,-2.9906,-3.0492,-2.8648,-2.7959,-2.8607,-2.8607,-2.8248,-2.7615,-2.8963,-2.9592,-2.9606,-2.9606,-3.0298,-3.1436,0.0,0.0,0.0,-2.9834,-2.9592,-2.9606,-2.9606,-2.9953,-3.0492,-3.0492,-3.0492,-3.0597,0.0,0.0,0.0,0.0,0.0,0.0,0.0,-1.4287,-1.472,-1.6057,-1.5915,-1.5977,-1.671,-1.5663,-1.5336,-1.64,-1.5525,0.0,0.0,0.0,0.0,0.0,0.0,0.0,0.0,0.0,-1.65,-1.65,-1.65,-1.65,-1.65,-1.65,-1.65,-1.65,-1.65,-1.65,0.0,0.0,0.0,0.0,0.0,0.0,-1.65,0.0,0.0,0.0,0.0,0.0,0.0,0.0,0.0,0.0,0.0,0.0,0.0,-1.6735,-1.769,-1.8905,-1.9777,-2.079,-2.1533,-2.1126,-2.0881,-2.0464,-1.957,-1.9375,-1.9453,-1.9663,-1.9708,-1.9708,-1.9708,-1.9708,-1.9708,-1.9708,-1.9708,-1.9783,-1.9989,-2.0976,-2.2592,-2.5016,-2.7445,-2.8936,-2.8921,-2.949,-2.9442,-2.8319,-2.8678,-2.8816,-2.8607,-2.8378,-2.8738,-2.9834,-2.8831,-2.8382,-2.8607,-2.8154,-2.7809,-2.76,-2.8034,-2.8723,-2.9606,-2.9606,-3.0298,0.0,0.0,0.0,0.0,-3.0492,-3.0492,-3.0883,-3.0883,-3.1017,-3.1182,-3.1182,-3.1182,-3.1212,0.0,0.0,0.0,0.0,0.0,0.0,0.0,-1.3622,-1.391,-1.4959,-1.4815,-1.4997,-1.6082,-1.504,-1.4864,-1.6362,-1.5525,0.0,0.0,0.0,0.0,0.0,0.0,0.0,0.0,-1.65,-1.66,-1.6848,-1.6848,-1.6848,-1.6848,-1.6848,-1.6722,-1.65,-1.65,-1.65,0.0,0.0,0.0,0.0,0.0,0.0,-1.65,0.0,0.0,0.0,0.0,0.0,0.0,0.0,0.0,0.0,0.0,0.0,0.0,0.0,-1.6873,-1.746,-1.8482,-1.9243,-1.9803,-1.9923,-2.0,-1.9845,-1.9166,-1.937,-1.9639,-1.9442,-1.9566,-1.9708,-1.9708,-1.9708,-1.9708,-1.9708,-1.9708,-1.9708,-1.9708,-2.0842,-2.2577,-2.4933,-2.7934,-2.937,-2.8308,-2.8816,-2.8888,-2.8049,-2.8113,-2.8203,-2.8203,-2.7824,-2.7989,-2.8828,-2.8453,-2.8203,-2.8203,-2.7809,-2.76,-2.76,-2.7869,-2.8558,-2.9621,-2.9846,-3.0507,0.0,0.0,0.0,0.0,-3.1032,-3.1122,-3.1511,-3.1511,-3.1511,-3.1511,-3.1511,-3.1511,-3.1511,0.0,0.0,0.0,0.0,0.0,0.0,0.0,-1.369,-1.4035,-1.4035,-1.4035,-1.4425,-1.5404,-1.413,-1.4037,-1.6137,0.0,0.0,0.0,0.0,0.0,0.0,0.0,0.0,-1.65,-1.65,-1.6763,-1.7348,-1.7385,-1.741,-1.741,-1.7448,-1.7137,-1.655,-1.655,-1.6538,-1.6463,0.0,0.0,0.0,-1.5957,-1.6057,0.0,0.0,0.0,0.0,0.0,0.0,0.0,0.0,0.0,0.0,0.0,0.0,0.0,0.0,0.0,0.0,0.0,-1.7201,-1.7852,-1.7262,-1.7985,-1.8678,-1.8053,-1.8819,0.0,-1.8949,-1.9299,-1.969,-1.9639,-1.9672,-1.9708,-1.9708,-1.9753,-1.9768,-1.9768,-2.1081,-2.2727,-2.453,-2.7126,-2.8412,-2.76,-2.8173,-2.8577,-2.8532,-2.7959,-2.76,-2.76,-2.76,-2.76,-2.76,-2.76,-2.76,-2.76,-2.76,-2.76,-2.76,-2.8263,-2.8951,-2.9636,-3.0223,-3.0824,0.0,0.0,0.0,0.0,-3.138,-3.1409,-3.1409,-3.1467,-3.1511,-3.1511,-3.1511,-3.1511,-3.1511,0.0,0.0,0.0,0.0,0.0,0.0,0.0,0.0,0.0,0.0,-1.3403,-1.3504,-1.3767,-1.3453,-1.3591,0.0,0.0,0.0,0.0,0.0,0.0,0.0,0.0,0.0,-1.65,-1.65,-1.6563,-1.6701,-1.7162,-1.741,-1.741,-1.7815,-1.7714,-1.7197,-1.7197,-1.6936,-1.6488,-1.6384,0.0,0.0,-1.635,-1.6387,0.0,0.0,0.0,0.0,-1.65,-1.65,0.0,0.0,0.0,0.0,0.0,0.0,0.0,0.0,-1.64,-1.6254,-1.597,0.0,-1.6944,-1.7186,-1.7768,-1.8241,0.0,-1.8589,-1.8949,-1.84,-1.9043,-1.9566,-1.9169,-1.9424,-1.9708,-1.9708,-2.0124,-2.0449,-2.0449,-2.334,-2.5615,-2.6078,-2.8457,-2.9205,-2.7036,-2.7904,-2.8382,-2.7884,-2.769,-2.76,-2.76,-2.76,-2.76,-2.76,-2.76,-2.76,-2.76,-2.76,-2.76,-2.76,-2.8263,-2.8951,-2.9636,-3.0223,-3.0538,0.0,0.0,0.0,-2.9628,-3.0299,-3.0584,-3.0644,-3.1248,-3.1511,-3.1511,-3.1511,-3.1511,-3.1511,0.0,0.0,0.0,0.0,0.0,0.0,0.0,0.0,0.0,0.0,0.0,0.0,0.0,0.0,0.0,0.0,0.0,0.0,0.0,0.0,0.0,0.0,0.0,-1.65,-1.65,-1.65,-1.6647,-1.6911,-1.7247,-1.7536,-1.7765,-1.7802,-1.7664,-1.7398,-1.7099,-1.681,-1.6475,-1.6245,-1.6262,-1.6475,-1.6224,0.0,0.0,0.0,0.0,0.0,-1.65,-1.65,0.0,-1.65,-1.65,-1.65,0.0,0.0,0.0,0.0,-1.6158,-1.5693,-1.5412,-1.5891,-1.6563,-1.6858,-1.7353,-1.7727,-1.7727,-1.8165,-1.838,-1.7847,-1.8593,-1.9244,-1.8949,-1.935,-1.9813,-2.0109,-2.0449,-2.1002,-2.1919,-2.4148,-2.5914,-2.6512,-2.8113,-2.8618,0.0,-2.7735,-2.8004,-2.763,-2.76,-2.76,-2.76,-2.76,-2.76,-2.76,-2.728,-2.71,-2.71,-2.7433,-2.7433,-2.71,-2.8446,-2.9235,-2.9636,-3.0552,-3.0719,0.0,0.0,0.0,-2.9034,-2.9504,-2.995,-3.0329,-3.0777,-3.1161,-3.1511,-3.1511,-3.1511,-3.1511,0.0,0.0,0.0,0.0,0.0,0.0,0.0,0.0,0.0,0.0,0.0,0.0,0.0,0.0,0.0,0.0,0.0,0.0,0.0,0.0,0.0,0.0,0.0,-1.6538,-1.6647,-1.6538,-1.681,-1.741,-1.7551,-1.7877,-1.8329,-1.8052,-1.7775,-1.7511,-1.6911,-1.6588,-1.6463,-1.6019,-1.6082,-1.645,-1.6007,0.0,0.0,0.0,0.0,0.0,0.0,0.0,0.0,-1.65,-1.65,-1.65,-1.65,0.0,0.0,0.0,0.0,0.0,-1.4909,-1.5618,-1.6363,-1.627,-1.6723,-1.7167,-1.7167,-1.7585,-1.7827,-1.7291,-1.8027,-1.8746,-1.8669,-1.9168,-1.9764,-2.0321,-2.0754,-2.1774,-2.3924,-2.4807,-2.5621,-2.6767,-2.751,-2.7824,-2.7615,-2.76,-2.76,-2.76,-2.76,-2.76,-2.76,-2.7484,-2.7433,-2.7433,-2.6721,-2.6283,-2.6176,-2.6904,-2.6956,-2.6365,-2.8424,-2.9332,-2.9294,-3.0683,-3.0807,-2.9889,0.0,0.0,-2.862,-2.8748,-2.9254,-2.9919,-3.0042,-3.0524,-3.1117,-3.1117,-3.1117,-3.1117,0.0,0.0,0.0,0.0,0.0,0.0,0.0,0.0,0.0,0.0,0.0,0.0,0.0,0.0,0.0,0.0,0.0,0.0,0.0,0.0,0.0,-1.645,-1.65,-1.6748,-1.726,-1.6773,-1.681,-1.741,-1.8317,-1.8795,-1.8895,-1.9786,-1.9447,-1.8053,-1.7501,-1.6974,-1.6488,-1.64,-1.6425,-1.6488,-1.64,0.0,0.0,0.0,0.0,0.0,0.0,0.0,0.0,-1.65,-1.65,-1.65,-1.65,0.0,0.0,0.0,0.0,0.0,-1.5009,-1.5349,-1.5701,-1.5265,-1.5899,-1.6616,-1.6616,-1.7034,-1.7271,-1.6731,-1.7483,-1.8086,-1.7626,-1.8358,-1.9057,-1.9155,-2.0984,-2.347,-2.6553,-2.756,-2.8068,-2.8263,-2.8861,-2.8858,-2.7705,-2.76,-2.76,-2.76,-2.76,-2.76,-2.76,-2.7008,-2.6669,-2.6669,-2.5946,-2.5259,-2.4652,-2.537,-2.5673,-2.5577,-2.761,-2.824,-2.7632,-2.9603,-2.9597,-2.8117,0.0,-2.7637,-2.6939,-2.7604,-2.7986,-2.8182,-2.8907,-2.9286,-2.938,-2.938,-2.938,-2.938,0.0,0.0,0.0,0.0,0.0,0.0,0.0,0.0,0.0,0.0,0.0,0.0,0.0,0.0,0.0,0.0,0.0,0.0,0.0,0.0,-1.5982,-1.6475,-1.65,-1.6785,-1.7398,-1.7413,-1.7702,-1.8267,-1.9058,-1.961,-1.9911,-1.9823,-1.8894,-1.7265,-1.7024,-1.6773,-1.65,-1.65,-1.65,-1.65,0.0,0.0,0.0,0.0,0.0,0.0,0.0,0.0,0.0,0.0,-1.63,-1.612,-1.64,0.0,0.0,0.0,0.0,0.0,-1.4979,-1.5072,-1.5211,-1.4959,-1.5706,-1.6425,-1.6132,-1.6473,-1.6795,-1.6552,-1.7366,-1.7987,-1.7406,-1.8442,-1.9592,-2.0251,-2.2527,-2.4722,-2.6239,-2.6971,-2.7369,-2.7451,0.0,-2.7006,-2.6459,-2.6759,-2.6861,-2.6495,-2.6803,-2.6725,-2.607,-2.595,-2.5764,-2.5438,-2.5025,-2.4652,-2.4292,-2.4221,-2.4394,-2.4823,-2.651,-2.7143,-2.681,-2.842,-2.8488,-2.7287,0.0,-2.7229,-2.6521,-2.6905,-2.7317,-2.7736,-2.8149,-2.8588,-2.9002,-2.9002,-2.9002,-2.9002,0.0,0.0,0.0,0.0,0.0,0.0,0.0,0.0,0.0,0.0,0.0,0.0,0.0,0.0,0.0,0.0,0.0,0.0,0.0,0.0,-1.6362,-1.6488,-1.65,-1.6911,-1.7752,-1.8053,-1.8593,-1.9409,-1.9949,-2.0363,-2.0679,-1.966,-1.8293,-1.6722,-1.6722,-1.6626,-1.65,-1.65,-1.65,-1.65,0.0,0.0,0.0,0.0,0.0,0.0,0.0,0.0,0.0,0.0,0.0,0.0,0.0,0.0,0.0,-1.63,-1.5731,-1.5035,-1.479,-1.4796,-1.4878,-1.4733,-1.5605,-1.6425,-1.6158,-1.6421,-1.676,-1.6864,-1.7593,-1.803,-1.7431,-1.8477,-1.9903,-2.1403,-2.342,-2.5034,-2.5631,-2.6048,-2.6418,-2.6656,-2.598,-2.5466,-2.5425,-2.5778,-2.5814,-2.5314,-2.5743,-2.5626,-2.469,-2.4827,-2.4669,-2.4066,-2.3905,-2.3822,-2.3822,-2.3361,-2.3395,-2.4044,-2.5461,-2.6036,-2.5873,-2.713,-2.722,-2.6432,-2.6994,-2.6868,-2.6298,-2.6436,-2.685,-2.7417,-2.7417,-2.7835,-2.8395,-2.8395,-2.8395,-2.8395,0.0,0.0,0.0,0.0,0.0,0.0,0.0,0.0,0.0,0.0,0.0,0.0,0.0,0.0,0.0,0.0,0.0,0.0,0.0,0.0,-1.5982,-1.6475,-1.65,-1.7252,-1.8845,-1.8418,-1.897,-2.0578,-2.1119,-2.1157,-2.0679,-2.0037,-1.8882,-1.7348,-1.7348,-1.7024,-1.65,-1.65,-1.65,-1.65,-1.65,0.0,0.0,0.0,0.0,0.0,0.0,0.0,0.0,0.0,0.0,0.0,0.0,0.0,-1.5756,-1.5756,-1.5693,-1.5437,-1.4425,-1.4525,-1.479,-1.4274,-1.5349,-1.6647,-1.7149,-1.731,-1.7486,-1.7978,-1.814,-1.8025,-1.7481,-1.7895,-1.9068,-2.1399,-2.2351,-2.3622,-2.6007,-2.637,-2.6592,-2.7163,-2.6702,-2.6119,-2.555,-2.498,-2.4633,-2.4592,-2.4633,-2.4619,-2.4522,-2.3905,-2.3294,-2.2751,-2.2542,-2.2446,-2.2446,-2.2874,-2.3138,-2.3198,-2.4609,-2.4896,-2.4222,-2.5612,-2.5775,-2.496,-2.5522,-2.5728,-2.5699,-2.6273,-2.6521,-2.6589,-2.6589,-2.6624,-2.6692,-2.6692,-2.6692,-2.6692,0.0,0.0,0.0,0.0,0.0,0.0,0.0,0.0,0.0,0.0,0.0,0.0,0.0,0.0,0.0,0.0,0.0,0.0,0.0,-1.6019,-1.6443,-1.6959,-1.668,-1.7292,-1.8954,-1.88,-1.9359,-2.0691,-2.0893,-2.0553,-1.9635,-1.907,-1.8103,-1.6848,-1.6848,-1.6701,-1.65,-1.65,-1.65,-1.65,-1.65,-1.65,0.0,0.0,0.0,0.0,0.0,0.0,0.0,0.0,-1.4676,-1.4551,-1.5437,-1.5475,-1.5273,-1.5593,-1.5236,-1.4626,-1.4217,-1.4488,-1.4846,-1.4651,-1.5563,-1.655,-1.6798,-1.7388,-1.7852,-1.7714,-1.8806,-1.9585,-1.8995,-1.9058,-1.9611,-2.0899,-2.2585,-2.4176,-2.5466,-2.5967,-2.6155,-2.5997,-2.5359,-2.4543,-2.3618,-2.3696,-2.3635,-2.3246,-2.3259,-2.3137,-2.2708,-2.2398,-2.1963,-2.1452,-2.1974,-2.2309,-2.2309,-2.2832,-2.3108,-2.3108,-2.4027,-2.4307,-2.4029,-2.5237,-2.5434,-2.4838,-2.5749,-2.5971,-2.5636,-2.6248,-2.6285,-2.5925,-2.5925,-2.5925,-2.5996,-2.6361,-2.6499,-2.6499,0.0,0.0,0.0,0.0,0.0,0.0,0.0,0.0,0.0,0.0,0.0,0.0,0.0,0.0,0.0,0.0,0.0,0.0,-1.5982,-1.6287,-1.6659,-1.7034,-1.6689,-1.7137,-1.8465,-1.8494,-1.9133,-2.0415,-2.0422,-1.994,-1.8998,-1.8611,-1.8028,-1.7294,-1.6914,-1.6876,-1.705,-1.667,-1.65,-1.65,-1.65,-1.65,0.0,0.0,0.0,0.0,0.0,0.0,0.0,0.0,-1.413,-1.4004,-1.511,-1.5072,-1.479,-1.548,-1.506,-1.433,-1.4154,-1.4488,-1.4896,-1.4896,-1.5567,-1.6396,-1.6914,-1.7652,-1.8191,-1.8154,-1.9371,-2.0352,-2.0138,-1.9924,-2.0049,-2.083,-2.238,-2.3681,-2.4197,-2.4471,-2.4501,-2.4083,-2.3565,-2.2836,-2.1882,-2.2262,-2.2369,-2.1899,-2.194,-2.1798,-2.1329,-2.1275,-2.1006,-2.044,-2.1305,-2.1882,-2.2046,-2.2569,-2.2932,-2.3108,-2.3715,-2.3904,-2.3753,-2.4669,-2.4795,-2.4324,-2.546,-2.5724,-2.5398,-2.5996,-2.6097,-2.5883,-2.5661,-2.5711,-2.5912,-2.6348,-2.6499,-2.6499,0.0,0.0,0.0,0.0,0.0,0.0,0.0,0.0,0.0,0.0,0.0,0.0,0.0,0.0,0.0,0.0,0.0,0.0,-1.65,-1.65,-1.65,-1.6522,-1.65,-1.6785,-1.7385,-1.7398,-1.819,-1.9786,-1.9778,-1.9517,-1.8986,-1.8932,-1.8969,-1.9045,-1.7853,-1.7671,-1.8224,-1.7025,-1.6522,-1.6522,-1.6522,-1.65,-1.65,0.0,0.0,0.0,0.0,0.0,0.0,0.0,-1.3198,-1.3403,-1.4544,-1.4525,-1.4299,-1.5387,-1.5311,-1.479,-1.4236,-1.4488,-1.4896,-1.4916,-1.5324,-1.6145,-1.7815,-1.8204,-1.8518,-1.9597,-1.9811,-1.9987,-2.0591,-2.0226,-2.0175,-2.1292,-2.1481,-2.1669,-2.2234,-2.1832,-2.1493,-2.1493,-2.1493,-2.1307,-2.0742,-2.0691,-2.0691,-2.0691,-2.0679,-2.0679,-2.0691,-2.0679,-2.0427,-1.9823,-2.0402,-2.0968,-2.1481,-2.2046,-2.2556,-2.3108,-2.3715,-2.369,-2.3133,-2.374,-2.369,-2.317,-2.4299,-2.4788,-2.4825,-2.5372,-2.5925,-2.6424,-2.5824,-2.5971,-2.6474,-2.6499,-2.6499,-2.6487,0.0,0.0,0.0,0.0,0.0,0.0,0.0,0.0,0.0,0.0,0.0,0.0,0.0,0.0,0.0,0.0,0.0,0.0,-1.65,-1.65,-1.668,-1.7055,-1.6689,-1.6756,-1.7315,-1.6955,-1.74,-1.8681,-1.8672,-1.86,-1.8451,-1.8848,-1.881,-1.8388,-1.8529,-1.8406,-1.8133,-1.7774,-1.7415,-1.7055,-1.7055,-1.6837,-1.65,0.0,0.0,0.0,0.0,0.0,0.0,0.0,0.0,0.0,-1.4544,-1.4525,-1.4242,-1.4921,-1.4765,-1.4286,-1.4141,-1.4488,-1.4984,-1.5374,-1.6191,-1.7033,-1.7513,-1.7928,-1.8731,-2.0602,-2.0704,-2.0603,-2.1169,-2.0817,-2.0541,-2.088,-2.0943,-2.1131,-2.1656,-2.1594,-2.1493,-2.1493,-2.1493,-2.1307,-2.0742,-2.0691,-2.0691,-2.0691,-2.0314,-2.0264,0.0,-2.0302,-1.9974,-1.9811,-2.074,-2.1358,-2.1493,-2.2422,-2.2945,-2.3108,-2.3283,-2.3484,-2.3766,-2.4318,-2.4268,-2.3778,-2.4474,-2.4607,-2.4293,-2.4833,-2.5146,-2.5322,-2.5523,-2.5473,-2.5398,-2.621,-2.6235,-2.585,0.0,0.0,0.0,0.0,0.0,0.0,0.0,0.0,0.0,0.0,-1.6586,-1.6321,0.0,0.0,0.0,-1.6795,-1.6616,0.0,-1.6795,-1.6616,-1.6637,-1.6972,-1.668,-1.6752,-1.7291,-1.6972,-1.7256,-1.8161,-1.8153,-1.8274,-1.8501,-1.9349,-1.9652,-1.9538,-1.9446,-1.9337,-1.9176,-1.8432,-1.7907,-1.7626,-1.7626,-1.7435,-1.7118,0.0,0.0,0.0,0.0,0.0,0.0,0.0,0.0,0.0,-1.4934,-1.4702,-1.4217,-1.4739,-1.4343,-1.379,-1.4022,-1.4488,-1.5022,-1.5575,-1.6568,-1.7461,-1.7664,-1.8468,-1.9623,-2.1167,-2.1257,-2.1182,-2.1707,-2.1219,-2.0767,-2.0981,-2.0641,-2.0465,-2.0778,-2.0451,-2.0188,-2.0188,-2.0188,-2.0049,-1.9749,-1.9886,-2.0012,-2.0012,-1.9886,0.0,0.0,-1.9987,-1.9911,-2.0137,-2.0577,-2.1142,-2.1807,-2.2259,-2.2669,-2.3108,-2.3108,-2.3283,-2.3647,-2.4243,-2.4192,-2.369,-2.4255,-2.4431,-2.4343,-2.4456,-2.4745,-2.5146,-2.5247,-2.5222,-2.5234,-2.6172,-2.6135,-2.5598,0.0,0.0,-1.3616,-1.4708,0.0,0.0,0.0,0.0,0.0,-1.598,-1.5911,-1.5858,0.0,0.0,0.0,-1.7167,-1.6774,-1.671,-1.7188,-1.6774,-1.65,-1.65,-1.6552,-1.6816,-1.7374,-1.7374,-1.7646,-1.8185,-1.8185,-1.8419,-1.8926,-2.0152,-2.0991,-2.1465,-2.045,-2.0275,-2.068,-1.897,-1.8224,-1.8185,-1.8185,-1.8145,-1.8046,-1.7565,0.0,0.0,0.0,0.0,0.0,0.0,0.0,0.0,-1.5517,-1.5022,-1.4337,-1.484,-1.4199,-1.3466,-1.4022,-1.4525,-1.5022,-1.5575,-1.6584,-1.7601,-1.8154,-1.9522,-2.0817,-2.127,-2.1446,-2.1644,-2.2146,-2.1408,-2.0842,-2.1255,-2.0426,-1.971,-1.966,-1.8819,-1.8204,-1.8204,-1.8204,-1.8204,-1.8204,-1.8682,-1.9008,-1.9008,-1.951,0.0,0.0,-1.9798,-2.0037,-2.0591,-2.0175,-2.069,-2.2221,-2.1845,-2.2121,-2.3032,-2.3032,-2.3007,-2.2982,-2.364,-2.364,-2.3133,-2.369,-2.4243,-2.4675,-2.4205,-2.4569,-2.541,-2.4983,-2.5109,-2.5598,-2.6197,-2.6084,-2.5598,0.0,0.0,-1.4123,-1.4771,0.0,0.0,0.0,0.0,-1.7256,-1.8107,-1.7477,-1.7127,-1.7537,-1.6949,0.0,-1.6659,-1.6573,-1.6552,-1.6659,-1.6552,-1.65,-1.65,-1.6888,-1.7394,-1.7927,-1.7927,-1.8204,-1.8727,-1.8727,-1.8798,-1.8926,-2.0152,-2.0498,-2.0139,-2.0414,-2.0332,-1.9931,-1.9524,-1.9114,-1.8727,-1.8727,-1.8477,-1.8086,-1.7967,-1.7927,0.0,0.0,0.0,0.0,0.0,0.0,0.0,-1.5517,-1.553,-1.5387,-1.548,-1.506,-1.4557,-1.4683,-1.4815,-1.5022,-1.5575,-1.6873,-1.8179,-1.8707,-1.9786,-2.0591,-2.0238,-2.0878,-2.1559,-2.1644,-2.1144,-2.0578,-2.0213,-1.9623,-1.902,-1.8606,-1.8355,-1.8204,-1.8204,-1.8204,-1.8204,-1.8204,-1.8682,-1.9008,-1.9008,0.0,0.0,-1.9798,-1.9798,-1.9861,-1.9987,-2.0727,-2.1305,-2.1656,-2.238,-2.2656,0.0,-2.2456,-2.2259,-2.1882,-2.2844,-2.3221,-2.3108,-2.3233,-2.3622,-2.4167,-2.4054,-2.413,-2.4368,-2.4662,-2.4863,-2.5059,-2.5586,-2.5699,-2.5598,0.0,0.0,0.0,0.0,0.0,0.0,0.0,0.0,-1.7105,-1.7686,-1.725,-1.7013,-1.7312,-1.6837,0.0,0.0,-1.6879,-1.6993,-1.725,-1.7271,-1.7271,-1.7271,-1.7524,-1.7927,-1.8477,-1.8477,-1.8746,-1.9281,-1.9281,-1.9281,-1.9295,-2.0247,-2.0494,-2.0183,-2.0539,-2.0494,-2.0154,-1.9842,-1.9548,-1.9281,-1.9281,-1.9132,-1.8836,-1.8574,-1.8477,-1.8458,-1.8204,0.0,0.0,0.0,0.0,0.0,0.0,0.0,-1.5693,-1.5693,-1.5324,-1.4896,-1.4896,-1.5085,-1.5487,-1.6317,-1.7162,-1.7953,-1.8481,-1.907,-1.9397,-1.9095,-2.0137,-2.1031,-2.0727,-2.0238,-1.9698,-1.9133,-1.8593,-1.8141,-1.7852,-1.7576,-1.74,-1.74,-1.74,-1.74,-1.74,-1.7903,-1.8355,-1.8594,0.0,-1.9547,-1.9786,-1.9798,-1.9924,-2.0239,-2.0526,-2.0941,-2.1481,-2.1794,-2.1945,-2.192,-2.192,-2.1769,-2.1546,-2.233,-2.2857,-2.3108,-2.3108,-2.3434,-2.3979,-2.3703,-2.3753,-2.4029,-2.4318,-2.4562,-2.485,-2.541,-2.5598,-2.5598,0.0,0.0,0.0,0.0,0.0,0.0,0.0,0.0,0.0,-1.6637,-1.6552,-1.6531,-1.6637,-1.6552,-1.671,0.0,0.0,0.0,-1.8066,-1.8106,-1.8145,-1.8243,-1.8243,-1.8496,-1.9024,-1.9043,-1.9262,-1.9708,-1.9708,-1.9708,-1.9708,-2.0273,-2.0543,-2.0543,-2.0543,-2.0543,-2.0498,-1.9947,-1.9708,-1.9708,-1.9708,-1.9708,-1.9639,-1.9207,-1.9043,-1.8987,-1.8535,-1.8322,-1.8165,-1.7626,0.0,0.0,0.0,0.0,-1.5819,-1.5718,-1.5399,-1.5009,-1.4941,-1.5299,-1.5944,-1.6996,-1.7322,-1.7524,-1.7953,-1.8141,-1.8204,-1.8204,-1.9284,-2.0126,-1.961,-1.9146,-1.8682,-1.8154,-1.7677,-1.7373,-1.7272,-1.6823,-1.65,-1.65,-1.65,-1.65,-1.65,-1.7049,-1.7564,0.0,0.0,-1.9196,-1.9648,-1.9748,-2.0024,-2.0528,-2.015,-2.0401,-2.1343,-2.1018,-2.1069,-2.1493,-2.1421,-2.1343,-2.1395,-2.192,-2.2443,-2.297,-2.3058,-2.3371,-2.3816,-2.3308,-2.3384,-2.3853,-2.3853,-2.4255,-2.4838,-2.531,-2.5586,-2.5749,0.0,0.0,0.0,0.0,0.0,0.0,0.0,0.0,0.0,0.0,-1.6795,-1.668,-1.7126,-1.6774,-1.671,-1.725,-1.7312,-1.7524,-1.8066,0.0,0.0,-1.8765,-1.8798,-1.9043,-1.9584,-1.9584,-1.9621,-1.9708,-1.9708,-1.9708,-1.9708,-1.9798,-1.9842,-1.9842,-1.9842,-1.9842,-1.9828,-1.9738,-1.9708,-1.9708,-1.9708,-1.9708,-1.969,-1.9621,-1.9584,-1.9584,-1.9512,-1.9188,-1.8708,-1.8185,-1.7686,0.0,0.0,0.0,-1.6287,-1.5831,-1.5643,-1.548,-1.5022,-1.5299,-1.5844,-1.6471,-1.7011,-1.7423,-1.7498,-1.7865,-1.8204,-1.8204,-1.838,-1.8505,-1.843,-1.8367,-1.8129,-1.7576,-1.7461,-1.7212,-1.6688,-1.655,-1.65,-1.65,-1.65,-1.65,-1.65,-1.7049,-1.7436,0.0,-1.8418,-1.9033,-1.9108,-1.956,-1.9836,-1.9911,-2.0352,-2.0641,-2.0805,-2.1207,-2.1446,-2.1481,-2.1031,-2.0805,-2.083,-2.1343,-2.1895,-2.2418,-2.2895,-2.3145,-2.3208,-2.3133,-2.3145,-2.3221,-2.3221,-2.386,-2.48,-2.4863,-2.5523,-2.6386,0.0,0.0,0.0,0.0,0.0,0.0,0.0,0.0,0.0,0.0,0.0,-1.6909,-1.6858,-1.7167,-1.7374,-1.7312,-1.7565,-1.7847,-1.8086,-1.8106,-1.8341,-1.8874,-1.8893,-1.9006,-1.9244,-1.9548,-1.9548,-1.9244,-1.9548,-1.9708,-1.9708,-1.9708,-1.9708,-1.9708,-1.9708,-1.9708,-1.9708,-1.9708,-1.9708,-1.9708,-1.9708,-1.9708,-1.9708,-1.9708,-1.9708,-1.9708,-1.9708,-1.9548,-1.9262,-1.8727,-1.8204,-1.7646,-1.7105,0.0,0.0,0.0,-1.6158,-1.6107,-1.5856,-1.5743,-1.5831,-1.6384,-1.671,-1.6898,-1.6898,-1.7087,-1.7262,-1.7262,-1.7262,-1.735,-1.7689,-1.7739,-1.7551,-1.6986,-1.6898,-1.681,-1.6538,-1.65,-1.65,-1.65,-1.65,-1.65,-1.65,-1.6748,-1.7036,0.0,-1.8116,-1.8669,-1.8983,-1.9522,-1.9798,-1.9798,-2.0049,-2.0214,-2.0214,-2.0426,-2.0539,-2.0539,-2.03,-2.0214,-2.0239,-2.1091,-2.1794,-2.2347,-2.2869,-2.3108,-2.3108,-2.3108,-2.3108,-2.3108,-2.3108,-2.3797,-2.4788,-2.4788,-2.5523,-2.6499,0.0,0.0,0.0,0.0,0.0,0.0,0.0,0.0,0.0,0.0,0.0,-1.693,-1.6531,0.0,0.0,0.0,-1.7666,-1.7947,-1.8086,-1.8106,-1.8283,-1.8669,-1.8688,-1.8746,-1.8893,-1.9169,-1.9225,-1.9114,-1.9369,-1.9566,-1.9708,-1.9708,-1.9708,-1.9708,-1.9708,-1.9708,-1.9708,-1.9708,-1.9708,-1.9708,-1.9708,-1.9708,-1.9708,-1.9708,-1.9708,-1.9708,-1.9708,-1.9708,-1.9621,-1.908,-1.8631,-1.8204,-1.7504,-1.7034,0.0,0.0,0.0,-1.6333,-1.645,-1.612,-1.5831,-1.6384,-1.6387,-1.6325,-1.6463,-1.65,-1.65,-1.65,-1.65,-1.6647,-1.7087,-1.7162,-1.7024,-1.6563,-1.65,-1.65,-1.65,-1.65,-1.65,-1.65,-1.65,-1.65,-1.65,-1.65,-1.6697,0.0,-1.7677,-1.8179,-1.8569,-1.9108,-1.9397,-1.9397,-1.9535,-1.961,-1.961,-1.9874,-1.9949,-1.9798,-1.9949,-1.9936,-1.9849,-2.0978,-2.1707,-2.2133,-2.2807,-2.3108,-2.3108,-2.3108,-2.3108,-2.3108,-2.3108,-2.3797,-2.4788,-2.4788,-2.5523,-2.6499,0.0,0.0,0.0,0.0,0.0,0.0,0.0,0.0,0.0,0.0,0.0,-1.6543,-1.65,-1.6552,-1.6774,-1.725,-1.7333,-1.7565,-1.8066,-1.8106,-1.8125,-1.8145,-1.8145,0.0,-1.8893,-1.8438,-1.8669,-1.9657,-1.9188,-1.9207,-1.9708,-1.9708,-1.9708,-1.9708,-1.9708,-1.9708,-1.9708,-1.9708,-1.9708,-1.9708,-1.9708,-1.9708,-1.9708,-1.9708,-1.9708,-1.9708,-1.9708,-1.9708,-1.9621,-1.908,-1.8874,-1.8669,-1.7626,-1.7271,-1.7063,0.0,0.0,0.0,-1.635,-1.612,-1.5831,-1.6384,-1.612,-1.5869,-1.6375,-1.65,-1.65,-1.65,-1.65,-1.65,-1.6538,-1.6538,-1.6538,-1.65,-1.65,-1.65,-1.65,-1.65,-1.65,-1.65,-1.65,-1.65,-1.65,-1.65,-1.65,0.0,-1.7099,-1.7461,-1.7486,-1.799,-1.8292,-1.8292,-1.877,-1.9045,-1.9045,-2.01,-2.0377,-1.9811,-2.0377,-2.0365,-1.9849,-2.0978,-2.1506,-2.1594,-2.2644,-2.3108,-2.3108,-2.3108,-2.3108,-2.3108,-2.3108,-2.3797,-2.4788,-2.4788,-2.5523,-2.6499,0.0,0.0,0.0,0.0,0.0,0.0,0.0,0.0,0.0,0.0,0.0,0.0,0.0,-1.7118,-1.7463,-1.7312,-1.7312,-1.7229,-1.7076,-1.7076,-1.7229,-1.7565,-1.7585,0.0,-1.7867,-1.8027,-1.8125,-1.8165,-1.865,-1.9006,-1.9188,-1.9548,-1.9708,-1.9708,-1.9708,-1.9708,-1.9708,-1.9708,-1.9962,-2.0303,-1.9869,-1.9944,-2.0303,-1.9854,-1.9708,-1.9708,-1.9708,-1.9708,-1.9672,-1.9479,-1.8968,-1.8322,-1.7927,-1.7353,-1.6714,-1.6325,-1.6199,-1.6271,-1.6437,-1.635,-1.6183,-1.6032,-1.6107,-1.6183,-1.6019,-1.6237,-1.65,-1.65,-1.65,-1.65,-1.65,-1.65,-1.65,-1.65,-1.65,-1.65,-1.65,-1.65,-1.65,-1.65,-1.65,-1.65,-1.65,-1.65,-1.65,0.0,0.0,-1.741,-1.741,-1.7903,-1.8204,-1.8204,-1.8392,-1.8644,-1.9008,-1.9748,-2.0012,-1.9798,-2.0012,-1.9999,-1.9823,-2.0629,-2.1182,-2.1531,-2.2284,-2.2782,-2.3108,-2.3108,-2.3108,-2.3108,-2.3108,-2.3584,-2.4293,-2.4293,-2.477,-2.546,0.0,0.0,0.0,0.0,0.0,-1.65,-1.65,0.0,0.0,0.0,0.0,0.0,0.0,0.0,-1.7435,-1.7055,-1.7034,-1.6879,-1.6522,-1.65,-1.6659,-1.7013,-1.7034,0.0,-1.7312,-1.7463,-1.7646,-1.7847,-1.838,-1.8817,-1.9188,-1.953,-1.9708,-1.9708,-1.9708,-1.9708,-1.9708,-1.9929,-2.0288,-2.0643,-1.9959,-2.0094,-2.0613,-1.9944,-1.9708,-1.9708,-1.9708,-1.9708,-1.9708,-1.9708,-1.9225,-1.8574,-1.8224,-1.7374,-1.65,-1.65,-1.65,-1.65,-1.65,-1.6362,-1.6195,-1.6019,-1.5969,-1.5969,-1.5969,-1.6086,-1.6274,-1.645,-1.65,-1.65,-1.65,-1.65,-1.65,-1.65,-1.65,-1.65,-1.65,-1.65,-1.65,-1.65,-1.65,-1.65,-1.65,-1.65,0.0,0.0,0.0,0.0,-1.7087,-1.7438,-1.7727,-1.7928,-1.8103,-1.8468,-1.8995,-1.9547,-1.9798,-1.9798,-1.9798,-1.9798,-1.9823,-2.0427,-2.0993,-2.1518,-2.2071,-2.2594,-2.3108,-2.3108,-2.3108,-2.3108,-2.3108,-2.3459,-2.4017,-2.4205,-2.4474,-2.4888,0.0,-1.5743,-1.6475,-1.65,-1.65,-1.65,-1.65,-1.65,-1.65,-1.65,0.0,0.0,0.0,0.0,0.0,-1.65,-1.65,-1.65,-1.65,-1.65,-1.65,-1.65,-1.65,0.0,-1.7271,-1.6774,-1.7271,-1.8836,-1.8341,-1.8631,-1.9639,-1.969,-1.9708,-1.9708,-1.9723,-1.9738,-1.9768,-2.0423,-2.0703,-2.0658,-2.0019,-2.0154,-2.0658,-1.9974,-1.9738,-1.9738,-1.9708,-1.9708,-1.9738,-1.9708,-1.969,-1.9479,-1.8438,-1.7374,-1.65,-1.6522,-1.6522,-1.65,0.0,0.0,0.0,-1.6337,-1.5706,-1.5211,-1.6233,-1.607,-1.5844,-1.6362,-1.6475,-1.6475,-1.65,-1.65,-1.65,-1.65,-1.65,-1.65,-1.65,-1.65,-1.65,-1.65,-1.65,-1.65,-1.65,-1.65,0.0,0.0,-1.65,-1.65,-1.65,-1.65,-1.6773,-1.736,-1.7903,-1.8455,-1.897,-1.9509,-1.9798,-1.9798,-1.9823,-1.9823,-1.9823,-2.0427,-2.0981,-2.1493,-2.2046,-2.2569,-2.3083,-2.3095,-2.3108,-2.3108,-2.3108,-2.3446,-2.4042,-2.4569,-2.4738,-2.4888,-1.4828,-1.5462,-1.6045,-1.6425,-1.65,-1.65,-1.65,0.0,0.0,0.0,0.0,0.0,-1.65,-1.65,-1.65,-1.65,-1.65,-1.65,-1.65,-1.65,-1.65,-1.65,-1.65,-1.6573,-1.671,-1.6573,-1.671,-1.7146,-1.7787,-1.8263,-1.8554,-1.935,-1.9708,-1.9723,-2.0213,-2.0423,-2.0438,-2.0613,-2.0991,-2.141,-2.1216,-2.1261,-2.135,-2.0677,-2.0423,-2.0363,-1.9869,-2.0004,-2.0348,-1.9854,-1.9442,-1.9006,-1.8322,-1.7374,-1.6573,-1.6951,-1.6795,-1.65,-1.65,0.0,0.0,0.0,0.0,0.0,-1.5462,-1.5537,-1.5731,-1.5894,-1.5919,-1.6045,-1.6425,-1.65,-1.65,-1.65,-1.65,-1.65,-1.65,-1.65,-1.65,-1.65,-1.65,-1.65,-1.65,0.0,0.0,0.0,-1.65,-1.65,-1.65,-1.65,-1.6575,-1.6748,-1.7702,-1.8279,-1.843,-1.9346,-1.9798,-1.9811,-2.0251,-2.0239,-1.9823,-2.0427,-2.0779,-2.0943,-2.1481,-2.2033,-2.2543,-2.2945,-2.3108,-2.3108,-2.3108,-2.3195,-2.3358,-2.3509,-2.3572,-2.3735,-1.5135,-1.5668,-1.6132,-1.6437,-1.65,-1.65,-1.65,0.0,0.0,0.0,0.0,0.0,-1.65,-1.65,-1.65,-1.65,-1.65,-1.65,-1.65,-1.65,-1.65,-1.65,-1.65,-1.65,-1.65,-1.65,-1.6616,-1.6837,-1.7463,-1.8007,-1.8458,-1.9062,-1.9479,-1.9738,-2.0408,-2.0703,-2.0733,-2.1306,-2.1605,-2.168,-2.1395,-2.1291,-2.1246,-2.0838,-2.0543,-2.0303,-2.0468,-2.0423,-2.0273,-2.0154,-1.9571,-1.8817,-1.8283,-1.7524,-1.6858,-1.693,-1.6731,-1.65,-1.65,-1.65,-1.6425,-1.612,0.0,0.0,-1.5655,-1.563,-1.5693,-1.5693,-1.5693,-1.5793,-1.612,-1.5959,-1.585,-1.6092,-1.592,-1.5932,-1.6423,-1.6281,-1.6117,-1.6117,-1.6358,-1.6402,-1.6139,-1.6358,-1.65,-1.65,-1.65,-1.65,-1.65,-1.65,-1.65,-1.65,-1.7614,-1.8204,-1.8204,-1.9258,-1.9798,-1.9811,-2.0415,-2.039,-1.9823,-2.0666,-2.0905,-2.0729,-2.1493,-2.202,-2.2347,-2.2882,-2.3108,-2.3108,-2.3108,-2.3108,-2.3158,-2.3634,-2.3659,-2.369,0.0,-1.6132,-1.65,-1.65,-1.65,-1.65,0.0,0.0,0.0,0.0,-1.65,-1.65,-1.65,-1.65,-1.65,-1.65,-1.65,-1.65,-1.65,-1.65,0.0,0.0,0.0,0.0,-1.65,-1.65,-1.6731,-1.7209,-1.7271,-1.7827,-1.8817,-1.8874,-1.9188,-1.9738,-2.0318,-2.0658,-2.0882,-2.2069,-2.2298,-2.1754,-2.1231,-2.0972,-2.0897,-2.0838,-2.0438,-2.0067,-2.1096,-2.0816,-2.0007,-2.0509,-2.0013,-1.9023,-1.8461,-1.7983,-1.7483,-1.6854,-1.6726,-1.6746,-1.6547,-1.6538,-1.6575,-1.6513,-1.6145,0.0,-1.6333,-1.6045,-1.568,-1.5618,-1.5605,-1.5605,-1.5532,-1.508,-1.4879,-1.5355,-1.4925,-1.4937,-1.6129,-1.5842,-1.5499,-1.5499,-1.5964,-1.6129,-1.5654,-1.6095,-1.6423,-1.6488,-1.65,-1.65,-1.65,-1.65,-1.65,-1.65,-1.7614,-1.8204,-1.8204,-1.9258,-1.9798,-1.9811,-2.0478,-2.0478,-1.9936,-2.1066,-2.1307,-2.0842,-2.1857,-2.2309,-2.2347,-2.2882,-2.3108,-2.3108,-2.3108,-2.3108,-2.3233,-2.4299,-2.4418,-2.423,-1.5668,-1.6132,-1.65,-1.65,-1.65,-1.65,0.0,0.0,-1.65,-1.65,-1.65,-1.65,-1.65,-1.65,-1.65,-1.65,-1.65,-1.65,-1.65,-1.65,0.0,0.0,0.0,0.0,-1.65,-1.65,-1.6552,-1.6659,-1.7097,-1.7626,-1.8283,-1.8688,-1.9188,-1.9708,-1.9842,-2.0483,-2.1515,-2.1784,-2.2134,-2.2538,-2.2892,-2.2742,-2.2254,-2.171,-2.1425,-2.1201,-2.0382,-2.0621,-2.1246,-2.0838,-2.0617,-2.0396,-1.9618,-1.9461,-1.9327,-1.8133,-1.8171,-1.8278,-1.6878,-1.6861,-1.7099,-1.6613,-1.6412,0.0,-1.5932,-1.5768,-1.5567,-1.5148,-1.506,-1.4917,-1.4485,-1.4325,-1.4269,-1.4385,-1.3839,-1.3792,-1.4892,-1.4949,-1.488,-1.488,-1.4971,-1.5197,-1.5565,-1.5698,-1.5986,-1.6466,-1.65,-1.65,-1.65,-1.65,-1.65,-1.65,-1.7614,-1.8204,-1.8204,-1.9258,-1.9798,-1.9811,-2.084,-2.1069,-2.0566,-2.1644,-2.1845,-2.1395,-2.202,-2.2309,-2.2347,-2.2882,-2.3108,-2.3108,-2.3108,-2.3108,-2.3195,-2.3904,-2.4092,-2.4167,-1.6057,-1.6333,-1.65,-1.65,0.0,0.0,0.0,0.0,-1.65,-1.65,-1.65,-1.65,-1.65,-1.65,-1.65,-1.65,-1.65,0.0,0.0,0.0,0.0,0.0,0.0,0.0,0.0,-1.65,-1.6637,-1.6888,-1.6888,-1.7442,-1.8496,-1.8496,-1.893,-1.9708,-2.0049,-2.0752,-2.1724,-2.2074,-2.2583,-2.3152,-2.3152,-2.2778,-2.2164,-2.1814,-2.1485,-2.1156,-2.0812,-2.1126,-2.165,-2.1321,-2.101,-2.0739,-2.0401,-1.9918,-1.9328,-1.8473,-1.8398,-1.8405,-1.7251,-1.7162,-1.7335,-1.7024,-1.6713,0.0,0.0,-1.6107,-1.5957,-1.5412,-1.5059,-1.4764,-1.4496,-1.3967,-1.3627,-1.3903,-1.342,-1.3106,-1.3397,-1.3911,-1.426,-1.426,-1.4514,-1.4812,-1.5118,-1.5141,-1.5399,-1.6008,-1.6051,-1.6318,-1.6914,-1.6948,-1.7074,-1.7328,-1.8155,-1.8594,-1.8594,-1.9409,-1.9798,-1.9811,-2.0953,-2.1232,-2.0742,-2.2096,-2.2272,-2.1531,-2.2359,-2.2543,-2.2347,-2.2882,-2.3108,-2.3108,-2.3108,-2.3108,-2.3208,-2.4061,-2.4406,-2.4569,-1.64,-1.65,-1.65,-1.65,0.0,0.0,0.0,0.0,-1.65,-1.65,-1.6705,-1.6751,-1.6534,-1.6717,-1.6751,-1.6522,-1.65,-1.65,-1.65,-1.65,0.0,0.0,0.0,-1.65,0.0,0.0,-1.671,-1.7146,-1.671,-1.7271,-1.8727,-1.8204,-1.8574,-1.9705,-2.0165,-2.085,-2.1739,-2.2283,-2.2921,-2.355,-2.3077,-2.2553,-2.2054,-2.1934,-2.156,-2.1156,-2.1695,-2.1874,-2.1859,-2.1739,-2.1425,-2.1034,-2.0757,-2.019,-1.9447,-1.8538,-1.8537,-1.8661,-1.7667,-1.7561,-1.7674,0.0,0.0,-1.6763,0.0,0.0,0.0,-1.5831,-1.5228,-1.4742,-1.4531,0.0,0.0,-1.3305,0.0,0.0,0.0,-1.3017,0.0,-1.3499,-1.3921,0.0,-1.4514,-1.4744,-1.513,-1.5732,-1.5764,-1.6203,-1.7165,-1.7348,-1.7612,-1.8028,-1.8657,-1.9008,-1.9008,-1.966,-1.9962,-1.9987,-2.1104,-2.1446,-2.1056,-2.2443,-2.2619,-2.1857,-2.2844,-2.2957,-2.251,-2.3045,-2.3208,-2.3108,-2.3108,-2.3108,-2.3246,-2.4374,-2.4788,-2.4938,-1.6488,-1.65,-1.65,-1.65,0.0,0.0,0.0,0.0,-1.65,-1.65,-1.7433,-1.77,-1.6615,-1.7454,-1.7665,-1.6602,-1.65,-1.65,-1.65,-1.65,-1.65,0.0,0.0,0.0,-1.65,0.0,-1.6543,-1.6595,-1.6543,-1.7076,-1.8185,-1.7646,-1.8224,-1.969,-1.928,-2.0069,-2.1695,-2.1784,-2.2503,-2.3595,-2.352,-2.3445,-2.3325,-2.2793,-2.2538,-2.2478,-2.2568,-2.2583,-2.2508,0.0,-2.2039,-2.2158,0.0,-2.095,-2.1721,-1.8949,-1.9633,-2.0725,0.0,0.0,0.0,0.0,-1.7702,0.0,-1.6726,0.0,-1.6986,-1.5919,0.0,-1.4519,-1.3565,0.0,0.0,0.0,0.0,0.0,-1.2213,-1.2669,-1.2854,-1.2437,-1.2434,0.0,0.0,-1.4858,-1.5754,-1.6358,-1.6402,-1.6461,-1.6588,-1.7099,-1.7436,-1.7498,-1.8456,-1.9008,-1.9008,-2.0049,-2.0591,-2.0603,-2.1694,-2.2184,-2.2146,-2.2794,-2.3032,-2.2945,-2.3615,-2.3547,-2.3058,-2.3665,-2.3572,-2.3108,-2.3108,-2.3108,-2.3246,-2.4374,-2.4788,-2.4938,-1.65,-1.65,-1.65,-1.65,0.0,0.0,0.0,0.0,-1.65,-1.65,-1.7262,-1.7456,-1.6593,-1.7533,-1.7779,-1.6597,-1.6823,-1.6873,-1.6525,-1.6835,-1.6873,-1.6513,0.0,-1.7165,0.0,0.0,0.0,-1.7489,-1.6823,-1.7385,-1.9051,-1.7845,-1.7984,-1.9236,-1.8994,-1.9769,-2.1263,-2.156,-2.2443,-2.3595,-2.3595,-2.3595,-2.3535,-2.2927,-2.2463,-2.2179,-2.2568,-2.2703,-2.2703,0.0,-2.2488,0.0,0.0,0.0,0.0,-1.9586,0.0,0.0,0.0,0.0,0.0,0.0,0.0,0.0,-1.6688,0.0,-1.6748,0.0,0.0,0.0,0.0,0.0,0.0,0.0,-1.2719,0.0,0.0,0.0,-1.2529,0.0,0.0,0.0,0.0,0.0,0.0,0.0,-1.6266,-1.6753,-1.7453,-1.8005,-1.848,-1.8769,-1.956,-1.9974,-1.9974,-2.0779,-2.1169,-2.1182,-2.1945,-2.2309,-2.2334,-2.2857,-2.3108,-2.312,-2.3358,-2.3333,-2.312,-2.3358,-2.3321,-2.3108,-2.3108,-2.3108,-2.3246,-2.4374,-2.4788,-2.4938,-1.65,-1.65,-1.65,-1.65,-1.65,0.0,0.0,0.0,-1.6964,-1.6964,-1.7644,-1.7765,-1.6857,-1.7913,-1.8111,-1.6635,-1.7049,-1.7137,-1.6538,-1.7061,-1.7276,-1.7007,-1.7768,-1.7884,-1.7237,0.0,0.0,-1.7996,-1.7298,-1.7777,-1.9325,-1.7959,-1.7879,-1.8893,-1.8948,-1.9692,-2.0941,-2.1658,-2.2592,-2.3595,-2.3595,-2.3595,-2.355,-2.3122,-2.2637,-2.2278,-2.2778,-2.2957,-2.3002,-2.3251,-2.2748,0.0,-2.2628,0.0,-2.0439,0.0,0.0,0.0,-1.8718,0.0,0.0,0.0,0.0,0.0,0.0,0.0,0.0,0.0,0.0,0.0,0.0,0.0,-1.3831,-1.3879,0.0,-1.2797,0.0,-1.2417,0.0,0.0,0.0,0.0,0.0,0.0,0.0,-1.6015,-1.6445,-1.7126,-1.8155,-1.8707,-1.9171,-1.9572,-2.0314,-2.0691,-2.0691,-2.1395,-2.1707,-2.1719,-2.2272,-2.2506,-2.2518,-2.292,-2.3108,-2.3108,-2.3271,-2.3246,-2.3108,-2.3283,-2.3246,-2.3108,-2.3108,-2.3108,-2.3246,-2.4374,-2.4876,-2.5172,-1.65,-1.65,-1.65,-1.65,-1.65,-1.671,0.0,0.0,-1.8154,-1.8154,-1.919,-1.9277,-1.7554,-1.8916,-1.9005,-1.6703,-1.7049,-1.7137,-1.6538,-1.7061,-1.7651,-1.8229,-1.8234,-1.8459,-1.8997,-1.8456,0.0,-1.742,-1.7926,-1.8178,-1.8249,-1.7664,-1.7935,-1.892,-1.9038,-1.9766,-2.0969,-2.2168,-2.3032,-2.3595,-2.3595,-2.3595,-2.3595,0.0,-2.355,-2.3535,-2.3565,0.0,0.0,-2.2927,-2.2703,0.0,0.0,0.0,0.0,0.0,0.0,0.0,0.0,0.0,0.0,-1.8496,0.0,0.0,0.0,0.0,-1.784,0.0,0.0,0.0,0.0,0.0,-1.3864,-1.406,-1.3424,0.0,0.0,0.0,0.0,0.0,0.0,0.0,0.0,0.0,-1.544,-1.721,-1.7375,-1.7626,-1.8179,-1.8707,-1.9008,-1.9033,-2.01,-2.0691,-2.0691,-2.1744,-2.2255,-2.2297,-2.2819,-2.3083,-2.3083,-2.3095,-2.3108,-2.3133,-2.3728,-2.3653,-2.3145,-2.374,-2.364,-2.3108,-2.3108,-2.3108,-2.3246,-2.4374,-2.5146,-2.5649,-1.65,-1.65,-1.65,-1.65,-1.65,-1.6688,-1.7322,-1.7852,-1.8204,-1.8204,-1.8862,-1.8974,-1.8026,-1.9102,-1.9253,-1.7775,-1.7815,-1.7689,-1.7124,-1.7614,-1.7867,-1.7721,-1.8701,-1.9018,-1.852,-1.8639,-1.8632,-1.8468,-1.8292,-1.8563,-1.9239,-1.8349,-1.8314,-1.8973,-1.9002,-1.9729,-2.0942,-2.1715,-2.2634,-2.3573,-2.3179,-2.3246,-2.3595,0.0,-2.3595,-2.3595,-2.3595,-2.3894,0.0,-2.3505,-2.3295,-2.3214,-2.2763,-2.2041,-2.1322,-2.101,-2.0863,0.0,0.0,0.0,-1.9685,-1.8931,0.0,0.0,0.0,0.0,0.0,0.0,0.0,0.0,0.0,0.0,-1.5004,-1.5076,-1.4197,-1.3514,0.0,0.0,0.0,0.0,-1.3412,-1.3897,0.0,0.0,0.0,-1.7293,-1.7714,-1.8166,-1.8694,-1.9233,-1.9547,-1.9547,-2.0654,-2.1232,-2.1232,-2.2297,-2.2832,-2.2832,-2.3007,-2.3108,-2.3108,-2.3108,-2.3108,-2.3133,-2.3753,-2.3891,-2.3753,-2.4318,-2.4217,-2.3703,-2.3703,-2.3984,-2.4456,-2.4722,-2.4901,-2.5222,-1.65,-1.65,-1.65,-1.65,-1.6848,-1.7174,-1.7373,0.0,-1.8706,-1.8518,-1.8945,-1.907,-1.8531,0.0,-1.9371,0.0,-1.8356,-1.8267,-1.7714,-1.8191,0.0,-1.8323,-1.9257,-1.951,-1.8851,0.0,-1.9096,-1.8707,-1.8756,-1.9032,-1.951,-1.8819,-1.8669,-1.9007,-1.924,-1.9813,-2.0639,-2.138,-2.2179,-2.2891,-2.2506,-2.2725,0.0,0.0,-2.3421,-2.3595,0.0,-2.4022,-2.45,-2.3834,-2.3759,-2.388,-2.343,-2.2542,-2.1764,-2.2089,-2.1853,-2.1358,-2.0793,-2.0734,0.0,-1.9535,-1.9008,0.0,-1.784,0.0,-1.7752,0.0,0.0,0.0,0.0,0.0,-1.5736,-1.6175,-1.4868,-1.3732,0.0,-1.3387,0.0,-1.3665,-1.3765,-1.405,0.0,0.0,-1.6099,-1.729,-1.7873,-1.853,0.0,0.0,-1.9798,-1.9798,-2.0903,-2.1493,-2.1493,-2.2556,-2.3108,-2.3108,-2.3108,-2.3108,-2.3108,-2.3108,-2.3221,-2.3434,-2.3841,-2.4117,-2.4305,-2.4456,-2.4318,-2.3979,-2.3766,-2.3971,-2.4473,-2.5044,-2.5697,-2.6394,-1.65,-1.6525,-1.655,-1.6575,-1.7491,-1.8066,-1.7574,0.0,-1.961,-1.907,-1.9459,-1.961,-1.9058,-1.9497,-1.9397,-1.838,-1.8719,-1.8782,-1.8279,-1.8719,0.0,0.0,-1.985,-1.9838,-1.9951,0.0,0.0,-1.8242,-1.9258,-1.9497,-1.9045,-1.9045,-1.9045,-1.907,-1.9703,-2.0001,-2.0112,-2.1193,-2.17,-2.1752,-2.1687,-2.2095,-2.2735,-2.2661,-2.306,-2.3641,-2.3648,-2.4096,-2.459,-2.3894,-2.4081,-2.444,-2.3182,-2.3132,-2.3417,-2.2937,-2.3583,-2.407,-2.2366,-2.2268,-2.2247,-2.0386,0.0,0.0,0.0,0.0,-1.877,0.0,0.0,0.0,0.0,0.0,0.0,-1.722,-1.5441,-1.3726,-1.3119,-1.3716,-1.4064,-1.3686,-1.3834,-1.4185,-1.473,-1.5334,-1.6166,-1.7291,-1.7882,-1.8681,0.0,0.0,-1.9786,-1.9849,-2.0916,-2.1506,-2.1531,-2.2569,-2.3108,-2.3108,-2.3108,-2.3108,-2.3108,-2.3108,-2.3409,-2.3954,-2.4017,-2.4343,-2.475,-2.4318,-2.4104,-2.4017,-2.3409,-2.3213,-2.349,-2.5398,-2.7319,-2.9002,-1.65,-1.6861,-1.7287,-1.7702,-1.8355,-1.8744,0.0,0.0,0.0,0.0,-1.9459,-1.961,-1.9058,-1.9497,-1.9698,-1.9409,-1.9146,0.0,0.0,0.0,0.0,-1.9253,-1.9598,-1.9636,-1.9266,-1.922,-1.907,-1.8795,-1.907,-1.9334,-1.9597,-1.9597,-1.9597,-1.9597,-1.9763,-2.0139,-2.0609,-2.0913,-2.154,-2.2286,-2.1385,-2.1909,-2.3111,0.0,-2.2863,-2.4272,-2.4319,-2.5083,-2.5914,-2.4739,-2.4784,-2.5194,-2.4364,-2.3902,-2.3707,-2.3973,-2.387,-2.3595,-2.3236,-2.2791,-2.2334,-2.1968,-2.1169,-2.0402,0.0,0.0,0.0,0.0,0.0,0.0,0.0,0.0,0.0,-1.735,-1.6462,-1.5508,-1.4912,-1.54,-1.5764,-1.5669,-1.6096,-1.6236,-1.5845,-1.6502,-1.7395,-1.8474,-1.8334,0.0,0.0,0.0,0.0,-2.044,-2.1157,-2.1681,-2.2096,-2.2757,-2.3108,-2.3108,-2.3108,-2.3108,-2.3108,-2.3108,-2.3183,-2.3371,-2.4211,-2.4662,-2.4838,-2.5548,-2.5607,-2.5134,-2.4562,-2.4765,-2.5384,-2.5902,-2.7319,-2.9002,-1.65,-1.7174,-1.7915,-1.8468,0.0,0.0,-1.8719,-1.9309,0.0,-1.907,-1.9259,0.0,-1.9033,-1.9259,-1.9434,-1.9434,-1.9384,0.0,-1.9334,0.0,0.0,-1.9334,-1.9648,-1.956,-1.9008,-1.9008,0.0,-1.9008,-1.9008,-1.9271,-1.9798,-1.9798,-1.9798,-1.9798,-1.9798,-2.0003,-2.0397,-2.063,-2.1146,-2.173,-2.129,-2.1839,0.0,-2.222,-2.3192,-2.4941,-2.4975,-2.5497,-2.6002,-2.5274,-2.5269,-2.5428,-2.4758,-2.4514,-2.4562,-2.4858,-2.4614,-2.4217,-2.4048,-2.3578,-2.3074,-2.2594,-2.212,-2.1619,-2.1169,-2.1056,-2.0742,0.0,0.0,0.0,0.0,0.0,0.0,-1.739,-1.7195,-1.6785,-1.5992,-1.648,-1.6852,-1.6664,-1.7188,0.0,0.0,0.0,-1.7897,-1.8228,0.0,0.0,0.0,0.0,0.0,-2.0666,-2.1458,-2.2121,-2.2631,-2.2945,-2.3233,-2.3471,-2.3233,-2.3108,-2.3108,-2.3358,-2.3609,-2.3885,-2.4782,-2.531,-2.5561,-2.5971,-2.5921,-2.5548,-2.4988,-2.548,-2.6453,-2.6453,-2.7548,-2.9002,-1.6688,-1.7589,-1.8456,-1.9008,0.0,0.0,0.0,-1.9145,0.0,-1.897,0.0,-1.8895,-1.8895,-1.8958,-1.9033,-1.9096,-1.9547,-1.9798,-1.9798,-1.9798,-1.9798,-1.9798,-1.9798,-1.956,-1.9008,-1.9008,-1.9008,0.0,0.0,-1.9271,-1.9798,-1.9798,-1.9798,-1.9798,-1.9798,-1.9849,-1.9949,-2.0478,-2.0779,-2.0943,-2.1358,-2.189,-2.2476,-2.2398,-2.3621,-2.5348,-2.5348,-2.5466,-2.5636,-2.5593,-2.5556,-2.539,-2.4819,-2.502,-2.5506,-2.5489,-2.5375,-2.5135,-2.4613,-2.4321,-2.3884,-2.2827,-2.2833,-2.2857,-2.192,-2.1707,-2.138,-2.0263,-1.966,-1.9421,0.0,0.0,0.0,-1.7533,0.0,0.0,0.0,-1.7581,-1.7877,-1.7535,-1.7949,0.0,0.0,0.0,0.0,0.0,0.0,0.0,0.0,0.0,0.0,-2.0779,-2.1707,-2.2498,-2.3095,0.0,-2.3434,-2.3879,-2.3421,-2.3221,-2.3233,-2.3766,-2.4255,-2.4713,-2.5335,-2.585,-2.6248,-2.585,-2.5661,-2.5561,-2.5184,-2.5703,-2.675,-2.681,-2.7675,-2.8844,-1.7727,-1.8406,-1.902,-1.9572,0.0,-1.9736,-1.9547,-1.9284,-1.8945,-1.8417,-1.8355,-1.8355,-1.8355,-1.8732,-1.9171,-1.9623,-1.9748,0.0,0.0,0.0,0.0,-1.9798,-1.9798,-1.956,-1.9008,-1.9008,-1.9008,0.0,0.0,0.0,0.0,-1.9798,-1.9798,-1.9798,-1.9798,-2.0075,-2.0541,-2.0654,0.0,-2.1995,-2.1631,-2.209,-2.2934,-2.2479,-2.3223,-2.452,-2.452,-2.5287,-2.6237,-2.5702,-2.5506,-2.5477,-2.5362,-2.5405,-2.5489,-2.5433,-2.4981,-2.4467,-2.4348,-2.3836,-2.3399,-2.3855,-2.3526,-2.3058,-2.2857,-2.2819,-2.2506,-2.143,-2.1129,-2.0803,-1.9962,0.0,0.0,0.0,0.0,0.0,0.0,0.0,-2.0143,-2.0044,-2.0151,-2.0055,0.0,0.0,0.0,0.0,0.0,0.0,0.0,0.0,0.0,0.0,-2.1531,0.0,0.0,0.0,-2.3665,-2.3258,-2.3665,-2.3841,-2.3853,-2.3954,-2.4054,-2.4192,-2.5172,-2.541,-2.5172,-2.6009,-2.6059,-2.5636,-2.6047,-2.6038,-2.5881,-2.6396,-2.7139,-2.8019,-1.8444,-1.882,-1.9171,-1.971,0.0,0.0,0.0,-1.9334,-1.9008,-1.9032,-1.8555,-1.8317,-1.8569,-1.8845,-1.9108,-1.9359,-1.9648,-1.9798,-1.9798,-1.9798,-1.9798,-1.9798,-2.0087,-1.9987,-1.9447,-1.9409,-1.9409,-1.9409,0.0,0.0,0.0,0.0,-1.9798,-1.9811,-2.0138,-2.0427,-2.0729,0.0,0.0,-2.2309,-2.2305,-2.2631,-2.307,-2.2807,-2.3359,-2.4292,-2.4292,-2.4766,-2.5384,-2.5432,-2.5706,-2.5942,-2.5574,-2.5969,-2.6429,-2.563,-2.5147,-2.4727,-2.401,-2.3476,-2.3122,-2.3244,-2.3179,-2.3108,-2.3108,-2.3108,-2.2869,-2.2083,-2.1681,-2.1142,-2.0012,-1.9798,0.0,0.0,0.0,0.0,0.0,0.0,-2.1018,-2.0729,-2.0691,-2.0465,0.0,0.0,0.0,0.0,0.0,0.0,0.0,0.0,0.0,0.0,0.0,0.0,0.0,0.0,0.0,-2.3985,-2.4293,-2.4117,-2.3547,-2.4443,-2.4519,-2.4079,-2.5481,-2.5737,-2.5285,-2.6147,-2.6336,-2.6109,-2.6386,-2.6323,-2.6109,-2.6386,-2.6557,-2.6782,-1.892,-1.9096,-1.9296,0.0,-1.9798,-1.9798,-1.9798,-1.9334,-1.9146,-1.9559,-1.8807,-1.8393,-1.8945,-1.9008,-1.9045,-1.9158,-1.9572,-1.9798,-1.9798,-1.9798,-1.9798,-1.9798,-2.0377,-2.0478,-1.9987,-2.01,-2.0112,0.0,0.0,0.0,0.0,0.0,0.0,0.0,0.0,0.0,0.0,0.0,-2.2385,-2.2493,-2.2932,-2.3108,-2.3108,-2.3108,-2.3484,-2.4031,-2.4031,-2.4147,-2.435,-2.4781,-2.5425,-2.5933,-2.5342,-2.5959,-2.6666,-2.5508,-2.5063,-2.4673,-2.3614,-2.3125,-2.2857,-2.2543,-2.2694,-2.2957,-2.3083,-2.3108,-2.292,-2.2243,-2.1594,-2.0828,-1.9823,-1.9924,0.0,0.0,0.0,0.0,0.0,0.0,-2.1358,-2.0918,-2.0767,-2.0465,-1.9861,0.0,0.0,0.0,0.0,0.0,0.0,0.0,0.0,0.0,0.0,-2.3409,-2.4424,0.0,-2.4494,0.0,-2.4933,-2.4424,-2.3509,-2.4958,-2.5008,-2.4092,-2.5783,-2.6235,-2.5812,-2.6298,-2.6499,-2.6499,-2.6499,-2.6499,-2.6499,-2.6499,-2.6299,-2.6225,0.0,0.0,0.0,0.0,0.0,0.0,-1.9798,-1.9334,-1.902,-1.907,-1.8556,-1.8393,-1.8945,-1.9008,-1.9196,-1.9685,-1.9773,-1.9798,-1.9798,-1.9798,-1.9798,-1.9798,-2.0377,-2.0666,-2.0616,-2.1106,-2.1091,0.0,0.0,-2.0566,0.0,0.0,0.0,0.0,0.0,0.0,0.0,-2.2272,-2.2569,-2.3032,-2.3083,-2.3108,-2.3108,-2.3108,-2.3138,-2.3215,-2.3215,-2.3679,-2.4205,-2.3531,-2.3855,-2.4481,-2.4436,-2.4509,-2.4595,-2.4452,-2.3884,-2.3292,-2.3152,-2.2753,-2.2498,-2.292,-2.2694,-2.2493,-2.2995,-2.3108,-2.2807,-2.1782,-2.0715,-1.9786,-1.9183,-2.0326,-2.1207,0.0,0.0,0.0,0.0,0.0,-2.1468,-2.1446,-2.0993,-2.0465,-1.9861,-1.9798,0.0,0.0,-2.0239,0.0,0.0,0.0,0.0,-2.1468,0.0,-2.2656,-2.3258,-2.472,-2.5234,-2.48,-2.5297,-2.5222,-2.465,-2.531,-2.5008,-2.4092,-2.5783,-2.6461,-2.6411,-2.6474,-2.6499,-2.6499,-2.6499,-2.6499,-2.6499,-2.6499,-2.6934,-2.7624,0.0,0.0,0.0,0.0,0.0,0.0,0.0,-1.9623,-1.9497,-1.9497,-1.9008,-1.887,-1.9409,-1.9497,-1.9572,-1.9786,-1.9798,-1.9798,-1.9798,-1.9798,-1.9798,-1.9798,-2.0704,-2.1031,-2.0704,-2.1531,-2.1707,0.0,0.0,0.0,0.0,0.0,0.0,0.0,0.0,-2.1895,-2.2305,-2.2631,-2.2895,-2.3108,-2.3108,-2.3108,-2.3108,-2.3108,-2.3108,-2.3108,-2.3108,-2.3305,-2.3543,-2.3215,-2.393,-2.4879,-2.4423,-2.4595,-2.4879,-2.4423,-2.406,-2.3631,-2.2841,-2.2694,-2.2744,-2.2644,-2.2694,-2.2832,-2.3058,-2.3108,-2.2982,-2.2543,-2.1845,-2.1142,-2.0602,-2.1041,-2.1631,0.0,0.0,0.0,0.0,0.0,0.0,-2.2071,0.0,-2.083,-1.9886,-1.9798,0.0,0.0,0.0,0.0,0.0,0.0,0.0,-2.1018,0.0,-2.3427,-2.3653,-2.4946,-2.5485,-2.5297,-2.585,-2.5661,-2.4813,-2.5724,-2.5921,-2.5531,-2.5845,-2.6172,-2.6499,-2.6499,-2.6499,-2.6499,-2.6499,-2.6499,-2.6499,-2.6499,-2.6679,-2.7162,-1.9798,0.0,-1.9798,0.0,-1.9798,-1.9798,-1.9798,-1.9798,-1.9798,-1.9798,-1.9459,-1.9371,-1.9761,-1.9798,-1.9798,-1.9798,-1.9798,-1.9798,-1.9798,-1.9798,-1.9874,-2.0049,-2.0978,0.0,-2.1182,-2.2071,-2.2255,-2.1732,-2.1732,0.0,0.0,0.0,0.0,0.0,-2.2133,-2.2397,-2.2556,-2.2945,-2.3108,-2.3108,-2.3108,-2.3108,-2.3108,-2.3108,-2.3108,-2.3108,-2.3108,-2.3108,-2.3108,-2.3108,-2.3813,-2.4639,-2.4105,-2.4308,-2.461,-2.4105,-2.3943,-2.3735,-2.2795,-2.2694,-2.2807,-2.2581,-2.2694,-2.2907,-2.307,-2.3108,-2.3058,-2.2895,-2.2447,-2.1945,-2.1556,-2.1619,-2.1983,-2.2732,0.0,0.0,0.0,-2.3853,0.0,-2.241,-2.1832,-2.1179,-2.0376,-2.03,0.0,0.0,0.0,0.0,0.0,0.0,0.0,0.0,0.0,0.0,0.0,-2.531,-2.585,-2.585,-2.6298,-2.5996,-2.5071,-2.5699,-2.6185,-2.6461,-2.585,-2.5925,-2.6499,-2.6499,-2.6499,-2.6499,-2.6499,-2.6658,-2.685,-2.685,-2.704,-2.7451,-1.9798,-1.9798,-1.9798,-1.9798,-1.9798,-1.9798,-1.9798,-1.9798,-1.9798,-1.9798,-1.9798,-1.9798,-1.9798,-1.9798,-1.9798,-1.9798,-1.9798,-1.9798,-1.9798,-1.9798,-2.0062,0.0,0.0,-2.1744,-2.2284,-2.2807,-2.2832,-2.2297,0.0,0.0,-2.2297,0.0,-2.2297,-2.2297,-2.2309,-2.2581,-2.3095,-2.3108,-2.3108,-2.3108,-2.3108,-2.3108,-2.3108,-2.3108,-2.3108,-2.3108,-2.3108,-2.3108,-2.3108,-2.3108,-2.3108,-2.3138,-2.3138,-2.3138,-2.3138,-2.3138,-2.3108,-2.3108,-2.3095,-2.2706,-2.2447,-2.2957,-2.2694,-2.2443,-2.2982,-2.3108,-2.2945,-2.2406,-2.1882,-2.1493,-2.1493,-2.1933,-2.2297,-2.2322,0.0,0.0,0.0,-2.2656,0.0,-2.2309,-2.1832,-2.1481,-2.1468,-2.1468,0.0,0.0,0.0,0.0,0.0,0.0,0.0,-2.3045,-2.369,0.0,-2.4775,-2.5933,-2.6487,-2.6487,-2.6499,-2.6185,-2.5573,-2.5071,-2.5435,-2.6461,-2.585,-2.5925,-2.6499,-2.6499,-2.6499,-2.6499,-2.6499,-2.7007,-2.7703,-2.7703,-2.8247,-2.9097,-1.9798,-1.9798,-1.9798,-1.9798,-1.9798,-1.9798,-1.9798,-1.9798,-1.9798,-1.9798,-1.9798,-1.9798,-1.9798,-1.9798,-1.9798,0.0,-1.9798,-1.9798,0.0,-1.9798,-2.0062,-2.0666,-2.1219,-2.1744,-2.2297,-2.2832,-2.302,-2.2844,0.0,0.0,0.0,-2.2456,-2.251,-2.2844,-2.2844,-2.3158,-2.3703,-2.3271,-2.3333,-2.369,-2.3258,-2.3108,-2.3108,-2.3108,-2.3108,-2.3108,-2.3108,-2.3108,-2.3108,-2.3108,-2.3108,-2.3108,-2.3108,-2.3108,-2.3108,-2.3108,-2.3108,-2.3108,-2.3108,-2.2982,-2.2882,-2.3058,-2.297,-2.2895,-2.3058,-2.3108,-2.3058,-2.2882,-2.2706,-2.2581,-2.2581,-2.2732,-2.297,-2.3401,-2.3602,0.0,0.0,0.0,-2.3314,-2.2895,-2.2355,-2.1895,-2.1559,-2.1493,0.0,0.0,0.0,0.0,0.0,0.0,0.0,0.0,-2.4205,0.0,-2.4788,-2.5946,-2.6499,-2.6499,-2.6499,-2.6399,-2.6223,-2.6047,-2.6172,-2.6487,-2.6298,-2.6323,-2.6499,-2.6499,-2.6816,-2.7317,-2.7317,-2.7835,-2.8588,-2.8588,-2.8748,-2.9129,-1.9798,-1.9798,-1.9798,-1.9798,-1.9798,-1.9798,-1.9798,-1.9798,-1.9798,-1.9798,-1.9798,-1.9798,-1.9798,-1.9798,0.0,-1.9798,-1.9798,-1.9798,-1.9798,-1.9798,-2.0062,-2.0666,-2.1219,-2.1744,-2.2297,-2.2832,0.0,-2.3108,-2.3108,-2.3108,-2.3095,-2.2757,-2.2895,-2.3434,-2.3434,-2.3665,-2.3991,-2.3797,-2.3822,-2.3966,-2.3602,-2.3434,-2.3409,-2.3195,-2.3108,-2.3108,-2.3108,-2.3108,-2.3108,-2.3108,-2.3108,-2.3108,-2.3108,-2.3108,-2.3108,-2.3108,-2.3108,-2.3108,-2.3108,-2.3108,-2.3108,-2.3108,-2.3108,-2.3108,-2.3108,-2.3108,-2.3108,-2.3108,-2.3108,-2.3108,-2.3108,-2.3108,-2.3221,-2.3584,-2.3665,-2.3791,-2.4111,0.0,-2.3615,0.0,0.0,0.0,0.0,-2.2234,-2.2196,0.0,0.0,0.0,0.0,0.0,0.0,-2.354,-2.4883,0.0,-2.5902,-2.6304,-2.6816,-2.7417,-2.7095,-2.6782,-2.6499,-2.6499,-2.6499,-2.6499,-2.6499,-2.6499,-2.6499,-2.6499,-2.6973,-2.7703,-2.7703,-2.8427,-2.9473,-2.9473,-2.9659,-3.0011,-1.9798,-1.9798,0.0,0.0,-1.9798,0.0,-1.9798,-1.9798,-1.9798,-1.9798,-1.9798,-1.9798,-1.9798,-1.9798,-1.9798,-1.9798,0.0,0.0,0.0,-1.9798,-2.0062,-2.0666,-2.1219,-2.1744,-2.2297,-2.2832,-2.3108,-2.3108,-2.3145,-2.3158,-2.3158,-2.3208,-2.3509,-2.4054,-2.4054,-2.4079,-2.4142,-2.4587,-2.4544,-2.4104,-2.4067,-2.4029,-2.3941,-2.3371,-2.3145,-2.3108,-2.3108,-2.3108,-2.3108,-2.3108,-2.3108,-2.3108,-2.3108,-2.3108,-2.3108,-2.3108,-2.3108,-2.3108,-2.3108,-2.3108,-2.3108,-2.3108,-2.3108,-2.3108,-2.3108,-2.3108,-2.3108,-2.3108,-2.3108,-2.3108,-2.3108,-2.3108,-2.3108,-2.3108,-2.3108,-2.3108,-2.3108,0.0,0.0,0.0,0.0,0.0,0.0,-2.3496,-2.3409,0.0,0.0,0.0,0.0,0.0,-2.4035,-2.5548,-2.5636,-2.6322,-2.7703,-2.6973,-2.7384,-2.8907,-2.8084,-2.7297,-2.6499,-2.6499,-2.6521,-2.6589,-2.6589,-2.6624,-2.6692,-2.6692,-2.7162,-2.7887,-2.7887,-2.8907,-3.0389,-3.0389,-3.0866,-3.1511,0.0,0.0,-1.9798,-1.9798,-1.9798,-1.9798,-1.9798,-1.9798,-1.9798,-1.9798,-1.9798,-1.9798,-1.9798,-1.9798,-1.9798,-1.9798,-1.9798,-1.9798,-1.9798,-1.9798,-2.0062,-2.0666,-2.1219,-2.1744,-2.2297,-2.2832,-2.3108,-2.3108,-2.3547,-2.3791,-2.3803,-2.4199,-2.4462,-2.4619,-2.4619,-2.4845,-2.5197,-2.4933,-2.4971,-2.5184,-2.4795,-2.4381,-2.3979,-2.3841,-2.3496,-2.3108,-2.3108,-2.3108,-2.3108,-2.3108,-2.3108,-2.3108,-2.3108,-2.3108,-2.3108,-2.3108,-2.3108,-2.3108,-2.3108,-2.3108,-2.3108,-2.3108,-2.3108,-2.3108,-2.3108,-2.3108,-2.3108,-2.3108,-2.3108,-2.3108,-2.3108,-2.3108,-2.3108,-2.3108,-2.3108,-2.3108,-2.3108,-2.3108,0.0,0.0,-2.3879,-2.4017,-2.4569,-2.4117,-2.4029,0.0,0.0,0.0,0.0,-2.5781,-2.5884,-2.5619,-2.6059,-2.6731,-2.7703,-2.7517,-2.7604,-2.8019,-2.7802,-2.7297,-2.6499,-2.6499,-2.685,-2.7417,-2.7417,-2.7802,-2.8395,-2.8395,-2.8907,-2.9659,-2.9659,-3.0299,-3.1219,-3.1219,-3.1351,-3.1511,-1.9798,-1.9798,-1.9798,-1.9798,-1.9798,-1.9798,-1.9798,-1.9501,-1.9423,-1.9747,-1.9501,-1.9423,-1.9747,-1.9798,-1.9798,-1.9798,-1.9798,-1.9798,-1.9798,-1.9798,-1.9936,-2.0289,-2.1081,-2.1631,-2.1933,-2.2694,-2.3108,-2.3108,-2.3715,-2.4004,-2.4004,-2.4537,-2.4913,-2.5172,-2.5172,-2.5335,-2.5598,-2.5573,-2.5586,-2.5573,-2.5285,-2.4858,-2.4343,-2.4092,-2.364,-2.3108,-2.3108,-2.3108,-2.3108,-2.3108,-2.3108,-2.3108,-2.3108,-2.3108,-2.3108,-2.3108,-2.3108,-2.3108,-2.3108,-2.3108,-2.3108,-2.3108,-2.3108,-2.3108,-2.3108,-2.3108,-2.3108,-2.3108,-2.3108,-2.3108,-2.3108,-2.3108,-2.3108,-2.3108,-2.3108,-2.3108,-2.3108,-2.3333,0.0,-2.3966,-2.4217,-2.4494,-2.4763,-2.4556,-2.4594,-2.5134,-2.4682,0.0,-2.6501,-2.6798,-2.6804,-2.6585,-2.7248,-2.8051,-2.8876,-2.9254,-2.9066,-2.8298,-2.8298,-2.8084,-2.7637,-2.7229,-2.7517,-2.8298,-2.8298,-2.8556,-2.9002,-2.9002,-2.9504,-3.0299,-3.0299,-3.0807,-3.1511,-3.1511,-3.1511,-3.1511,-1.9557,-1.9671,-1.9773,-1.9698,-1.9748,-1.9747,-1.9643,-1.9097,-1.8927,-1.9553,-1.9097,-1.8992,-1.9721,-1.9798,-1.9747,-1.9631,-1.9631,-1.9669,-1.9798,-1.9695,-1.9733,-1.9924,-2.0928,-2.1531,-2.1606,-2.2581,-2.3108,-2.3108,-2.3803,-2.4117,-2.4142,-2.477,-2.531,-2.5724,-2.5724,-2.5724,-2.5762,-2.6285,-2.621,-2.5724,-2.5724,-2.541,-2.4838,-2.433,-2.3766,-2.3221,-2.3133,-2.3108,-2.3108,-2.3108,-2.3108,-2.3108,-2.3108,-2.3108,-2.3108,-2.3108,-2.3108,-2.3108,-2.3108,-2.3108,-2.3108,-2.3108,-2.3108,-2.3108,-2.3108,-2.3108,-2.3108,-2.3108,-2.3108,-2.3108,-2.3108,-2.3005,-2.2944,-2.3065,-2.3017,-2.2944,-2.3065,0.0,-2.4029,-2.4117,-2.4607,-2.4938,-2.5059,-2.4963,-2.5159,-2.5686,-2.5365,-2.5871,-2.7617,-2.752,-2.7627,-2.8071,-2.8684,-2.9411,-3.0299,-3.1087,-3.0718,-2.9192,-2.9192,-2.9129,-2.8971,-2.8247,-2.8363,-2.9192,-2.9192,-2.9286,-2.938,-2.938,-2.9827,-3.0494,-3.0494,-3.0896,-3.1511,-3.1511,-3.157,-3.1645,-1.8401,-1.9052,-1.966,-1.9196,-1.951,-1.9579,-1.8965,-1.8768,-1.8741,-1.8859,-1.8768,-1.8992,-1.9721,-1.9798,-1.9553,-1.8939,-1.8874,-1.915,-1.9747,-1.9228,-1.9395,-2.0514,-2.1142,-2.1707,-2.2171,-2.2782,-2.3108,-2.3108,-2.4148,-2.4695,-2.4687,-2.577,-2.6285,-2.6361,-2.6361,-2.6361,-2.6361,-2.6461,-2.6449,-2.6361,-2.6361,-2.6021,-2.5423,-2.4895,-2.4356,-2.3803,-2.3283,-2.3108,-2.3108,-2.3108,-2.3108,-2.3108,-2.3108,-2.3108,-2.3108,-2.3108,-2.3108,-2.3108,-2.3108,-2.3108,-2.3108,-2.3108,-2.3108,-2.3108,-2.3108,-2.3108,-2.3108,-2.3108,-2.3108,-2.3108,-2.3108,-2.2537,-2.2322,-2.2975,-2.2537,-2.2322,-2.3005,0.0,-2.4167,-2.4612,-2.5159,-2.5674,-2.6197,-2.5762,-2.5711,-2.6323,-2.6504,-2.6908,-2.7664,-2.9,-2.982,-2.9875,-2.9317,-2.9411,-3.0299,-3.1087,-3.1029,-3.0103,-3.0103,-2.969,-2.9002,-2.8876,-2.9286,-3.0103,-3.0103,-3.0494,-3.1117,-3.1117,-3.119,-3.1307,-3.1307,-3.138,-3.1511,-3.1511,-3.1854,-3.2333,-1.8379,-1.873,-1.901,-1.8871,-1.8952,-1.8845,-1.8205,-1.777,-1.766,-1.807,-1.7759,-1.7961,-1.9097,-1.8847,-1.8635,-1.8688,-1.8201,-1.84,-1.9599,-1.9372,-1.9628,-2.0652,-2.1481,-2.2184,-2.2706,-2.297,-2.3108,-2.3108,-2.4236,-2.4788,-2.4813,-2.5984,-2.6499,-2.6499,-2.6499,-2.6499,-2.6499,-2.6499,-2.6499,-2.6499,-2.6499,-2.6147,-2.5573,-2.5335,-2.4908,-2.4368,-2.3803,-2.3572,-2.3552,-2.3208,-2.3108,-2.3158,-2.3471,-2.3358,-2.3158,-2.3471,-2.3346,-2.3108,-2.3108,-2.3108,-2.3108,-2.3108,-2.3108,-2.3108,-2.3108,-2.3108,-2.3108,-2.3108,-2.3108,-2.3108,-2.3108,-2.2445,-2.2156,-2.2975,-2.2658,0.0,0.0,-2.433,-2.4858,-2.4788,-2.5548,-2.6084,-2.6034,-2.6072,-2.6367,-2.7069,-2.7269,-2.7854,-2.9052,-2.9858,-3.0494,-3.0925,-3.0554,-3.0554,-3.094,-3.1307,-3.1307,-3.094,-3.0524,-3.0329,-3.0329,-2.9889,-3.0178,-3.097,-3.097,-3.1161,-3.1511,-3.1511,-3.1511,-3.1511,-3.1511,-3.1511,-3.1511,-3.1511,-3.1705,-3.2004,-1.7936,-1.8228,-1.8355,-1.8257,-1.8136,-1.7891,-1.7413,-1.6866,-1.674,-1.7428,-1.6913,-1.705,-1.8449,-1.8105,-1.7894,-1.8151,-1.7662,-1.7897,-1.9256,-1.9552,-2.0089,-2.1041,-2.1983,-2.2669,-2.3095,-2.3108,-2.3108,-2.3108,-2.4236,-2.4788,-2.4813,-2.5984,-2.6499,-2.6499,-2.6499,-2.6499,-2.6499,-2.6499,-2.6499,-2.6499,-2.6499,-2.6223,-2.5787,-2.5649,-2.5272,-2.4713,-2.4192,-2.3916,-2.3728,-2.3258,-2.3195,-2.3384,-2.3853,-2.369,-2.3396,-2.3866,-2.3559,-2.3108,-2.3108,-2.3108,-2.3108,-2.3108,-2.3108,-2.3108,-2.3108,-2.3108,-2.3108,-2.3108,-2.3108,-2.3108,-2.3108,-2.2445,-2.2156,-2.2975,0.0,0.0,0.0,-2.4707,-2.5237,-2.5268,-2.607,-2.6518,-2.6385,-2.6804,-2.7351,-2.7953,-2.8182,-2.8907,-3.0238,-3.0494,-3.0866,-3.1467,-3.1511,-3.1511,-3.1511,-3.1511,-3.1511,-3.1511,-3.0866,-3.0896,-3.1467,-3.0866,-3.0925,-3.1511,-3.1511,-3.1511,-3.1511,-3.1511,-3.1511,-3.1511,-3.1511,-3.1511,-3.1511,-3.1511,-3.16,-3.1824,-1.6146,-1.7261,-1.8078,-1.7108,-1.6978,-1.6922,-1.6624,-1.6539,-1.6678,-1.7166,-1.6812,-1.6953,-1.8186,-1.827,-1.7825,-1.674,-1.7317,-1.7984,-1.8543,-1.9384,-2.0561,-2.2097,-2.2732,-2.3058,-2.3108,-2.3108,-2.3108,-2.3108,-2.4236,-2.4788,-2.4813,-2.5984,-2.6499,-2.6499,-2.6499,-2.6499,-2.6499,-2.6499,-2.6499,-2.6499,-2.6499,-2.6461,-2.6373,-2.5799,-2.5272,-2.4713,-2.4192,-2.3653,-2.3158,-2.312,-2.3459,-2.3941,-2.3979,-2.3966,-2.3941,-2.3991,-2.3559,-2.3108,-2.3108,-2.3108,-2.3108,-2.3108,-2.3108,-2.3108,-2.3108,-2.3108,-2.3108,-2.3108,-2.3108,-2.3108,-2.3108,-2.2445,-2.2156,-2.2975,0.0,0.0,-2.3792,-2.4067,-2.4772,-2.6534,-2.6828,-2.7373,-2.8625,-2.8784,-2.8844,-2.8907,-2.9659,-3.0178,-3.0299,-3.0999,-3.1438,-3.1511,-3.1511,-3.1511,-3.1511,-3.1511,-3.1511,-3.1511,-3.1438,-3.1438,-3.1511,-3.1438,-3.1438,-3.1511,-3.1511,-3.1511,-3.1511,-3.1511,-3.1511,-3.1511,-3.1511,-3.1511,-3.1511,-3.1511,-3.1884,-3.2512,-1.6206,-1.6385,-1.6617,-1.6824,-1.6357,-1.595,-1.5835,-1.5806,-1.5995,-1.6447,-1.6116,-1.6369,-1.7837,-1.7369,-1.7036,-1.7269,-1.7449,-1.8071,-1.9302,-1.9961,-2.1063,-2.2722,-2.2995,-2.3108,-2.3108,-2.3108,-2.3108,-2.3108,-2.4236,-2.4788,-2.4813,-2.5984,-2.6499,-2.6499,-2.6499,-2.6499,-2.6499,-2.6499,-2.6499,-2.6499,-2.6499,-2.6499,-2.6461,-2.6248,-2.6047,-2.5762,-2.5197,-2.4845,-2.4607,-2.4261,-2.4104,-2.4117,-2.4782,-2.4531,-2.4067,-2.4406,-2.4324,-2.4148,-2.4148,-2.3634,-2.3108,-2.3108,-2.3108,-2.3195,-2.3559,-2.3358,-2.3308,-2.401,-2.3597,-2.3208,-2.3602,-2.2677,-2.2156,-2.2975,0.0,-2.2874,-2.4291,-2.4782,-2.5586,-2.7216,-2.7406,-2.7811,-2.888,-2.9002,-2.9223,-2.9766,-3.0103,-3.0524,-3.1029,-3.1322,-3.1511,-3.1511,-3.1511,-3.1511,-3.1511,-3.1511,-3.1511,-3.1511,-3.1914,-3.2108,-3.2123,-3.2557,-3.2497,-3.2108,-3.2108,-3.1884,-3.1511,-3.1511,-3.1511,-3.1511,-3.1511,-3.1511,-3.1511,-3.1511,-3.166,-3.1974,-1.6065,-1.5748,-1.5633,-1.6301,-1.6014,-1.5625,-1.5439,-1.5615,-1.5928,-1.6261,-1.6016,-1.6276,-1.7542,-1.6985,-1.6751,-1.7399,-1.7529,-1.8086,-1.9239,-2.0242,-2.1471,-2.3035,-2.3108,-2.3108,-2.3108,-2.3108,-2.3108,-2.3108,-2.4236,-2.4788,-2.4813,-2.5984,-2.6499,-2.6499,-2.6499,-2.6499,-2.6499,-2.6499,-2.6499,-2.6499,-2.6499,-2.6499,-2.6499,-2.6499,-2.6386,-2.6172,-2.5737,-2.5485,-2.5297,-2.4913,-2.4682,-2.4632,-2.536,-2.5084,-2.4569,-2.4958,-2.4913,-2.4825,-2.5021,-2.4349,-2.3597,-2.3421,-2.3246,-2.3258,-2.3866,-2.369,-2.3647,-2.46,-2.4036,-2.3547,-2.4155,-2.3164,-2.2555,-2.3479,-2.3348,-2.357,-2.4861,-2.5234,-2.6028,-2.7893,-2.7956,-2.8352,-2.9676,-2.9797,-3.0042,-3.0614,-3.0673,-3.0925,-3.1467,-3.1511,-3.1511,-3.1511,-3.1511,-3.1511,-3.1511,-3.1511,-3.1511,-3.1511,-3.2168,-3.2512,-3.2527,-3.2976,-3.2946,-3.2497,-3.2273,-3.1929,-3.1511,-3.1511,-3.1511,-3.1511,-3.1511,-3.1511,-3.1511,-3.1511,-3.1511,-3.16,-1.541,-1.541,-1.541,-1.542,-1.5898,-1.6084,-1.5508,-1.6141,-1.6697,-1.6707,-1.6697,-1.6863,-1.7344,-1.7383,-1.7207,-1.6746,-1.7486,-1.7992,-1.7997,-2.0018,-2.1765,-2.3053,-2.3108,-2.3108,-2.3108,-2.3108,-2.3108,-2.3078,-2.4224,-2.4788,-2.4813,-2.5971,-2.6487,-2.6499,-2.6499,-2.6499,-2.6499,-2.6499,-2.6499,-2.6499,-2.6499,-2.6499,-2.6499,-2.6499,-2.6135,-2.5598,-2.5598,-2.5272,-2.48,-2.48,-2.5172,-2.5598,-2.5598,-2.5598,-2.5598,-2.5598,-2.5234,-2.4913,-2.546,-2.5222,-2.4662,-2.4142,-2.3534,-2.3258,-2.3879,-2.4004,-2.4155,-2.4687,-2.4393,-2.4167,-2.472,-2.3885,-2.3484,-2.4612,-2.4356,-2.4381,-2.5448,-2.5159,-2.5878,-2.8675,-2.854,-2.9086,-3.1291,-3.1511,-3.1511,-3.1511,-3.1511,-3.1511,-3.1511,-3.1511,-3.1511,-3.1511,-3.1511,-3.1511,-3.1511,-3.1511,-3.1511,-3.1511,-3.2168,-3.2512,-3.2512,-3.2527,-3.2512,-3.2452,-3.1795,-3.1511,-3.1511,-3.1511,-3.1511,-3.1511,-3.1511,-3.1511,-3.1511,-3.1511,-3.1511,-3.16,-1.541,-1.541,-1.5537,-1.5957,-1.6114,-1.6271,-1.6541,-1.6658,-1.6814,-1.7148,-1.6892,-1.698,-1.7744,-1.7559,-1.7451,-1.7617,-1.7861,-1.8261,-1.8878,-2.0666,-2.1865,-2.2249,-2.2793,-2.3108,-2.3108,-2.3108,-2.2823,-2.2261,-2.3586,-2.4099,-2.3935,-2.5244,-2.6097,-2.6499,-2.6499,-2.6499,-2.6499,-2.6499,-2.6499,-2.6499,-2.6499,-2.6499,-2.6499,-2.6499,-2.6386,-2.6235,-2.6235,-2.6135,-2.5996,-2.5996,-2.5799,-2.5598,-2.5598,-2.5908,-2.6235,-2.6235,-2.6122,-2.6034,-2.6197,-2.5799,-2.5234,-2.4707,-2.4155,-2.3991,-2.4908,-2.4531,-2.4368,-2.5732,-2.5222,-2.4745,-2.5272,-2.4795,-2.4399,-2.4725,-2.4682,-2.4808,-2.5498,-2.6006,-2.6956,-2.8779,-2.9411,-3.0157,-3.1394,-3.1511,-3.1511,-3.1511,-3.1511,-3.1511,-3.1511,-3.1511,-3.1511,-3.1511,-3.1511,-3.1511,-3.1511,-3.1511,-3.1511,-3.1511,-3.2168,-3.2512,-3.2527,-3.2991,-3.2946,-3.2497,-3.2273,-3.1929,-3.1511,-3.1511,-3.1511,-3.1511,-3.1511,-3.1511,-3.1511,-3.1511,-3.1511,-3.1525,-1.5635,-1.5674,-1.584,-1.6367,-1.6523,-1.6701,-1.6902,-1.7096,-1.7275,-1.7373,-1.7305,-1.7399,-1.7949,-1.7783,-1.7734,-1.7988,-1.7852,-1.8181,-1.9222,-2.0113,-2.0988,-2.1865,-2.2032,-2.2433,-2.3078,-2.2793,-2.2537,-2.2384,-2.3455,-2.3903,-2.3729,-2.5004,-2.5787,-2.616,-2.6386,-2.6499,-2.6499,-2.6499,-2.6499,-2.6499,-2.6499,-2.6499,-2.6499,-2.6499,-2.6499,-2.6499,-2.6499,-2.6499,-2.6499,-2.6499,-2.626,-2.5971,-2.5971,-2.621,-2.6499,-2.6499,-2.6499,-2.6499,-2.6499,-2.6235,-2.5862,-2.5548,-2.4895,-2.4544,-2.5398,-2.5096,-2.4983,-2.6235,-2.5749,-2.5297,-2.5837,-2.5322,-2.4958,-2.5398,-2.5272,-2.5441,-2.6304,-2.6883,-2.7779,-2.9338,-2.9981,-3.0614,-3.1409,-3.1511,-3.1511,-3.1511,-3.1511,-3.1511,-3.1511,-3.1511,-3.1511,-3.1511,-3.1511,-3.1511,-3.1511,-3.1511,-3.1511,-3.1511,-3.2168,-3.2512,-3.2497,-3.2931,-3.2886,-3.2497,-3.2213,-3.1869,-3.1511,-3.1511,-3.1511,-3.1511,-3.1511,-3.1511,-3.1511,-3.1511,-3.1511,-3.154,-1.6065,-1.6153,-1.629,-1.6677,-1.7119,-1.7266,-1.6872,-1.7477,-1.7871,-1.749,-1.7773,-1.8008,-1.8008,-1.8008,-1.8008,-1.8008,-1.7723,-1.8041,-1.9112,-1.8932,-1.9679,-2.1698,-2.1005,-2.1385,-2.3078,-2.2322,-2.2261,-2.2975,-2.3684,-2.3985,-2.3998,-2.5076,-2.5624,-2.5699,-2.626,-2.6499,-2.6499,-2.6549,-2.6562,-2.6575,-2.6612,-2.6637,-2.6637,-2.6637,-2.6637,-2.6637,-2.6587,-2.6562,-2.6562,-2.6512,-2.6499,-2.6499,-2.6499,-2.6499,-2.6499,-2.6499,-2.6499,-2.6499,-2.6499,-2.6499,-2.6499,-2.6499,-2.5711,-2.5096,-2.5561,-2.5636,-2.5762,-2.6373,-2.6072,-2.5837,-2.6399,-2.5636,-2.5297,-2.6336,-2.6114,-2.6238,-2.7525,-2.7835,-2.8524,-3.0103,-3.0359,-3.0703,-3.1438,-3.1555,-3.1585,-3.1585,-3.1585,-3.1585,-3.1585,-3.154,-3.1511,-3.1511,-3.1511,-3.1511,-3.1511,-3.1511,-3.1511,-3.1511,-3.2108,-3.2392,-3.2392,-3.2392,-3.2392,-3.2392,-3.1765,-3.1511,-3.1511,-3.1511,-3.1511,-3.1511,-3.1511,-3.1511,-3.1511,-3.1511,-3.154,-3.169,-1.6494,-1.656,-1.6697,-1.7168,-1.7314,-1.7461,-1.7695,-1.7891,-1.7978,-1.7881,-1.7959,-1.8008,-1.8008,-1.8008,-1.8008,-1.8008,-1.8539,-1.8719,-1.8293,-1.9467,-2.0383,-2.0878,-2.0687,-2.1385,-2.3078,-2.2322,-2.1982,-2.2156,-2.3393,-2.3876,-2.3622,-2.4975,-2.5837,-2.6311,-2.6436,-2.6499,-2.6524,-2.6952,-2.714,-2.7178,-2.757,-2.7745,-2.7745,-2.7745,-2.7745,-2.7695,-2.7291,-2.714,-2.7065,-2.6637,-2.6499,-2.6499,-2.6499,-2.6499,-2.6499,-2.6499,-2.6499,-2.6499,-2.6499,-2.6499,-2.6499,-2.6499,-2.6311,-2.6172,-2.6285,-2.5925,-2.5762,-2.6373,-2.6399,-2.6348,-2.6474,-2.6298,-2.6223,-2.6461,-2.6925,-2.736,-2.7657,-2.8876,-2.9889,-3.0269,-3.0866,-3.1307,-3.1467,-3.1974,-3.2273,-3.2273,-3.2273,-3.2273,-3.2273,-3.1795,-3.1511,-3.1511,-3.1511,-3.1511,-3.1511,-3.1511,-3.1511,-3.1511,-3.1645,-3.172,-3.172,-3.172,-3.172,-3.1705,-3.157,-3.1511,-3.1511,-3.1511,-3.1511,-3.1511,-3.1511,-3.1511,-3.1511,-3.1511,-3.1824,-3.2437,-1.6953,-1.7041,-1.7178,-1.7607,-1.7686,-1.7754,-1.7978,-1.8008,-1.8008,-1.8008,-1.8008,-1.8008,-1.8008,-1.8008,-1.8008,-1.8008,-1.8428,-1.8496,-1.8042,-1.9233,-2.0171,-2.059,-2.0204,-2.0771,-2.2476,-2.149,-2.1585,-2.291,-2.3222,-2.3639,-2.4144,-2.5149,-2.5762,-2.6097,-2.6373,-2.6637,-2.6901,-2.719,-2.7431,-2.7708,-2.7996,-2.8109,-2.8109,-2.8109,-2.8109,-2.8059,-2.777,-2.7507,-2.7278,-2.6989,-2.6713,-2.6499,-2.6499,-2.6499,-2.6499,-2.6499,-2.6499,-2.6499,-2.6499,-2.6499,-2.6499,-2.6499,-2.6499,-2.6499,-2.6499,-2.626,-2.6135,-2.6436,-2.6499,-2.6499,-2.6499,-2.6499,-2.6499,-2.6499,-2.7196,-2.7855,-2.8279,-2.9473,-3.0565,-3.1262,-3.1708,-3.2093,-3.2407,-3.2781,-3.2976,-3.2976,-3.2976,-3.2976,-3.2976,-3.2333,-3.1974,-3.1974,-3.1675,-3.1511,-3.1511,-3.1511,-3.1511,-3.1511,-3.1824,-3.1809,-3.1511,-3.1824,-3.1795,-3.1511,-3.1511,-3.1511,-3.1511,-3.1511,-3.1511,-3.1511,-3.1511,-3.1511,-3.1511,-3.1511,-3.2123,-3.3125,-1.7402,-1.749,-1.7598,-1.7949,-1.8008,-1.8008,-1.8008,-1.8008,-1.8008,-1.8008,-1.8008,-1.8008,-1.8008,-1.8008,-1.8008,-1.8008,-1.8008,-1.8076,-1.8202,-1.9044,-1.9911,-2.0782,-2.0139,-2.043,-2.1877,-2.0599,-2.113,-2.3654,-2.316,-2.3583,-2.48,-2.5448,-2.5737,-2.5774,-2.6373,-2.6839,-2.719,-2.7444,-2.777,-2.8122,-2.831,-2.8398,-2.8398,-2.8398,-2.8398,-2.8386,-2.8285,-2.7833,-2.7304,-2.7168,-2.6876,-2.6499,-2.6499,-2.6499,-2.6499,-2.6499,-2.6499,-2.6499,-2.6499,-2.6499,-2.6512,-2.6612,-2.6562,-2.6512,-2.6612,-2.6562,-2.6499,-2.6499,-2.6499,-2.6499,-2.6499,-2.6499,-2.6499,-2.6499,-2.7284,-2.8208,-2.9045,-3.0045,-3.1172,-3.2497,-3.2677,-3.2901,-3.344,-3.3589,-3.3664,-3.3664,-3.3664,-3.3664,-3.3664,-3.3036,-3.2632,-3.2512,-3.1959,-3.1615,-3.1511,-3.1615,-3.1615,-3.1511,-3.2288,-3.2243,-3.1525,-3.2183,-3.2123,-3.1511,-3.1511,-3.1511,-3.1511,-3.1511,-3.1511,-3.1511,-3.1511,-3.1511,-3.1511,-3.163,-3.2437,-3.3589,-1.7842,-1.793,-1.7939,-1.7998,-1.8008,-1.8008,-1.8008,-1.8008,-1.8008,-1.8008,-1.8008,-1.8008,-1.8008,-1.8008,-1.8008,-1.8008,-1.8008,-1.8337,-1.9077,-1.9944,-2.0814,-2.169,-2.1616,-2.1659,-2.1877,-2.0599,-2.0643,-2.2171,-2.3385,-2.4277,-2.4813,-2.5862,-2.6373,-2.6399,-2.6964,-2.6977,-2.67,-2.8097,-2.8473,-2.8197,-2.9164,-2.9566,-2.9566,-2.9566,-2.9566,-2.9503,-2.9001,-2.816,-2.7241,-2.6763,-2.6549,-2.6499,-2.6499,-2.6499,-2.6499,-2.6499,-2.6499,-2.6499,-2.6499,-2.6499,-2.6612,-2.709,-2.6851,-2.6612,-2.7102,-2.6839,-2.6499,-2.6499,-2.6499,-2.6499,-2.6499,-2.6499,-2.6499,-2.6499,-2.7802,-2.9054,-2.9771,-3.1199,-3.2497,-3.3275,-3.3365,-3.3395,-3.3484,-3.4008,-3.4369,-3.4369,-3.4369,-3.4369,-3.4369,-3.3724,-3.3095,-3.2527,-3.2392,-3.2079,-3.1511,-3.2064,-3.2064,-3.1525,-3.2781,-3.2721,-3.1525,-3.2183,-3.2123,-3.1511,-3.1511,-3.1511,-3.1511,-3.1511,-3.1511,-3.1511,-3.1511,-3.1511,-3.157,-3.2138,-3.2856,-3.3589,-1.7978,-1.8008,-1.8008,-1.8008,-1.8008,-1.8008,-1.8008,-1.8008,-1.8008,-1.8008,-1.8008,-1.8008,-1.8008,-1.8008,-1.8008,-1.8008,-1.8462,-1.8877,-1.9266,-2.0558,-2.1491,-2.1877,-2.1428,-2.1396,-2.1877,-2.0366,-2.0482,-2.2349,-2.3117,-2.4255,-2.5749,-2.6273,-2.6499,-2.6499,-2.6751,-2.7065,-2.7431,-2.816,-2.8687,-2.9089,-2.9591,-2.9792,-2.9792,-2.9792,-2.9792,-2.9767,-2.9503,-2.8888,-2.8109,-2.7557,-2.7168,-2.6901,-2.6587,-2.6713,-2.6952,-2.6952,-2.7165,-2.7381,-2.7381,-2.7381,-2.7444,-2.7682,-2.7318,-2.7014,-2.7266,-2.7128,-2.6864,-2.6562,-2.6499,-2.6499,-2.6499,-2.6499,-2.6658,-2.7095,-2.8516,-2.9821,-3.0552,-3.2052,-3.3305,-3.3994,-3.4382,-3.4622,-3.4622,-3.4876,-3.5055,-3.5055,-3.5055,-3.5055,-3.5055,-3.4068,-3.3529,-3.3604,-3.2901,-3.2348,-3.2049,-3.2736,-3.2512,-3.1525,-3.2871,-3.2811,-3.1525,-3.2183,-3.2123,-3.1511,-3.1511,-3.1511,-3.1511,-3.1511,-3.1511,-3.1511,-3.1511,-3.1511,-3.163,-3.2677,-3.3245,-3.3649]},{"header":{"parameterUnit":"m.s-1","parameterCategory":1,"la1":30.6,"la2":28.766,"lo1":-90.7593,"lo2":-88.6598,"dy":0.0162,"dx":0.0183,"nx":116,"ny":114,"refTime":"2024-03-01T06:00:00:Z","depth":0,"parameterNumber":3,"parameterNumberName":"V-component_of_WINDS"},"data":[0.0,0.0,0.0,0.0,0.0,0.0,0.0,0.0,0.0,0.0,0.0,0.0,0.0,0.0,0.0,0.0,0.0,0.0,0.0,0.0,0.0,0.0,0.0,0.0,0.0,0.0,0.0,0.0,0.0,0.0,0.0,0.0,0.0,0.0,0.0,0.0,0.0,0.0,0.0,0.0,0.0,0.0,0.0,0.0,0.0,0.0,0.0,0.0,0.0,0.0,0.0,0.0,0.0,0.0,0.0,0.0,0.0,0.0,0.0,0.0,0.0,0.0,0.0,0.0,0.0,0.0,0.0,0.0,0.0,0.0,0.0,0.0,0.0,0.0,0.0,0.0,0.0,0.0,0.0,0.0,0.0,0.0,0.0,0.0,0.0,0.0,0.0,0.0,0.0,0.0,0.0,0.0,0.0,0.0,0.0,0.0,0.0,0.0,0.0,0.0,0.0,0.0,0.0,0.0,0.0,0.0,0.0,0.0,0.0,0.0,0.0,0.0,0.0,0.0,0.0,0.0,0.0,0.0,0.0,0.0,0.0,0.0,0.0,0.0,0.0,0.0,0.0,0.0,0.0,0.0,0.0,0.0,0.0,0.0,0.0,0.0,0.0,0.0,0.0,0.0,0.0,0.0,0.0,0.0,0.0,0.0,0.0,0.0,0.0,0.0,0.0,0.0,0.0,0.0,0.0,0.0,0.0,0.0,0.0,0.0,0.0,0.0,0.0,0.0,0.0,0.0,0.0,0.0,0.0,0.0,0.0,0.0,0.0,0.0,0.0,0.0,0.0,0.0,0.0,0.0,0.0,0.0,0.0,0.0,0.0,0.0,0.0,0.0,0.0,0.0,0.0,0.0,0.0,0.0,0.0,0.0,0.0,0.0,0.0,0.0,0.0,0.0,0.0,0.0,0.0,0.0,0.0,0.0,0.0,0.0,0.0,0.0,0.0,0.0,0.0,0.0,0.0,0.0,0.0,0.0,0.0,0.0,0.0,0.0,0.0,0.0,0.0,0.0,0.0,0.0,0.0,0.0,0.0,0.0,0.0,0.0,0.0,0.0,0.0,0.0,0.0,0.0,0.0,0.0,0.0,0.0,0.0,0.0,0.0,0.0,0.0,0.0,0.0,0.0,0.0,0.0,0.0,0.0,0.0,0.0,0.0,0.0,0.0,0.0,0.0,0.0,0.0,0.0,0.0,0.0,0.0,0.0,0.0,0.0,0.0,0.0,0.0,0.0,0.0,0.0,0.0,0.0,0.0,0.0,0.0,0.0,0.0,0.0,0.0,0.0,0.0,0.0,0.0,0.0,0.0,0.0,0.0,0.0,0.0,0.0,0.0,0.0,0.0,0.0,0.0,0.0,0.0,0.0,0.0,0.0,0.0,0.0,0.0,0.0,0.0,0.0,0.0,0.0,0.0,0.0,0.0,0.0,0.0,0.0,0.0,0.0,0.0,0.0,0.0,0.0,0.0,0.0,0.0,0.0,0.0,0.0,0.0,0.0,0.0,0.0,0.0,0.0,0.0,0.0,0.0,0.0,0.0,0.0,0.0,0.0,0.0,0.0,0.0,0.0,0.0,0.0,0.0,0.0,0.0,0.0,0.0,0.0,0.0,0.0,0.0,0.0,0.0,0.0,0.0,0.0,0.0,0.0,0.0,0.0,0.0,0.0,0.0,0.0,0.0,0.0,0.0,0.0,0.0,0.0,0.0,0.0,0.0,0.0,0.0,0.0,0.0,0.0,0.0,0.0,0.0,0.0,0.0,0.0,0.0,0.0,0.0,0.0,0.0,0.0,0.0,0.0,0.0,0.0,0.0,0.0,0.0,0.0,0.0,0.0,0.0,0.0,0.0,0.0,0.0,0.0,0.0,0.0,0.0,0.0,0.0,0.0,0.0,0.0,0.0,0.0,0.0,0.0,0.0,0.0,0.0,0.0,0.0,0.0,0.0,0.0,0.0,0.0,0.0,0.0,0.0,0.0,0.0,0.0,0.0,0.0,0.0,0.0,0.0,0.0,0.0,0.0,0.0,0.0,0.0,0.0,0.0,0.0,0.0,0.0,0.0,0.0,0.0,0.0,0.0,0.0,0.0,0.0,0.0,0.0,0.0,0.0,0.0,0.0,0.0,0.0,0.0,0.0,0.0,0.0,0.0,0.0,0.0,0.0,0.0,0.0,0.0,0.0,0.0,0.0,0.0,0.0,0.0,0.0,0.0,0.0,0.0,0.0,0.0,0.0,0.0,0.0,0.0,0.0,0.0,0.0,0.0,0.0,0.0,0.0,0.0,0.0,0.0,0.0,0.0,0.0,0.0,0.0,0.0,0.0,0.0,0.0,0.0,0.0,0.0,0.0,0.0,0.0,0.0,0.0,0.0,0.0,0.0,0.0,0.0,0.0,0.0,0.0,0.0,0.0,0.0,0.0,0.0,0.0,0.0,0.0,0.0,0.0,0.0,0.0,0.0,0.0,0.0,0.0,0.0,0.0,0.0,0.0,0.0,0.0,0.0,0.0,0.0,0.0,0.0,0.0,0.0,0.0,0.0,0.0,0.0,0.0,0.0,0.0,0.0,0.0,0.0,0.0,0.0,0.0,0.0,0.0,0.0,0.0,0.0,0.0,0.0,0.0,0.0,0.0,0.0,0.0,0.0,0.0,0.0,0.0,0.0,0.0,0.0,0.0,0.0,0.0,0.0,0.0,0.0,0.0,0.0,0.0,0.0,0.0,0.0,0.0,0.0,0.0,0.0,0.0,0.0,0.0,0.0,0.0,0.0,0.0,0.0,0.0,0.0,0.0,0.0,0.0,0.0,0.0,0.0,0.0,0.0,0.0,0.0,0.0,0.0,0.0,0.0,0.0,0.0,0.0,0.0,0.0,0.0,0.0,0.0,0.0,0.0,0.0,0.0,0.0,0.0,0.0,0.0,0.0,0.0,0.0,0.0,0.0,0.0,0.0,0.0,0.0,0.0,0.0,0.0,0.0,0.0,0.0,0.0,0.0,0.0,0.0,0.0,0.0,0.0,0.0,0.0,0.0,0.0,0.0,0.0,0.0,0.0,0.0,0.0,0.0,0.0,0.0,0.0,0.0,0.0,0.0,0.0,0.0,0.0,0.0,0.0,0.0,0.0,0.0,0.0,0.0,0.0,0.0,0.0,0.0,0.0,0.0,0.0,0.0,0.0,0.0,0.0,0.0,0.0,0.0,0.0,0.0,0.0,0.0,0.0,0.0,0.0,0.0,0.0,0.0,0.0,0.0,0.0,0.0,0.0,0.0,0.0,0.0,0.0,0.0,0.0,0.0,0.0,0.0,0.0,0.0,0.0,0.0,0.0,0.0,0.0,0.0,0.0,0.0,0.0,0.0,0.0,0.0,0.0,0.0,0.0,0.0,0.0,0.0,0.0,0.0,0.0,0.0,0.0,0.0,0.0,0.0,0.0,0.0,0.0,0.0,0.0,0.0,0.0,0.0,0.0,0.0,0.0,0.0,0.0,0.0,0.0,0.0,0.0,0.0,0.0,0.0,0.0,0.0,0.0,0.0,0.0,0.0,0.0,0.0,0.0,0.0,0.0,0.0,0.0,0.0,0.0,0.0,0.0,0.0,0.0,0.0,0.0,0.0,0.0,0.0,0.0,0.0,0.0,0.0,0.0,0.0,0.0,0.0,0.0,0.0,0.0,0.0,0.0,0.0,0.0,0.0,0.0,0.0,0.0,0.0,0.0,0.0,0.0,0.0,0.0,0.0,0.0,0.0,0.0,0.0,0.0,0.0,0.0,0.0,0.0,0.0,0.0,0.0,0.0,0.0,0.0,0.0,0.0,0.0,0.0,0.0,0.0,0.0,0.0,0.0,0.0,0.0,0.0,0.0,0.0,0.0,0.0,0.0,0.0,0.0,0.0,0.0,0.0,0.0,0.0,0.0,0.0,0.0,0.0,0.0,0.0,0.0,0.0,0.0,0.0,0.0,0.0,0.0,0.0,0.0,0.0,0.0,0.0,0.0,0.0,0.0,0.0,0.0,0.0,0.0,0.0,0.0,0.0,0.0,0.0,0.0,0.0,0.0,0.0,0.0,0.0,0.0,0.0,0.0,0.0,0.0,0.0,0.0,0.0,0.0,0.0,0.0,0.0,0.0,0.0,0.0,0.0,0.0,0.0,0.0,0.0,0.0,0.0,0.0,0.0,0.0,0.0,0.0,0.0,0.0,0.0,0.0,0.0,0.0,0.0,0.0,0.0,0.0,0.0,0.0,0.0,0.0,0.0,0.0,0.0,0.0,0.0,0.0,0.0,0.0,0.0,0.0,0.0,0.0,0.0,0.0,0.0,0.0,0.0,0.0,0.0,0.0,0.0,0.0,0.0,0.0,0.0,0.0,0.0,0.0,0.0,0.0,0.0,0.0,0.0,0.0,0.0,0.0,0.0,0.0,0.0,0.0,0.0,0.0,0.0,0.0,0.0,0.0,0.0,0.0,0.0,0.0,0.0,0.0,0.0,0.0,0.0,0.0,0.0,0.0,0.0,0.0,0.0,0.0,0.0,0.0,0.0,0.0,0.0,0.0,0.0,0.0,0.0,0.0,0.0,0.0,0.0,0.0,0.0,0.0,0.0,0.0,0.0,0.0,0.0,0.0,0.0,0.0,0.0,0.0,0.0,0.0,0.0,0.0,0.0,0.0,0.0,0.0,0.0,0.0,0.0,0.0,0.0,0.0,0.0,0.0,0.0,0.0,0.0,0.0,0.0,0.0,0.0,0.0,0.0,0.0,0.0,0.0,0.0,0.0,0.0,0.0,0.0,0.0,0.0,0.0,0.0,0.0,0.0,0.0,0.0,0.0,0.0,0.0,0.0,0.0,0.0,0.0,0.0,0.0,0.0,0.0,0.0,0.0,0.0,0.0,0.0,0.0,0.0,0.0,0.0,0.0,0.0,0.0,0.0,0.0,0.0,0.0,0.0,0.0,0.0,0.0,0.0,0.0,0.0,0.0,0.0,0.0,0.0,0.0,0.0,0.0,0.0,0.0,0.0,0.0,0.0,0.0,0.0,0.0,0.0,0.0,0.0,0.0,0.0,0.0,0.0,0.0,0.0,0.0,0.0,0.0,0.0,0.0,0.0,0.0,0.0,0.0,0.0,0.0,0.0,0.0,0.0,0.0,0.0,0.0,0.0,0.0,0.0,0.0,0.0,0.0,0.0,0.0,0.0,0.0,0.0,0.0,0.0,0.0,0.0,0.0,0.0,0.0,0.0,0.0,0.0,0.0,0.0,0.0,0.0,0.0,0.0,0.0,0.0,0.0,0.0,0.0,0.0,0.0,0.0,0.0,0.0,0.0,0.0,0.0,0.0,0.0,0.0,0.0,0.0,0.0,0.0,0.0,0.0,0.0,0.0,0.0,0.0,0.0,0.0,0.0,0.0,0.0,0.0,0.0,0.0,0.0,0.0,0.0,0.0,0.0,0.0,0.0,0.0,0.0,0.0,0.0,0.0,0.0,0.0,0.0,0.0,0.0,0.0,0.0,0.0,0.0,0.0,0.0,0.0,0.0,0.0,0.0,0.0,0.0,0.0,0.0,0.0,0.0,0.0,0.0,0.0,0.0,0.0,0.0,0.0,0.0,0.0,0.0,0.0,0.0,0.0,0.0,0.0,0.0,0.0,0.0,0.0,0.0,0.0,0.0,0.0,0.0,0.0,0.0,0.0,0.0,0.0,0.0,0.0,0.0,0.0,0.0,0.0,0.0,0.0,0.0,0.0,0.0,0.0,0.0,0.0,0.0,0.0,0.0,0.0,0.0,0.0,0.0,0.0,0.0,0.0,0.0,0.0,0.0,0.0,0.0,0.0,0.0,0.0,0.0,0.0,0.0,0.0,0.0,0.0,0.0,0.0,0.0,0.0,0.0,0.0,0.0,0.0,0.0,0.0,0.0,0.0,0.0,0.0,0.0,0.0,0.0,0.0,0.0,0.0,0.0,0.0,0.0,0.0,0.0,0.0,0.0,0.0,0.0,0.0,0.0,0.0,0.0,0.0,0.0,0.0,0.0,0.0,0.0,0.0,0.0,0.0,0.0,0.0,0.0,0.0,0.0,0.0,0.0,0.0,0.0,0.0,0.0,0.0,0.0,1.3929,0.0,0.0,0.0,0.0,0.0,0.0,0.0,0.0,0.0,0.0,0.0,0.0,0.0,0.0,0.0,0.0,0.0,0.0,0.0,0.0,0.0,0.0,0.0,0.0,0.0,0.0,0.0,0.0,0.0,0.0,0.0,0.0,0.0,0.0,0.0,1.8106,1.8106,1.8106,1.8106,1.7847,1.7855,1.8166,1.8686,1.8926,1.8894,0.0,0.0,0.0,0.0,0.0,0.0,0.0,0.0,0.0,0.0,0.0,0.0,0.0,0.0,0.0,0.0,0.0,0.0,0.0,0.0,0.0,0.0,0.0,0.0,0.0,0.0,0.0,0.0,0.0,0.0,0.0,0.0,0.0,0.0,0.0,0.0,0.0,0.0,0.0,0.0,0.0,0.0,0.0,0.0,0.0,0.0,0.0,0.0,0.0,0.0,0.0,0.0,0.0,0.0,0.0,0.0,0.0,0.0,0.0,0.0,0.0,0.0,0.0,0.0,0.0,0.0,0.0,0.0,0.0,0.0,0.0,1.3967,0.0,0.0,0.0,0.0,0.0,0.0,0.0,0.0,0.0,0.0,0.0,0.0,0.0,0.0,0.0,0.0,0.0,0.0,0.0,0.0,0.0,0.0,0.0,1.838,1.8106,1.8106,1.8007,1.7967,0.0,0.0,0.0,0.0,0.0,1.7827,1.7827,1.7922,1.7936,1.7827,1.7678,1.7935,1.8662,1.9191,1.9463,1.9467,1.8889,0.0,0.0,0.0,0.0,0.0,0.0,0.0,0.0,0.0,0.0,0.0,0.0,0.0,0.0,0.0,0.0,0.0,0.0,0.0,0.0,0.0,0.0,0.0,0.0,0.0,0.0,0.0,0.0,0.0,0.0,0.0,0.0,0.0,0.0,0.0,0.0,0.0,0.0,0.0,0.0,0.0,0.0,0.0,0.0,0.0,0.0,0.0,0.0,0.0,0.0,0.0,0.0,0.0,0.0,0.0,0.0,0.0,0.0,0.0,0.0,0.0,0.0,0.0,1.65,1.65,1.65,1.64,1.612,1.5635,1.4607,1.424,1.44,1.4801,0.0,0.0,0.0,0.0,0.0,0.0,0.0,0.0,0.0,0.0,0.0,0.0,0.0,0.0,0.0,0.0,0.0,0.0,0.0,0.0,0.0,1.8145,1.8106,1.8106,1.7666,1.7415,1.7415,0.0,1.671,1.671,1.671,1.671,1.671,1.7219,1.7253,1.671,1.8095,1.9308,2.0369,2.0925,2.1392,2.1741,1.8885,1.7854,1.8251,0.0,0.0,0.0,0.0,0.0,0.0,0.0,0.0,0.0,0.0,0.0,0.0,0.0,0.0,0.0,0.0,0.0,0.0,0.0,0.0,0.0,0.0,0.0,0.0,0.0,0.0,0.0,0.0,0.0,0.0,0.0,0.0,0.0,0.0,0.0,0.0,0.0,0.0,0.0,0.0,0.0,1.5806,1.5806,0.0,0.0,0.0,0.0,0.0,0.0,0.0,0.0,0.0,0.0,0.0,0.0,0.0,1.6423,1.65,1.6423,1.6423,1.65,1.65,1.65,1.6475,1.6019,1.5768,1.5668,1.5056,0.0,1.548,1.5549,0.0,0.0,0.0,0.0,0.0,0.0,0.0,0.0,0.0,0.0,0.0,0.0,0.0,0.0,0.0,0.0,0.0,0.0,0.0,0.0,0.0,1.7948,1.8031,1.7725,1.8639,1.8669,1.7436,1.769,1.7478,1.6538,1.65,1.65,1.65,1.6773,1.7237,1.7904,1.9885,2.1252,2.2071,2.2949,2.3326,2.3188,2.1405,2.0049,1.907,1.853,0.0,0.0,0.0,0.0,0.0,0.0,0.0,0.0,0.0,0.0,0.0,0.0,0.0,0.0,0.0,0.0,0.0,0.0,0.0,0.0,0.0,0.0,0.0,0.0,0.0,0.0,0.0,0.0,0.0,0.0,0.0,0.0,0.0,0.0,0.0,0.0,0.0,0.0,0.0,1.5894,1.6158,1.6158,1.635,1.65,0.0,0.0,0.0,0.0,0.0,0.0,0.0,0.0,0.0,1.65,1.65,1.65,1.65,1.65,1.65,1.65,1.65,1.65,1.6488,1.6249,1.6158,1.6145,1.5906,1.5932,1.6132,1.5819,1.5831,1.6082,0.0,0.0,0.0,0.0,1.571,1.5263,0.0,0.0,0.0,0.0,0.0,0.0,0.0,0.0,0.0,0.0,0.0,0.0,1.7644,1.8272,1.8618,1.8643,1.9774,1.9837,1.8341,1.8329,1.7867,1.6785,1.6575,1.6563,1.6735,1.7287,1.8468,2.0274,2.2209,2.3514,2.4186,2.5164,2.5448,2.5021,2.4305,2.2719,2.0589,1.961,1.8481,1.7325,0.0,0.0,0.0,0.0,0.0,0.0,0.0,0.0,0.0,0.0,0.0,0.0,0.0,0.0,0.0,0.0,0.0,0.0,0.0,0.0,0.0,0.0,0.0,0.0,0.0,0.0,0.0,0.0,0.0,0.0,0.0,0.0,0.0,0.0,0.0,0.0,0.0,1.5948,1.6337,1.6475,1.65,1.655,0.0,0.0,0.0,0.0,0.0,0.0,1.65,1.65,1.65,1.65,1.65,1.65,1.65,1.65,1.65,1.65,1.65,1.65,1.65,1.65,1.65,1.65,1.65,1.65,1.6463,1.607,1.5906,1.5944,1.6337,1.6238,1.5886,1.6324,1.6216,1.5826,0.0,0.0,0.0,0.0,0.0,0.0,0.0,0.0,0.0,0.0,0.0,1.7124,1.8743,1.9384,2.0351,2.1933,2.0702,2.0024,2.049,1.8078,1.6848,1.7335,1.681,1.6773,1.7348,1.9409,2.1571,2.3753,2.4883,2.5988,2.7092,2.767,2.7934,2.7858,2.6813,2.5059,2.2794,2.065,1.971,1.9497,1.7976,0.0,0.0,0.0,0.0,0.0,0.0,0.0,0.0,0.0,0.0,0.0,0.0,0.0,0.0,0.0,0.0,0.0,0.0,0.0,0.0,0.0,0.0,0.0,0.0,0.0,0.0,0.0,0.0,0.0,0.0,0.0,0.0,0.0,0.0,0.0,0.0,0.0,0.0,1.6437,1.65,0.0,0.0,0.0,0.0,1.65,1.65,1.65,1.65,1.65,1.65,1.65,1.65,1.65,1.65,1.65,1.65,1.65,1.65,1.65,1.65,1.65,1.65,1.65,1.65,1.65,1.65,1.6463,1.645,1.645,1.6488,1.6466,1.6457,1.65,1.6466,1.6466,0.0,0.0,0.0,0.0,0.0,0.0,0.0,0.0,1.65,1.65,1.744,1.8469,1.9396,2.1305,2.2749,2.3339,2.3175,2.251,2.1307,1.9585,1.8417,1.794,1.7375,1.7652,1.8907,2.0765,2.2648,2.4519,2.6327,2.7595,2.8348,2.8925,2.9189,2.9164,2.8398,2.7406,2.6079,2.2824,2.079,1.9698,1.8417,1.7903,0.0,0.0,0.0,0.0,0.0,0.0,0.0,0.0,0.0,0.0,0.0,0.0,0.0,0.0,0.0,0.0,0.0,0.0,0.0,0.0,0.0,0.0,0.0,0.0,0.0,0.0,0.0,0.0,0.0,0.0,0.0,0.0,0.0,0.0,0.0,0.0,0.0,1.6475,1.65,0.0,1.681,1.6635,1.65,1.65,1.6861,1.7074,1.7074,1.7074,1.7237,1.7589,1.7262,1.7237,1.7601,1.725,1.7074,1.7074,1.6697,1.65,1.65,1.65,1.65,1.65,1.65,1.65,1.65,1.65,1.65,1.65,1.65,1.65,1.65,1.65,1.65,1.65,0.0,0.0,0.0,0.0,0.0,0.0,0.0,0.0,1.65,1.65,1.8118,1.961,2.0552,2.315,2.5059,2.5611,2.4938,2.3916,2.2435,2.0238,1.8668,1.7953,1.8103,1.897,2.0614,2.2661,2.4443,2.5891,2.777,2.8863,2.9189,2.9616,2.9792,2.9767,2.9189,2.8687,2.8197,2.5234,2.2912,2.1066,1.9409,1.897,1.9145,0.0,0.0,0.0,0.0,0.0,0.0,0.0,0.0,0.0,0.0,0.0,0.0,0.0,0.0,0.0,0.0,0.0,0.0,0.0,0.0,0.0,0.0,0.0,0.0,0.0,0.0,0.0,0.0,0.0,0.0,0.0,0.0,0.0,0.0,1.6923,1.6873,1.7039,1.7064,1.714,1.7328,1.7177,1.7064,1.7064,1.7438,1.7664,1.7664,1.7664,1.7827,1.8191,1.7664,1.7674,1.8191,1.7664,1.741,1.7398,1.6986,1.671,1.65,1.65,1.65,1.65,1.65,1.65,1.65,1.65,1.65,1.65,1.65,1.65,1.65,1.65,1.65,1.65,0.0,0.0,0.0,0.0,0.0,0.0,0.0,1.65,1.65,1.65,1.848,2.0501,2.2159,2.4877,2.718,2.875,2.5912,2.3991,2.3966,1.9862,1.7423,1.7473,1.902,2.0677,2.2385,2.5116,2.7065,2.8134,2.9252,2.9792,2.9792,2.9792,2.9792,2.9767,2.9202,2.8988,2.8913,2.7832,2.6168,2.3935,2.1066,2.0603,2.1335,0.0,0.0,0.0,0.0,0.0,0.0,0.0,0.0,0.0,0.0,0.0,0.0,0.0,0.0,0.0,0.0,0.0,0.0,0.0,0.0,0.0,0.0,0.0,0.0,0.0,0.0,0.0,0.0,0.0,0.0,0.0,0.0,0.0,1.6647,1.7049,1.7624,1.8141,1.8204,1.8393,1.892,1.8494,1.8204,1.8204,1.8229,1.8229,1.8229,1.8229,1.8242,1.8254,1.7714,1.7725,1.8242,1.7714,1.7461,1.7461,1.7436,1.7112,1.655,1.6538,1.6538,1.655,1.6513,1.65,1.6525,1.65,1.65,1.65,1.65,1.65,1.65,1.65,1.65,1.65,0.0,0.0,0.0,0.0,0.0,0.0,1.65,1.65,1.65,1.65,1.9472,2.1945,2.2782,2.6079,2.8436,2.885,2.5912,2.3816,2.3371,1.961,1.7926,1.9083,2.0727,2.2585,2.4644,2.6251,2.7595,2.8662,2.9428,2.9792,2.9792,2.9792,2.9792,2.9818,3.0352,3.0548,3.0533,2.9842,2.9213,2.8317,2.4416,2.2859,2.2669,0.0,0.0,0.0,0.0,0.0,0.0,0.0,0.0,0.0,0.0,0.0,0.0,0.0,0.0,0.0,0.0,0.0,0.0,0.0,0.0,0.0,0.0,0.0,0.0,0.0,0.0,0.0,0.0,0.0,0.0,0.0,2.0039,1.9411,1.7941,1.7877,1.8028,1.8191,1.8204,1.8267,1.8417,1.8292,1.8204,1.8204,1.8556,1.8782,1.8782,1.8782,1.8958,1.9346,1.8844,1.8832,1.9359,1.8844,1.8556,1.8568,1.8179,1.789,1.7727,1.7325,1.7363,1.7702,1.6851,1.676,1.7112,1.6685,1.65,1.65,1.65,1.65,1.65,1.65,1.65,1.65,0.0,0.0,0.0,0.0,0.0,0.0,1.65,1.65,1.65,1.65,1.9899,2.2406,2.2732,2.605,2.8047,2.757,2.4933,2.2849,2.1779,1.9434,1.8907,2.0778,2.246,2.4293,2.6264,2.7394,2.8411,2.9289,2.9628,2.9792,2.9792,2.9792,2.9792,2.9843,3.1056,3.1638,3.1662,3.2015,3.2158,3.1905,2.8904,2.6984,2.5717,2.3501,2.2895,2.3008,2.1559,2.1419,2.1616,1.9615,0.0,0.0,0.0,0.0,0.0,0.0,0.0,0.0,0.0,0.0,0.0,0.0,0.0,0.0,0.0,0.0,0.0,0.0,0.0,0.0,0.0,0.0,0.0,0.0,2.113,2.093,1.985,1.9728,1.9414,1.863,1.9158,1.9397,1.892,1.9095,1.9258,1.9258,1.9309,1.9459,1.9698,1.9459,1.9497,1.9798,1.9271,1.9259,1.9798,1.9259,1.9008,1.9008,1.8682,1.843,1.8191,1.7877,1.7903,1.8154,1.7262,1.7074,1.7373,1.7024,1.6886,0.0,0.0,0.0,0.0,0.0,1.7074,1.6886,0.0,0.0,0.0,0.0,0.0,0.0,1.65,1.65,1.65,1.65,1.9773,2.2096,2.2033,2.4958,2.6502,2.5498,2.3401,2.1468,1.9899,1.9459,2.0262,2.2498,2.4205,2.5837,2.7431,2.8499,2.9277,2.9792,2.9792,2.9792,2.9792,2.9792,2.9829,2.9943,3.1485,3.2269,3.2539,3.3947,3.4631,3.4659,3.3465,3.1752,2.9587,2.693,2.6695,2.7522,2.589,2.4205,2.2636,2.1895,0.0,0.0,0.0,0.0,0.0,0.0,0.0,0.0,0.0,0.0,0.0,0.0,0.0,0.0,0.0,0.0,0.0,0.0,0.0,0.0,0.0,0.0,0.0,0.0,2.1816,2.2138,2.2013,2.2046,2.138,1.951,2.0602,2.1091,2.0087,2.0478,2.0779,2.0779,2.0275,2.0225,2.0754,0.0,0.0,0.0,0.0,1.9384,1.9798,1.9321,1.9096,1.9096,1.9096,1.8832,1.838,1.8329,1.8329,1.8355,1.7762,1.7513,1.7586,1.7524,1.7498,1.7448,1.6911,1.7024,1.7561,1.8028,1.7852,1.741,0.0,0.0,0.0,0.0,0.0,0.0,1.65,1.65,1.65,1.65,1.912,2.083,2.0338,2.2887,2.4544,2.433,2.23,2.0679,1.9849,2.0564,2.2008,2.4211,2.5925,2.7369,2.8549,2.9277,2.9679,2.9792,2.9792,2.9792,2.9792,2.9792,3.003,3.0497,3.1564,3.2747,3.3974,3.4323,3.4938,3.5632,3.4626,3.3521,3.2183,2.9998,2.9198,2.903,2.764,2.757,2.7792,2.5618,2.5143,2.512,2.3334,2.2359,0.0,0.0,0.0,0.0,0.0,0.0,0.0,0.0,0.0,0.0,0.0,0.0,0.0,0.0,0.0,0.0,0.0,0.0,0.0,2.3725,2.396,2.3809,2.3319,2.3567,2.3132,2.1251,2.1292,2.1405,2.1179,2.1295,2.1358,2.1358,2.123,2.1204,2.1358,2.1217,2.0953,2.0541,2.0427,2.0201,1.9798,1.9698,1.966,1.966,0.0,0.0,1.9484,1.9033,1.907,1.9447,1.8468,1.8292,1.8657,1.8229,1.8053,1.8028,1.7928,1.794,1.8053,1.8166,1.7852,1.741,0.0,0.0,0.0,0.0,0.0,0.0,1.6145,1.6333,1.65,1.65,1.8468,1.9736,1.9421,2.1154,2.2108,2.1556,1.9987,1.951,2.0577,2.1694,2.3552,2.6339,2.7519,2.8499,2.934,2.9641,2.9792,2.9792,3.0068,3.0068,2.9804,3.0344,3.0595,3.0673,3.2774,3.414,3.4976,3.6351,3.7208,3.7621,3.6838,3.6212,3.5512,3.3364,3.2547,3.2414,3.1464,3.0453,2.9406,2.8113,2.7038,2.5948,2.4593,2.3746,2.3105,0.0,0.0,0.0,0.0,0.0,0.0,0.0,0.0,0.0,0.0,0.0,0.0,0.0,0.0,2.193,2.2534,0.0,2.4231,2.4508,2.5106,2.5171,2.4109,2.4473,2.4013,2.1787,2.197,2.2096,2.1543,2.1732,2.1895,2.1895,2.1644,2.1606,2.1882,2.1408,2.0981,2.0704,2.0415,2.0087,1.9798,1.9798,1.9798,1.9798,2.01,2.0264,2.0264,2.025,2.025,2.0188,1.9359,1.8983,1.8983,1.8707,1.8769,1.9007,1.9007,1.8844,1.8619,1.8907,1.8668,1.8204,0.0,0.0,0.0,0.0,0.0,0.0,0.0,1.6057,1.6337,1.6337,1.7704,1.8644,1.8531,1.9434,1.9698,1.8757,1.8179,1.8982,2.1631,2.2819,2.4863,2.8122,2.8762,2.9365,2.9942,2.9842,2.9892,3.0105,3.0331,3.0331,3.0118,3.0884,3.1135,3.104,3.3608,3.4944,3.5432,3.7777,3.8892,3.906,3.874,3.8512,3.8187,3.621,3.5575,3.5564,3.4622,3.2346,2.9767,2.9652,2.7906,2.571,2.5167,2.4814,2.435,2.3077,2.2523,0.0,0.0,0.0,0.0,0.0,0.0,0.0,0.0,2.02,2.1196,2.1764,2.2802,2.3684,2.3939,2.4881,2.5438,2.4962,2.5729,2.5891,2.45,2.4573,2.4032,2.1913,2.2406,2.2594,2.1732,2.2046,2.2347,2.246,2.2058,2.1995,2.2418,2.1531,2.0968,2.0855,2.0289,1.9911,1.9798,1.9798,1.9798,1.9811,2.0302,2.0528,2.0541,2.0953,2.0916,2.0503,1.9999,1.956,1.9158,1.9158,1.9396,1.9798,1.9798,1.9547,1.9208,1.9648,1.9447,1.9008,0.0,0.0,0.0,0.0,0.0,0.0,0.0,0.0,1.5781,1.5781,1.6823,1.7375,1.6839,1.7363,1.7725,1.7576,1.8769,2.0501,2.2769,2.3973,2.5866,2.8675,2.939,2.9955,3.0507,3.0043,3.0256,3.121,3.0319,3.0344,3.1198,3.0859,3.1185,3.2039,3.2389,3.34,3.4858,3.6026,3.7098,3.8069,3.8942,3.8931,3.8317,3.7466,3.6809,3.6133,3.4277,3.2243,3.0319,2.9789,2.8222,2.6484,2.6383,2.557,2.435,2.3077,2.1859,2.0748,2.0004,1.9813,1.9779,1.9636,1.9626,1.9768,0.0,2.1093,2.1799,2.2443,2.3137,2.3969,2.5166,2.551,2.5734,2.6185,2.5859,2.5232,2.4423,2.3341,2.255,2.2234,2.2334,2.2347,2.2234,2.2243,2.2493,2.297,2.2957,2.2945,2.3007,2.246,2.1895,2.1446,2.088,2.0352,1.9811,1.9798,1.9798,1.9798,1.9874,1.9899,1.9899,1.9962,1.9962,1.9899,1.9823,1.9773,1.971,1.971,1.9748,1.9798,1.9798,1.9761,1.9723,1.9786,1.9447,1.9008,0.0,0.0,0.0,0.0,0.0,0.0,0.0,0.0,0.0,1.5696,1.6107,1.6549,1.693,1.7191,1.723,1.6895,1.7802,1.961,2.2443,2.3715,2.5965,2.9613,3.0088,3.0632,3.1397,3.0671,3.0633,3.1386,3.0947,3.0947,3.1399,3.1838,3.245,3.3157,3.4109,3.5277,3.6568,3.7625,3.8331,3.8782,3.9228,3.9005,3.8242,3.6836,3.5415,3.4023,3.2796,3.1076,0.0,2.8188,2.7036,2.5959,2.557,2.4769,2.3774,2.2488,2.144,2.0539,1.9887,1.9708,1.9798,2.0183,2.0572,2.1036,2.1695,2.2353,2.2996,2.367,2.4328,2.5061,2.6004,2.6497,2.6661,2.6368,2.6158,2.5605,2.4322,2.3425,2.2557,2.1486,2.1054,2.1117,2.1769,2.2121,2.238,2.2606,2.2631,2.2631,2.2631,2.1832,2.1282,2.1043,2.049,2.0075,1.9798,1.9798,1.9798,1.9798,2.015,2.0327,2.0339,2.0639,2.0778,2.0765,2.0465,2.0515,2.0765,2.0465,2.0327,2.0302,1.9936,1.9798,1.9798,1.9798,1.966,1.9472,0.0,0.0,0.0,0.0,0.0,0.0,0.0,0.0,0.0,0.0,1.5466,1.5891,1.6968,1.7176,1.7148,1.6959,1.7353,1.8885,2.1868,2.314,2.5485,2.9399,3.0175,3.0881,3.1603,3.1074,3.0961,3.1386,3.1097,3.1097,3.1399,3.2077,3.2762,3.3429,3.4901,3.606,3.7035,3.8383,3.884,3.8699,3.9017,3.8392,3.712,3.5355,3.3215,3.1091,3.0612,2.9056,2.7051,2.5899,2.5076,2.4477,2.4156,2.3744,2.3131,2.2024,2.1096,2.0318,1.9842,1.9842,2.0139,2.0812,2.1335,2.1964,2.2981,2.3565,2.4073,2.4739,2.5397,2.6019,2.6497,2.6837,2.6805,2.6091,2.5939,2.5382,2.3954,2.3132,2.2155,2.086,1.9925,1.9748,2.0715,2.1305,2.1744,2.2071,2.2083,2.2083,2.2083,2.1207,2.0691,2.0691,2.01,1.9798,1.9798,1.9798,1.9798,1.9811,2.0251,2.0453,2.0478,2.1031,2.1343,2.1496,2.1094,2.1144,2.1455,2.1081,2.083,2.0654,2.0239,1.9936,1.9798,1.9798,1.9798,1.9798,0.0,0.0,0.0,0.0,0.0,0.0,0.0,0.0,0.0,0.0,0.0,0.0,0.0,1.6861,1.7361,1.7991,1.8141,1.912,2.1394,2.2522,2.4406,2.7276,2.9343,3.0474,3.0622,3.1007,3.1254,3.1386,3.0344,3.0369,3.1386,3.0909,3.1235,3.2298,3.3388,3.4231,3.4951,3.6958,3.7454,3.6989,3.8003,3.6881,3.4474,3.311,3.0582,2.775,2.772,2.6012,2.3655,2.3032,2.2373,2.1919,2.2568,2.2748,2.2598,2.1889,2.0752,1.9738,1.9708,2.0168,2.0823,2.15,2.168,2.2203,2.4111,2.456,2.4769,2.5435,2.6093,2.6572,2.6587,2.604,2.5514,2.5439,2.4823,2.4089,2.3241,2.1773,2.0756,2.0691,1.9233,1.848,1.902,1.9547,2.0326,2.143,2.1506,2.1506,2.1506,2.1006,2.0691,2.0691,2.01,1.9798,1.9798,1.9798,1.9798,1.9798,1.9823,1.9823,1.9849,2.0453,2.1018,2.1493,2.1468,2.1468,2.1493,2.1468,2.1182,2.0691,2.0679,2.0327,1.9798,1.9798,1.9798,1.9798,0.0,0.0,0.0,0.0,0.0,0.0,0.0,0.0,0.0,0.0,0.0,0.0,0.0,0.0,0.0,0.0,1.7384,1.7908,2.0227,2.1459,2.3106,2.5406,2.7693,2.9252,2.9876,2.9738,3.0075,3.0871,3.0143,3.0168,3.0884,3.1689,3.2633,3.3721,3.472,3.5684,3.6547,3.7241,3.6936,3.5917,3.5836,3.4487,3.2287,3.0073,2.7724,2.545,0.0,2.3122,2.2173,2.1085,2.0561,2.0412,2.0636,2.0711,2.0666,2.0441,2.0625,2.0809,2.0456,2.1394,2.2557,2.287,2.331,2.4022,2.557,2.5576,2.5322,2.5555,2.5464,2.5214,2.4751,2.4486,2.438,2.4619,2.4148,2.3574,2.3165,2.2334,2.1343,2.0225,1.9597,1.9196,1.902,1.9497,2.0125,2.0918,2.1307,2.1493,2.1493,2.0993,2.0855,2.1232,2.0691,2.0402,2.0402,2.0402,2.0214,1.9811,2.0214,2.0402,2.0427,2.0981,2.1506,2.2033,2.2033,2.2246,2.2518,2.2184,2.192,2.1719,2.1355,2.0893,2.0402,2.0402,2.0402,2.0352,0.0,0.0,0.0,0.0,0.0,0.0,0.0,0.0,0.0,0.0,0.0,0.0,0.0,0.0,0.0,0.0,0.0,1.7657,1.9368,2.04,2.1706,2.3414,2.5671,2.7061,2.7492,2.7429,2.7557,2.791,2.7582,2.7595,2.7946,2.889,2.9938,3.1038,3.2257,3.3368,3.4399,3.5016,3.4522,3.3293,3.2885,3.139,2.9149,2.6976,2.5091,0.0,2.1605,2.0996,2.0842,1.9992,1.9708,1.9708,1.9708,1.9708,1.9708,1.9708,2.0576,2.151,2.1147,2.242,2.3905,2.4236,2.4455,2.4889,2.5989,2.5422,2.457,2.4333,2.3821,2.3278,2.2785,2.2512,2.2522,2.2962,2.2702,2.2474,2.2518,2.2071,2.1393,2.0514,2.0225,1.9974,1.9648,2.01,2.0388,2.039,2.1094,2.1405,2.1232,2.1069,2.1144,2.1481,2.1169,2.0993,2.0993,2.0993,2.0805,2.0413,2.0805,2.1094,2.1295,2.1619,2.2083,2.2581,2.2581,2.2782,2.3083,2.2732,2.2456,2.2284,2.192,2.1443,2.0968,2.0767,2.0817,2.088,0.0,0.0,0.0,0.0,0.0,0.0,0.0,0.0,0.0,0.0,0.0,0.0,0.0,0.0,0.0,0.0,0.0,0.0,1.8804,1.9436,2.025,2.1314,2.3267,2.4164,2.3819,2.4246,2.404,2.3088,2.3088,2.3088,2.3058,2.3143,2.3764,2.4854,2.6433,2.7747,2.8859,3.0446,3.0376,2.916,2.9277,2.7744,2.5315,2.3969,2.2697,2.147,2.0172,1.9708,1.9708,1.9708,1.9708,1.9708,1.9708,1.9708,1.9708,1.9783,2.0726,2.1794,2.1849,2.3272,2.4904,2.5495,2.5143,2.4814,2.5418,2.4151,2.2657,2.1954,2.1372,2.0957,2.0794,2.028,2.0096,2.0654,2.072,2.0893,2.1443,2.1157,2.1043,2.1546,2.1169,2.0842,2.0779,2.1282,2.1104,1.9974,0.0,2.1333,2.0805,2.1242,2.1543,2.1568,2.1543,2.1531,2.1531,2.1506,2.1493,2.1493,2.1546,2.182,2.2347,2.2355,2.2656,2.3145,2.3145,2.3133,2.3108,2.3108,2.2794,2.2347,2.2347,2.202,2.1496,2.0968,2.1106,2.1368,0.0,0.0,0.0,0.0,0.0,0.0,0.0,0.0,0.0,0.0,0.0,0.0,0.0,0.0,0.0,0.0,0.0,0.0,1.8096,1.8858,1.9374,1.9542,2.0949,2.2053,2.2695,2.2829,2.2975,2.3093,2.3093,2.2904,2.2535,2.3677,2.4379,2.4711,2.5792,2.6483,2.6775,2.7201,2.682,2.5937,2.5462,2.4545,2.3302,2.1949,2.1246,2.0838,1.9989,1.9708,1.9708,1.9708,1.9708,1.9708,1.9708,1.9708,1.9902,2.0887,2.202,2.309,2.3702,2.5236,2.6634,2.6408,2.5839,2.5288,2.5051,2.3533,2.1852,2.0775,2.0053,1.9459,1.8968,1.8764,1.8972,1.9902,2.042,2.1031,2.197,2.2711,2.3037,2.2719,2.2975,2.2824,2.197,2.2397,2.2246,2.1142,2.1707,2.2046,2.1895,2.202,2.2284,2.2669,2.2293,2.2108,2.2108,2.1694,2.1493,2.1493,2.1907,2.2397,2.2907,2.3376,2.364,2.3778,2.3778,2.354,2.3108,2.3108,2.302,2.2895,2.2895,2.2556,2.2083,2.1945,2.1983,2.1995,0.0,0.0,0.0,0.0,0.0,0.0,0.0,0.0,0.0,0.0,0.0,0.0,0.0,0.0,0.0,0.0,0.0,0.0,0.0,1.8323,1.8663,1.8905,1.9576,2.0124,2.0443,2.0223,2.0131,2.0194,2.0194,2.0054,1.9773,2.063,2.1197,2.1485,2.2468,2.3057,2.3305,2.3836,2.365,0.0,0.0,2.2017,2.131,2.0543,2.0258,2.0213,1.9842,1.9708,1.9753,2.0034,1.9929,1.9813,2.0397,2.0786,2.128,2.2592,2.3628,2.4587,2.5625,2.6678,2.7482,2.7495,2.6318,2.4953,2.4139,2.2254,2.0324,1.9118,1.8384,1.7937,1.7863,1.7638,1.7739,1.8606,1.9422,2.0326,2.143,2.2761,2.3647,2.3822,2.4356,2.4356,2.3471,2.3659,2.3484,2.2661,2.2636,2.2543,2.2293,2.2506,2.2907,2.3471,2.3213,2.305,2.305,2.2485,2.2209,2.2221,2.2493,2.2945,2.3484,2.359,2.3753,2.3979,0.0,2.3409,2.3108,2.3108,2.3108,2.3108,2.3108,2.292,2.2606,2.2397,2.2443,2.2556,0.0,0.0,0.0,0.0,0.0,0.0,0.0,0.0,0.0,0.0,0.0,0.0,0.0,0.0,0.0,0.0,0.0,0.0,0.0,0.0,1.823,1.8977,1.8874,1.8631,1.8322,1.7787,1.7271,1.6816,1.6816,1.6774,1.671,1.671,1.699,1.7543,1.8476,1.9142,1.9641,2.0681,2.0841,2.0382,2.0436,2.0158,1.9708,0.0,1.9708,1.9708,1.9708,1.9648,1.9678,2.0348,2.0303,2.0187,2.1445,2.2298,2.3092,2.4455,2.5277,2.6048,2.748,2.7794,2.7829,2.8219,2.6331,2.4052,2.2814,2.0619,1.8542,1.7404,1.6816,1.6651,1.7174,1.6861,1.6713,1.741,1.8355,1.9434,2.0729,2.2246,2.3634,2.4763,2.5385,2.5498,2.4938,2.4888,2.4662,2.4155,2.3547,2.2982,2.2447,2.292,2.3484,2.4092,2.3966,2.3916,2.4004,2.3396,2.3108,2.3108,2.3108,2.3446,2.4092,2.3484,2.3534,2.4079,2.3471,0.0,2.3108,2.3108,2.3108,2.3108,2.3108,2.3108,2.3045,2.2569,2.2694,2.3032,0.0,0.0,0.0,0.0,0.0,0.0,0.0,0.0,0.0,0.0,1.6726,1.5712,0.0,0.0,0.0,0.0,0.0,0.0,0.0,0.0,0.0,1.9518,1.8708,1.8612,1.9406,1.8893,1.8574,1.8477,1.8477,1.8263,1.7827,1.7827,1.7882,1.799,1.818,1.8317,1.8413,1.8616,1.89,1.9205,1.9204,1.9417,1.9708,1.9708,0.0,0.0,1.9708,1.9331,1.8972,1.9663,2.0528,2.1485,2.2283,2.2957,2.3804,2.5704,2.6333,2.6826,2.8753,2.8858,2.8204,2.7179,2.5073,2.274,2.0982,1.9042,1.7431,1.6778,1.6552,1.6525,1.6647,1.6563,1.6839,1.789,1.8581,1.971,2.1744,2.3075,2.4255,2.5335,2.5963,2.6122,2.5523,2.546,2.5247,2.4687,2.4167,2.3602,2.2995,2.354,2.4104,2.4625,2.3747,2.3484,2.3991,2.3396,2.3108,2.3108,2.3108,2.3647,2.4625,2.4104,2.4155,2.4612,2.4092,0.0,2.3108,2.3108,2.3108,2.3108,2.3108,2.3108,2.3095,2.2995,2.302,2.3095,0.0,0.0,0.0,0.0,0.0,0.0,0.0,1.7219,1.7713,1.9046,1.842,1.7566,1.6862,1.6203,1.5799,0.0,0.0,0.0,0.0,0.0,0.0,0.0,1.9207,1.9043,1.9281,1.9024,1.8746,1.8477,0.0,1.8361,1.8106,1.8106,1.8106,1.8125,1.84,1.8516,1.8535,1.8817,1.908,1.9332,1.9332,1.946,1.9708,0.0,0.0,0.0,1.9708,1.9498,1.9316,1.9989,2.0887,2.1754,2.2089,2.3071,2.444,2.6108,2.6866,2.7555,2.952,2.934,2.8282,2.701,2.4563,2.1951,2.0093,1.8224,1.6814,1.6553,1.65,1.65,1.65,1.65,1.6676,1.7237,1.8041,1.9271,2.1192,2.241,2.374,2.5398,2.5871,2.6047,2.6084,2.5774,2.5485,2.5247,2.4732,2.418,2.3584,2.4117,2.4669,2.5209,2.4695,2.4418,2.4431,2.3835,2.3409,2.3108,2.3409,2.3985,2.4775,2.4255,2.4443,2.5159,2.401,0.0,2.3521,2.3233,2.3108,2.3108,2.3108,2.3108,2.3108,2.3108,2.3108,2.3108,0.0,0.0,0.0,0.0,0.0,0.0,0.0,1.8042,1.8672,2.0157,2.0079,1.945,1.8252,1.6982,1.6144,0.0,0.0,0.0,0.0,0.0,0.0,0.0,0.0,0.0,1.908,0.0,0.0,1.8438,1.8438,0.0,0.0,0.0,0.0,0.0,1.8874,1.9062,1.9114,1.953,1.9708,0.0,0.0,1.9708,0.0,0.0,0.0,0.0,0.0,1.9708,1.9783,2.0318,2.0932,2.1455,2.1321,2.2691,2.4649,2.5989,2.6971,2.7959,2.9639,2.9337,2.816,2.6573,2.3875,2.1122,1.9311,1.7566,1.6367,1.6481,1.65,1.65,1.65,1.65,1.6538,1.6663,1.7451,1.8606,2.0277,2.143,2.2912,2.5008,2.5448,2.5858,2.6436,2.6084,2.5774,2.5774,2.5285,2.4795,2.4368,2.4418,2.4838,2.5749,2.5322,2.4996,2.4788,2.428,2.3703,2.3108,2.3841,2.4406,2.4775,2.4255,2.4582,2.5498,2.3822,0.0,0.0,2.3346,2.3108,2.3108,2.3108,2.3183,2.3283,2.3283,2.3283,2.3308,0.0,0.0,0.0,0.0,0.0,0.0,0.0,1.9121,2.0217,2.2164,2.1365,2.0333,1.9603,1.8311,1.7279,0.0,0.0,0.0,0.0,0.0,0.0,0.0,0.0,0.0,0.0,0.0,0.0,1.9548,1.9548,0.0,0.0,0.0,0.0,0.0,0.0,1.9621,1.9621,1.969,0.0,0.0,0.0,0.0,0.0,0.0,0.0,0.0,0.0,1.9708,1.9708,1.9768,2.0243,2.0692,2.0082,2.1635,2.3969,2.53,2.6587,2.7764,2.8562,2.8599,2.7719,2.4895,2.219,1.9811,1.7996,1.6641,1.5905,1.6409,1.65,1.65,1.65,1.65,1.6685,1.7234,1.741,1.8052,1.966,2.0853,2.2209,2.3941,2.5008,2.5858,2.6436,2.6449,2.6411,2.6411,2.585,2.5498,2.5448,2.4048,2.4243,2.6348,2.4418,2.3797,2.4775,2.428,2.3703,2.312,2.4199,2.4738,2.4775,2.4255,2.4582,2.5498,2.3822,0.0,0.0,2.3346,2.3108,2.3108,2.3108,2.3421,2.3916,2.3916,2.3916,2.3991,0.0,0.0,0.0,0.0,0.0,0.0,1.8448,1.8565,1.951,2.2328,2.1874,2.1201,2.0917,1.9705,1.8311,1.6831,0.0,0.0,0.0,0.0,0.0,0.0,0.0,0.0,0.0,0.0,1.9708,1.9708,1.9708,0.0,0.0,0.0,0.0,0.0,0.0,1.9708,1.9708,1.9708,0.0,0.0,0.0,0.0,0.0,0.0,0.0,0.0,0.0,0.0,1.9708,1.9708,1.9887,2.0049,1.9765,2.0412,2.1515,2.2862,2.4747,2.6454,2.6667,2.7021,2.6576,2.3468,2.1153,1.9129,1.7289,1.6258,1.5856,1.6387,1.65,1.65,1.65,1.65,1.6575,1.6823,1.6861,1.7325,1.8656,1.9233,2.0501,2.3133,2.3822,2.4594,2.5858,2.5971,2.5812,2.5498,2.5259,2.5272,2.5573,2.4971,2.5184,2.6449,2.5259,2.4682,2.4788,2.428,2.3703,2.3108,2.3941,2.4506,2.4775,2.4594,2.5084,2.6059,2.4368,0.0,0.0,2.4017,2.3822,2.4111,2.4111,2.4261,2.4494,2.4494,2.4494,2.4519,0.0,0.0,0.0,0.0,0.0,1.6593,1.8147,1.8326,1.9211,2.1754,2.1695,2.1395,2.1395,2.0034,1.8702,1.7684,1.7219,0.0,0.0,0.0,0.0,0.0,0.0,0.0,0.0,0.0,1.9708,1.9708,1.9708,1.9708,0.0,0.0,1.9708,1.9708,0.0,0.0,0.0,0.0,0.0,0.0,0.0,0.0,0.0,0.0,0.0,0.0,0.0,0.0,0.0,0.0,0.0,1.9708,1.9708,1.9708,1.9932,2.1066,2.2876,2.4486,2.4438,2.4823,2.4528,2.1621,1.982,1.8304,1.665,1.5969,1.5856,1.6387,1.65,1.65,1.65,1.65,1.65,1.65,1.65,1.6839,1.7827,1.8103,1.9246,2.2071,2.2518,2.3333,2.5184,2.5511,2.5385,2.4825,2.4788,2.4908,2.5121,2.5285,2.5624,2.6223,2.5335,2.477,2.4582,2.4192,2.3703,2.3108,2.386,2.4443,2.4788,2.4788,2.5423,2.6411,2.4883,0.0,0.0,2.4619,2.4469,2.4788,2.4788,2.4888,2.5059,2.5059,2.5059,2.5071,0.0,0.0,0.0,0.0,0.0,0.0,1.7609,1.8837,1.9929,2.0613,2.0703,2.0703,2.0703,1.8924,1.8252,1.9558,1.8463,0.0,0.0,0.0,0.0,0.0,0.0,0.0,0.0,0.0,1.9708,1.9708,1.9708,1.9708,1.9708,1.9708,1.9708,1.9708,0.0,0.0,0.0,0.0,0.0,0.0,0.0,0.0,0.0,0.0,0.0,0.0,0.0,0.0,0.0,0.0,0.0,0.0,0.0,1.9708,1.9842,2.0494,2.1294,2.1932,2.1932,2.1955,2.14,1.9105,1.7965,1.7121,1.5977,1.5706,1.5856,1.6387,1.65,1.65,1.65,1.65,1.65,1.65,1.65,1.6701,1.7313,1.7865,1.8819,2.0515,2.1207,2.2385,2.4575,2.5297,2.5385,2.4825,2.4788,0.0,2.4042,2.4531,2.5039,2.5586,2.3985,2.3409,2.4004,2.4004,2.3703,2.312,2.4249,2.4775,2.4788,2.4788,2.5423,2.6436,0.0,0.0,0.0,2.5034,2.4775,2.4788,2.4788,2.5134,2.5586,2.5586,2.5586,2.5674,0.0,0.0,0.0,0.0,0.0,0.0,0.0,1.7026,1.7581,1.9136,1.8924,1.8999,1.9914,1.8625,1.8237,1.9588,1.8461,0.0,0.0,0.0,0.0,0.0,0.0,0.0,0.0,0.0,1.9708,1.9708,1.9708,1.9708,1.9708,1.9708,1.9708,1.9708,1.9708,1.9708,0.0,0.0,0.0,0.0,0.0,0.0,1.9708,0.0,0.0,0.0,0.0,0.0,0.0,0.0,0.0,0.0,0.0,0.0,0.0,1.9944,2.085,2.1557,2.0705,2.0835,2.0748,1.8773,1.7834,1.7209,1.6421,1.6258,1.6287,1.6463,1.65,1.65,1.65,1.65,1.65,1.65,1.65,1.6563,1.6773,1.7601,1.8957,2.0991,2.308,2.428,2.4268,2.4745,2.465,2.371,2.401,2.418,2.4004,2.376,2.4061,2.5034,2.4192,2.3816,2.4004,2.3572,2.3283,2.3108,2.3471,2.4048,2.4788,2.4788,2.5423,0.0,0.0,0.0,0.0,2.5586,2.5586,2.5971,2.5971,2.6084,2.6223,2.6223,2.6223,2.6248,0.0,0.0,0.0,0.0,0.0,0.0,0.0,1.6234,1.6578,1.7788,1.7578,1.7833,1.9166,1.7924,1.7715,1.9543,1.8461,0.0,0.0,0.0,0.0,0.0,0.0,0.0,0.0,1.9708,1.9828,2.0079,2.0079,2.0079,2.0079,2.0079,1.9929,1.9708,1.9708,1.9708,0.0,0.0,0.0,0.0,0.0,0.0,1.9708,0.0,0.0,0.0,0.0,0.0,0.0,0.0,0.0,0.0,0.0,0.0,0.0,0.0,2.0109,2.0353,1.9349,1.9454,1.9418,1.7627,1.7271,1.7213,1.6624,1.6507,1.6552,1.6752,1.6637,1.65,1.65,1.65,1.65,1.65,1.65,1.65,1.65,1.7488,1.8945,2.0968,2.3439,2.4644,2.3753,2.418,2.4186,2.3484,2.359,2.3665,2.3665,2.3296,2.3434,2.4136,2.3822,2.3665,2.3665,2.3283,2.3108,2.3108,2.3333,2.391,2.48,2.4988,2.5598,0.0,0.0,0.0,0.0,2.6097,2.6172,2.6499,2.6499,2.6499,2.6499,2.6499,2.6499,2.6499,0.0,0.0,0.0,0.0,0.0,0.0,0.0,1.6278,1.6652,1.6652,1.6652,1.7115,1.8358,1.6877,1.6803,1.9273,0.0,0.0,0.0,0.0,0.0,0.0,0.0,0.0,1.9708,1.9708,2.0022,2.0628,2.0673,2.0703,2.0703,2.0748,2.0423,1.9768,1.9768,1.9753,1.9663,0.0,0.0,0.0,1.9016,1.9136,0.0,0.0,0.0,0.0,0.0,0.0,0.0,0.0,0.0,0.0,0.0,0.0,0.0,0.0,0.0,0.0,0.0,1.8007,1.7697,1.6027,1.6481,1.7228,1.6725,1.6576,0.0,1.725,1.6888,1.6522,1.6552,1.6543,1.65,1.65,1.6538,1.655,1.655,1.7689,1.907,2.0629,2.2761,2.3841,2.3108,2.364,2.3979,2.3941,2.3409,2.3108,2.3108,2.3108,2.3108,2.3108,2.3108,2.3108,2.3108,2.3108,2.3108,2.3108,2.3715,2.4293,2.4813,2.536,2.598,0.0,0.0,0.0,0.0,2.6624,2.6589,2.6589,2.6521,2.6499,2.6499,2.6499,2.6499,2.6499,0.0,0.0,0.0,0.0,0.0,0.0,0.0,0.0,0.0,0.0,1.6009,1.6129,1.6443,1.6069,1.6233,0.0,0.0,0.0,0.0,0.0,0.0,0.0,0.0,0.0,1.9708,1.9708,1.9783,1.9947,2.0453,2.0703,2.0703,2.1231,2.1111,2.0449,2.0449,2.0183,1.9693,1.9525,0.0,0.0,1.9528,1.9573,0.0,0.0,0.0,0.0,1.9708,1.9708,0.0,0.0,0.0,0.0,0.0,0.0,0.0,0.0,1.9588,1.9328,1.8698,0.0,1.7739,1.6925,1.7308,1.7886,0.0,1.741,1.725,1.7807,1.7146,1.6637,1.7034,1.6774,1.65,1.65,1.6886,1.7197,1.7197,1.9585,2.1493,2.1882,2.3879,2.4506,2.2686,2.3414,2.3816,2.3346,2.3183,2.3108,2.3108,2.3108,2.3108,2.3108,2.3108,2.3108,2.3108,2.3108,2.3108,2.3108,2.3715,2.4293,2.4813,2.536,2.6256,0.0,0.0,0.0,2.8363,2.7703,2.7417,2.7351,2.6748,2.6499,2.6499,2.6499,2.6499,2.6499,0.0,0.0,0.0,0.0,0.0,0.0,0.0,0.0,0.0,0.0,0.0,0.0,0.0,0.0,0.0,0.0,0.0,0.0,0.0,0.0,0.0,0.0,0.0,1.9708,1.9708,1.9708,1.9839,2.0154,2.0509,2.0853,2.1171,2.1216,2.1051,2.0688,2.0378,2.0034,1.9678,1.9361,1.9423,1.9678,1.9378,0.0,0.0,0.0,0.0,0.0,1.9708,1.9708,0.0,1.9708,1.9708,1.9708,0.0,0.0,0.0,0.0,1.9256,1.8702,1.8326,1.8483,1.8517,1.7687,1.7969,1.8477,1.8477,1.8046,1.7827,1.8361,1.7605,1.6951,1.725,1.6858,1.6588,1.6873,1.7197,1.7662,1.8392,2.0263,2.1744,2.2246,2.359,2.396,0.0,2.3221,2.3446,2.3133,2.3108,2.3108,2.3108,2.3108,2.3108,2.3108,2.3454,2.3662,2.3662,2.3275,2.3275,2.3662,2.4134,2.4531,2.4813,2.5636,2.6644,0.0,0.0,0.0,2.8971,2.8492,2.8051,2.767,2.7229,2.685,2.6499,2.6499,2.6499,2.6499,0.0,0.0,0.0,0.0,0.0,0.0,0.0,0.0,0.0,0.0,0.0,0.0,0.0,0.0,0.0,0.0,0.0,0.0,0.0,0.0,0.0,0.0,0.0,1.9753,1.9839,1.9753,2.0034,2.0703,2.0917,2.1306,2.1844,2.1465,2.1137,2.0823,2.0154,1.9813,1.9663,1.9091,1.9166,1.9648,1.9076,0.0,0.0,0.0,0.0,0.0,0.0,0.0,0.0,1.9708,1.9708,1.9708,1.9708,0.0,0.0,0.0,0.0,0.0,1.7728,1.8612,1.9287,1.815,1.8451,1.9024,1.9024,1.8612,1.838,1.8912,1.8185,1.7442,1.7524,1.7183,1.7067,1.7587,1.7804,1.8474,2.0075,2.0815,2.1546,2.246,2.3032,2.3296,2.312,2.3108,2.3108,2.3108,2.3108,2.3108,2.3108,2.3215,2.3275,2.3275,2.406,2.4509,2.4624,2.3855,2.3796,2.4478,2.4818,2.5052,2.5186,2.6206,2.7196,2.8117,0.0,0.0,2.938,2.9254,2.8748,2.8084,2.7953,2.7484,2.6871,2.6871,2.6871,2.6871,0.0,0.0,0.0,0.0,0.0,0.0,0.0,0.0,0.0,0.0,0.0,0.0,0.0,0.0,0.0,0.0,0.0,0.0,0.0,0.0,0.0,1.9648,1.9708,1.9959,2.0524,1.9989,2.0034,2.0703,2.1829,2.2448,2.2568,2.3528,2.3125,2.1515,2.0857,2.0228,1.9693,1.9588,1.9618,1.9693,1.9588,0.0,0.0,0.0,0.0,0.0,0.0,0.0,0.0,1.9708,1.9708,1.9708,1.9708,0.0,0.0,0.0,0.0,0.0,1.7848,1.8252,1.867,1.7913,1.8656,1.9584,1.9584,1.9169,1.893,1.946,1.8708,1.8125,1.8574,1.8681,1.8727,1.8823,1.9653,2.081,2.238,2.3125,2.3552,2.3715,2.4217,2.4161,2.3195,2.3108,2.3108,2.3108,2.3108,2.3108,2.3108,2.3738,2.4118,2.4118,2.4838,2.5536,2.6149,2.5425,2.5119,2.5245,2.5578,2.6105,2.6859,2.7305,2.8395,2.9889,0.0,3.0359,3.1058,3.0389,3.0011,2.9827,2.9097,2.8716,2.862,2.862,2.862,2.862,0.0,0.0,0.0,0.0,0.0,0.0,0.0,0.0,0.0,0.0,0.0,0.0,0.0,0.0,0.0,0.0,0.0,0.0,0.0,0.0,1.9046,1.9678,1.9708,2.0004,2.0688,2.0752,2.1096,2.1769,2.2712,2.337,2.3729,2.3625,2.2517,2.0621,2.0288,1.9989,1.9708,1.9708,1.9708,1.9708,0.0,0.0,0.0,0.0,0.0,0.0,0.0,0.0,0.0,0.0,1.9468,1.9211,1.9588,0.0,0.0,0.0,0.0,0.0,1.7772,1.7923,1.8087,1.7788,1.8717,1.9618,1.9226,1.9245,1.9406,1.9639,1.9371,1.9038,1.8912,1.9307,1.985,2.0517,2.1518,2.2456,2.3163,2.3809,2.4214,2.418,0.0,2.4964,2.4405,2.3989,2.3609,2.3286,2.3557,2.3438,2.2763,2.4093,2.4717,2.4351,2.541,2.6149,2.651,2.6549,2.639,2.5987,2.6051,2.6269,2.6693,2.7505,2.855,2.9779,0.0,3.0777,3.1467,3.1087,3.0673,3.0269,2.9858,2.9411,2.9002,2.9002,2.9002,2.9002,0.0,0.0,0.0,0.0,0.0,0.0,0.0,0.0,0.0,0.0,0.0,0.0,0.0,0.0,0.0,0.0,0.0,0.0,0.0,0.0,1.9543,1.9693,1.9708,2.0154,2.1156,2.1515,2.2158,2.3131,2.3774,2.4268,2.459,2.343,2.1849,1.9929,1.9929,1.9857,1.9708,1.9708,1.9708,1.9708,0.0,0.0,0.0,0.0,0.0,0.0,0.0,0.0,0.0,0.0,0.0,0.0,0.0,0.0,0.0,1.9468,1.8747,1.7878,1.7548,1.7594,1.7652,1.7519,1.8597,1.9618,1.9256,1.957,1.9974,2.0142,2.0239,2.0113,1.9444,1.9944,2.0882,2.2067,2.3065,2.3756,2.4006,2.4503,2.4851,2.4911,2.5364,2.5578,2.537,2.4731,2.4125,2.3658,2.4058,2.3897,2.2924,2.4504,2.5103,2.4436,2.5804,2.6515,2.6515,2.7232,2.7331,2.6762,2.6539,2.6552,2.6793,2.7668,2.8559,2.9421,3.0045,3.0705,3.1271,3.1436,3.1161,3.0584,3.0584,3.0178,2.9597,2.9597,2.9597,2.9597,0.0,0.0,0.0,0.0,0.0,0.0,0.0,0.0,0.0,0.0,0.0,0.0,0.0,0.0,0.0,0.0,0.0,0.0,0.0,0.0,1.9046,1.9678,1.9708,2.0606,2.2508,2.1999,2.2607,2.447,2.5113,2.5158,2.459,2.3879,2.2503,2.0628,2.0628,2.0288,1.9708,1.9708,1.9708,1.9708,1.9708,0.0,0.0,0.0,0.0,0.0,0.0,0.0,0.0,0.0,0.0,0.0,0.0,0.0,1.8777,1.8777,1.8702,1.8356,1.7115,1.7234,1.7548,1.6936,1.8252,1.9839,2.0438,2.0583,2.0793,2.1425,2.157,2.1386,2.0695,2.1138,2.1984,2.32,2.3969,2.4784,2.5838,2.6027,2.6246,2.6752,2.6413,2.5892,2.5273,2.4709,2.4366,2.4325,2.4366,2.4352,2.4256,2.5027,2.5199,2.4504,2.5874,2.6574,2.6574,2.726,2.7575,2.7524,2.7331,2.765,2.8423,2.832,2.8751,2.9615,3.0214,3.0526,3.0627,3.1241,3.1467,3.1409,3.1409,3.138,3.1322,3.1322,3.1322,3.1322,0.0,0.0,0.0,0.0,0.0,0.0,0.0,0.0,0.0,0.0,0.0,0.0,0.0,0.0,0.0,0.0,0.0,0.0,0.0,1.9091,1.9295,1.921,1.953,2.0291,2.1565,2.206,2.3071,2.4605,2.4844,2.444,2.34,2.2727,2.1575,2.0079,2.0079,1.9947,1.9708,1.9708,1.9708,1.9708,1.9708,1.9708,0.0,0.0,0.0,0.0,0.0,0.0,0.0,0.0,1.7413,1.7264,1.8356,1.8401,1.8162,1.8583,1.8117,1.7354,1.683,1.7189,1.7654,1.7384,1.8506,1.9768,2.0019,2.0722,2.1276,2.1111,2.2362,2.3289,2.2637,2.2712,2.3165,2.4042,2.4974,2.5926,2.6777,2.7244,2.7442,2.7216,2.7493,2.7258,2.6173,2.5466,2.496,2.4603,2.451,2.4329,2.3982,2.4985,2.5265,2.457,2.5899,2.6587,2.6587,2.727,2.76,2.76,2.7947,2.8272,2.8637,2.9354,2.9648,2.9666,3.0687,3.0883,3.0552,3.1212,3.1256,3.0896,3.0896,3.0896,3.0913,3.1346,3.1511,3.1511,0.0,0.0,0.0,0.0,0.0,0.0,0.0,0.0,0.0,0.0,0.0,0.0,0.0,0.0,0.0,0.0,0.0,0.0,1.9046,1.9453,1.9548,1.9169,1.9497,2.0065,2.0825,2.1654,2.2802,2.4276,2.3911,2.3193,2.2097,2.1269,2.0377,1.9461,1.9457,1.9542,1.9701,1.9692,1.9708,1.9708,1.9708,1.9708,0.0,0.0,0.0,0.0,0.0,0.0,0.0,0.0,1.6802,1.6652,1.7968,1.7923,1.7548,1.8448,1.7908,1.6965,1.6756,1.7189,1.7713,1.7713,1.8553,1.954,2.0202,2.1036,2.168,2.1635,2.3035,2.4201,2.3947,2.3744,2.3894,2.4769,2.5575,2.63,2.6992,2.7297,2.727,2.6806,2.7288,2.7215,2.6078,2.5497,2.5063,2.4697,2.4582,2.4369,2.4002,2.48,2.4978,2.4306,2.539,2.6078,2.6273,2.6956,2.739,2.76,2.8263,2.8487,2.8308,2.94,2.9549,2.9052,3.0342,3.0657,3.0268,3.0913,3.1032,3.0778,3.0582,3.0642,3.0881,3.1331,3.1511,3.1511,0.0,0.0,0.0,0.0,0.0,0.0,0.0,0.0,0.0,0.0,0.0,0.0,0.0,0.0,0.0,0.0,0.0,0.0,1.9708,1.9708,1.9708,1.969,1.9708,2.0004,2.0673,2.0688,2.163,2.358,2.2453,2.1534,2.0856,1.9648,1.901,1.8879,1.8896,1.92,1.9672,1.9671,1.969,1.969,1.969,1.9708,1.9708,0.0,0.0,0.0,0.0,0.0,0.0,0.0,1.5799,1.6009,1.7295,1.7234,1.6965,1.8296,1.8207,1.7548,1.6891,1.7189,1.7713,1.7697,1.8222,1.9241,2.1231,2.1695,2.2069,2.3355,2.361,2.3819,2.4485,2.4051,2.4044,2.5375,2.56,2.5824,2.6497,2.6019,2.5615,2.5615,2.5615,2.5337,2.4664,2.4605,2.4605,2.4605,2.459,2.459,2.4605,2.459,2.4291,2.3625,2.4261,2.4933,2.56,2.6273,2.6941,2.76,2.8263,2.8233,2.763,2.8293,2.8233,2.7675,2.9022,2.9606,2.9651,3.0238,3.0896,3.1421,3.0776,3.0883,3.1481,3.1511,3.1511,3.1496,0.0,0.0,0.0,0.0,0.0,0.0,0.0,0.0,0.0,0.0,0.0,0.0,0.0,0.0,0.0,0.0,0.0,0.0,1.9708,1.9708,1.953,1.9151,1.9497,1.9619,1.9443,1.9808,2.0737,2.2263,2.1059,2.0388,2.018,1.9349,1.8728,1.8348,1.8732,1.8771,1.8573,1.8567,1.8798,1.9151,1.9151,1.9369,1.9708,0.0,0.0,0.0,0.0,0.0,0.0,0.0,0.0,0.0,1.7295,1.7234,1.686,1.7743,1.7518,1.695,1.6741,1.7189,1.7818,1.8281,1.9253,2.0255,2.0872,2.1365,2.2323,2.4552,2.4619,2.45,2.5173,2.4754,2.4425,2.4829,2.4903,2.5128,2.5809,2.5734,2.5615,2.5615,2.5615,2.5337,2.4664,2.4605,2.4605,2.4605,2.4156,2.4096,0.0,2.4141,2.3804,2.361,2.4717,2.5397,2.5615,2.6722,2.7405,2.76,2.7809,2.8049,2.8323,2.8981,2.8921,2.8338,2.9232,2.9325,2.8951,2.9594,2.9968,3.0178,3.0417,3.0357,3.0268,3.1167,3.1197,3.0806,0.0,0.0,0.0,0.0,0.0,0.0,0.0,0.0,0.0,0.0,1.826,1.8366,0.0,0.0,0.0,1.9406,1.9584,0.0,1.9406,1.9584,1.9566,1.9225,1.953,1.9442,1.8912,1.9225,1.9677,2.0258,1.9552,1.9089,1.8868,1.8482,1.8246,1.814,1.8494,1.8551,1.8437,1.8193,1.8302,1.8574,1.8574,1.8779,1.9095,0.0,0.0,0.0,0.0,0.0,0.0,0.0,0.0,0.0,1.7758,1.7443,1.683,1.7488,1.7056,1.6398,1.6637,1.7189,1.7863,1.8521,1.9702,2.0763,2.1051,2.2009,2.3385,2.5226,2.5277,2.5187,2.5869,2.5232,2.4694,2.4948,2.4545,2.4335,2.4762,2.4373,2.4059,2.4059,2.4059,2.3894,2.3483,2.3699,2.3849,2.3849,2.3699,0.0,0.0,2.3819,2.3729,2.3999,2.4522,2.5196,2.5989,2.6527,2.7076,2.76,2.76,2.7809,2.8244,2.8891,2.8831,2.8233,2.8906,2.9116,2.9011,2.9146,2.949,2.9968,3.0088,3.0058,3.0073,3.1122,3.1077,3.0507,0.0,0.0,1.6263,1.7489,0.0,0.0,0.0,0.0,0.0,1.8587,1.8671,1.8691,0.0,0.0,0.0,1.9024,1.9424,1.9479,1.9006,1.9424,1.9708,1.9708,1.9639,1.9387,1.8836,1.8836,1.8554,1.8027,1.8027,1.7787,1.7305,1.7364,1.7614,1.8052,1.8093,1.8376,1.8743,1.82,1.7987,1.8027,1.8027,1.8066,1.8165,1.8631,0.0,0.0,0.0,0.0,0.0,0.0,0.0,0.0,1.8493,1.7863,1.701,1.7608,1.6922,1.6084,1.6637,1.7234,1.7863,1.8521,1.9765,2.0976,2.1635,2.3266,2.4754,2.5292,2.5501,2.5794,2.6393,2.5457,2.4784,2.533,2.4343,2.349,2.343,2.2428,2.1695,2.1695,2.1695,2.1695,2.1695,2.2313,2.2703,2.2703,2.3251,0.0,0.0,2.3595,2.3879,2.4485,2.4044,2.4657,2.6482,2.6033,2.6363,2.751,2.751,2.748,2.745,2.8173,2.8173,2.763,2.8233,2.8891,2.9472,2.8846,2.928,3.0283,2.9774,2.9924,3.0507,3.1152,3.1017,3.0507,0.0,0.0,1.6756,1.7564,0.0,0.0,0.0,0.0,1.8545,1.7716,1.8337,1.8691,1.828,1.9115,0.0,1.9548,1.9621,1.9639,1.9548,1.9639,1.9708,1.9708,1.9299,1.8817,1.8283,1.8283,1.8007,1.7463,1.7463,1.7415,1.7305,1.7364,1.72,1.6898,1.7359,1.7365,1.7023,1.6897,1.7097,1.7463,1.7463,1.7727,1.8125,1.8243,1.8283,0.0,0.0,0.0,0.0,0.0,0.0,0.0,1.8493,1.8508,1.8296,1.8448,1.7908,1.731,1.7459,1.7578,1.7863,1.8521,2.0109,2.1665,2.2343,2.358,2.4485,2.4118,2.4881,2.5636,2.5794,2.5143,2.447,2.4088,2.3385,2.2718,2.2173,2.1874,2.1695,2.1695,2.1695,2.1695,2.1695,2.2313,2.2703,2.2703,0.0,0.0,2.3595,2.3595,2.367,2.3819,2.4702,2.539,2.5809,2.6731,2.7061,0.0,2.6821,2.6527,2.6078,2.7285,2.7735,2.76,2.775,2.8214,2.8801,2.8667,2.8757,2.9041,2.9457,2.9696,2.9864,3.0492,3.0627,3.0507,0.0,0.0,0.0,0.0,0.0,0.0,0.0,0.0,1.908,1.8516,1.8949,1.9188,1.8893,1.9369,0.0,0.0,1.9332,1.9207,1.8949,1.893,1.893,1.893,1.8669,1.8283,1.7727,1.7727,1.7442,1.6909,1.6909,1.6909,1.6921,1.7254,1.7234,1.6936,1.7272,1.7234,1.6911,1.6613,1.6659,1.6909,1.6909,1.7076,1.7374,1.7626,1.7727,1.7747,1.8007,0.0,0.0,0.0,0.0,0.0,0.0,0.0,1.8702,1.8702,1.8222,1.7713,1.7713,1.7938,1.8416,1.9403,2.0453,2.1395,2.2074,2.2727,2.3116,2.2757,2.3999,2.5008,2.4702,2.4118,2.3475,2.2802,2.2158,2.162,2.1276,2.0946,2.0737,2.0737,2.0737,2.0737,2.0737,2.1335,2.1874,2.2209,0.0,2.3295,2.358,2.3595,2.3744,2.4066,2.4462,2.4956,2.56,2.5974,2.6153,2.6123,2.6123,2.5944,2.5621,2.6671,2.73,2.76,2.76,2.7989,2.8577,2.8248,2.8308,2.8637,2.8981,2.9337,2.9681,3.0283,3.0507,3.0507,0.0,0.0,0.0,0.0,0.0,0.0,0.0,0.0,0.0,1.9566,1.9639,1.9657,1.9566,1.9639,1.9479,0.0,0.0,0.0,1.8145,1.8106,1.8066,1.7967,1.7967,1.7706,1.7167,1.7146,1.693,1.65,1.65,1.65,1.65,1.7011,1.7237,1.7237,1.7237,1.7237,1.72,1.6701,1.65,1.65,1.65,1.65,1.6552,1.6993,1.7146,1.7209,1.7666,1.7887,1.8046,1.8574,0.0,0.0,0.0,0.0,1.8852,1.8732,1.8311,1.7848,1.7727,1.8192,1.9001,2.021,2.0598,2.0838,2.1395,2.162,2.1695,2.1695,2.2981,2.3932,2.337,2.2868,2.2313,2.1635,2.1066,2.0658,2.0539,2.0049,1.9708,1.9708,1.9708,1.9708,1.9708,2.0318,2.0932,0.0,0.0,2.2927,2.3415,2.3535,2.3864,2.441,2.4014,2.4313,2.5435,2.4993,2.5053,2.5615,2.5472,2.5435,2.5442,2.6123,2.6806,2.7435,2.754,2.7914,2.8382,2.7839,2.7929,2.8427,2.8427,2.8906,2.9666,3.0163,3.0492,3.0687,0.0,0.0,0.0,0.0,0.0,0.0,0.0,0.0,0.0,0.0,1.9406,1.953,1.9062,1.9424,1.9479,1.8949,1.8893,1.8669,1.8145,0.0,0.0,1.7422,1.7415,1.7146,1.6616,1.6616,1.6573,1.65,1.65,1.65,1.65,1.6575,1.6613,1.6613,1.6613,1.6613,1.66,1.6525,1.65,1.65,1.65,1.65,1.6522,1.6573,1.6616,1.6616,1.6701,1.7013,1.7483,1.8027,1.8516,0.0,0.0,0.0,1.9453,1.8867,1.8642,1.8448,1.7863,1.8192,1.8882,1.963,2.0273,2.0718,2.0808,2.1291,2.1695,2.1695,2.1904,2.2054,2.1964,2.1889,2.1605,2.0946,2.0763,2.0513,1.9932,1.9768,1.9708,1.9708,1.9708,1.9708,1.9708,2.0318,2.0733,0.0,2.1999,2.2733,2.2823,2.331,2.364,2.3729,2.4201,2.4545,2.4739,2.5217,2.5501,2.56,2.5008,2.4739,2.4769,2.5435,2.6093,2.6776,2.7345,2.7645,2.772,2.763,2.7645,2.7735,2.7735,2.8498,2.9621,2.9696,3.0417,3.1376,0.0,0.0,0.0,0.0,0.0,0.0,0.0,0.0,0.0,0.0,0.0,1.9281,1.935,1.9024,1.8836,1.8893,1.8631,1.8361,1.8125,1.8106,1.7867,1.7333,1.7312,1.7188,1.6951,1.6659,1.6659,1.6951,1.6659,1.65,1.65,1.65,1.65,1.65,1.65,1.65,1.65,1.65,1.65,1.65,1.65,1.65,1.65,1.65,1.65,1.65,1.65,1.6659,1.693,1.7463,1.8007,1.8554,1.908,0.0,0.0,0.0,1.9256,1.9196,1.8897,1.8762,1.8867,1.9525,1.9914,2.0139,2.0139,2.0363,2.0572,2.0572,2.0572,2.0677,2.1081,2.1141,2.0917,2.0243,2.0139,2.0034,1.9753,1.9708,1.9708,1.9708,1.9708,1.9708,1.9708,1.9959,2.0303,0.0,2.159,2.2298,2.2673,2.3266,2.3595,2.3595,2.3894,2.4036,2.4036,2.4343,2.4477,2.4477,2.4193,2.4036,2.4066,2.5136,2.5974,2.6632,2.7315,2.76,2.76,2.76,2.76,2.76,2.76,2.8423,2.9606,2.9606,3.0417,3.1511,0.0,0.0,0.0,0.0,0.0,0.0,0.0,0.0,0.0,0.0,0.0,1.9262,1.9657,0.0,0.0,0.0,1.8535,1.8263,1.8125,1.8106,1.7927,1.7524,1.7504,1.7442,1.7312,1.7034,1.6972,1.7097,1.6837,1.6637,1.65,1.65,1.65,1.65,1.65,1.65,1.65,1.65,1.65,1.65,1.65,1.65,1.65,1.65,1.65,1.65,1.65,1.65,1.6573,1.7105,1.7565,1.8007,1.8688,1.9169,0.0,0.0,0.0,1.9465,1.9648,1.9211,1.8867,1.9525,1.9573,1.9498,1.9663,1.9708,1.9708,1.9708,1.9708,1.9839,2.0363,2.0453,2.0288,1.9783,1.9708,1.9708,1.9708,1.9708,1.9708,1.9708,1.9708,1.9708,1.9708,1.9708,1.9899,0.0,2.1066,2.1665,2.2179,2.2772,2.3116,2.3116,2.3281,2.337,2.337,2.3684,2.3774,2.3595,2.3774,2.3759,2.3655,2.5001,2.5869,2.6378,2.724,2.76,2.76,2.76,2.76,2.76,2.76,2.8423,2.9606,2.9606,3.0417,3.1511,0.0,0.0,0.0,0.0,0.0,0.0,0.0,0.0,0.0,0.0,0.0,1.9672,1.9708,1.9639,1.9424,1.8949,1.8874,1.8631,1.8145,1.8106,1.8086,1.8066,1.8066,0.0,1.7312,1.7767,1.7524,1.6531,1.7013,1.6993,1.65,1.65,1.65,1.65,1.65,1.65,1.65,1.65,1.65,1.65,1.65,1.65,1.65,1.65,1.65,1.65,1.65,1.65,1.6573,1.7105,1.7333,1.7524,1.8574,1.893,1.8908,0.0,0.0,0.0,1.9528,1.9211,1.8867,1.9525,1.9211,1.8912,1.9558,1.9708,1.9708,1.9708,1.9708,1.9708,1.9753,1.9753,1.9753,1.9708,1.9708,1.9708,1.9708,1.9708,1.9708,1.9708,1.9708,1.9708,1.9708,1.9708,1.9708,0.0,2.0378,2.0763,2.0793,2.144,2.1799,2.1799,2.2418,2.2748,2.2748,2.3954,2.4231,2.361,2.4231,2.4216,2.3655,2.5001,2.563,2.5734,2.7046,2.76,2.76,2.76,2.76,2.76,2.76,2.8423,2.9606,2.9606,3.0417,3.1511,0.0,0.0,0.0,0.0,0.0,0.0,0.0,0.0,0.0,0.0,0.0,0.0,0.0,1.9095,1.8727,1.8893,1.8893,1.8968,1.9132,1.9132,1.8968,1.8631,1.8612,0.0,1.8341,1.8185,1.8086,1.8046,1.7544,1.7188,1.7013,1.6659,1.65,1.65,1.65,1.65,1.65,1.65,1.6713,1.7036,1.6672,1.6735,1.7036,1.666,1.65,1.65,1.65,1.65,1.6543,1.671,1.7229,1.7887,1.8283,1.8855,1.9398,1.937,1.9348,1.939,1.9633,1.9528,1.9286,1.9106,1.9196,1.9286,1.9091,1.9393,1.9708,1.9708,1.9708,1.9708,1.9708,1.9708,1.9708,1.9708,1.9708,1.9708,1.9708,1.9708,1.9708,1.9708,1.9708,1.9708,1.9708,1.9708,1.9708,0.0,0.0,2.0703,2.0703,2.1335,2.1695,2.1695,2.1919,2.2269,2.2703,2.3535,2.3849,2.3595,2.3849,2.3834,2.3625,2.453,2.5187,2.5659,2.6557,2.721,2.76,2.76,2.76,2.76,2.76,2.8169,2.8951,2.8951,2.952,3.0342,0.0,0.0,0.0,0.0,0.0,1.9708,1.9708,0.0,0.0,0.0,0.0,0.0,0.0,0.0,1.8779,1.9151,1.9169,1.9332,1.969,1.9708,1.9548,1.9188,1.9169,0.0,1.8893,1.8727,1.8554,1.8361,1.7827,1.7394,1.7013,1.668,1.65,1.65,1.65,1.65,1.65,1.6722,1.7024,1.736,1.6748,1.6861,1.7335,1.6735,1.65,1.65,1.65,1.65,1.65,1.65,1.6972,1.7626,1.7987,1.8836,1.9708,1.9708,1.9708,1.9708,1.9708,1.9543,1.9301,1.9091,1.9031,1.9031,1.9031,1.9214,1.9438,1.9648,1.9708,1.9708,1.9708,1.9708,1.9708,1.9708,1.9708,1.9708,1.9708,1.9708,1.9708,1.9708,1.9708,1.9708,1.9708,1.9708,0.0,0.0,0.0,0.0,2.0363,2.0782,2.1126,2.1365,2.1575,2.2009,2.2688,2.3295,2.3595,2.3595,2.3595,2.3595,2.3625,2.4291,2.4963,2.5644,2.6303,2.6986,2.76,2.76,2.76,2.76,2.76,2.8019,2.8622,2.8846,2.9232,2.9726,0.0,1.8762,1.9678,1.9708,1.9708,1.9708,1.9708,1.9708,1.9708,1.9708,0.0,0.0,0.0,0.0,0.0,1.9708,1.9708,1.9708,1.9708,1.9708,1.9708,1.9708,1.9708,0.0,1.893,1.9424,1.893,1.7374,1.7867,1.7565,1.6552,1.6522,1.65,1.65,1.6513,1.6525,1.655,1.7137,1.741,1.7373,1.6798,1.6911,1.7373,1.676,1.6525,1.6525,1.65,1.65,1.6525,1.65,1.6522,1.671,1.7767,1.8836,1.9708,1.969,1.969,1.9708,0.0,0.0,0.0,1.9513,1.8717,1.8087,1.9346,1.9151,1.8882,1.9543,1.9678,1.9678,1.9708,1.9708,1.9708,1.9708,1.9708,1.9708,1.9708,1.9708,1.9708,1.9708,1.9708,1.9708,1.9708,1.9708,0.0,0.0,1.9708,1.9708,1.9708,1.9708,1.9989,2.0643,2.1335,2.1994,2.2658,2.3302,2.3595,2.3595,2.3625,2.3625,2.3625,2.4291,2.4948,2.5615,2.6273,2.6956,2.757,2.7585,2.76,2.76,2.76,2.8004,2.8652,2.928,2.9547,2.9726,1.7593,1.8386,1.9121,1.9618,1.9708,1.9708,1.9708,0.0,0.0,0.0,0.0,0.0,1.9708,1.9708,1.9708,1.9708,1.9708,1.9708,1.9708,1.9708,1.9708,1.9708,1.9708,1.9621,1.9479,1.9621,1.9479,1.9043,1.8419,1.7947,1.7646,1.6858,1.65,1.6513,1.6961,1.7137,1.7149,1.7335,1.7614,1.7965,1.7802,1.784,1.7915,1.735,1.7137,1.7087,1.6672,1.6785,1.7074,1.666,1.6752,1.7188,1.7887,1.8836,1.9621,1.9244,1.9406,1.9708,1.9708,0.0,0.0,0.0,0.0,0.0,1.8386,1.8476,1.8747,1.8942,1.8972,1.9121,1.9618,1.9708,1.9708,1.9708,1.9708,1.9708,1.9708,1.9708,1.9708,1.9708,1.9708,1.9708,1.9708,0.0,0.0,0.0,1.9708,1.9708,1.9708,1.9708,1.9798,1.9959,2.1096,2.1784,2.1964,2.3056,2.3595,2.361,2.4081,2.4066,2.3625,2.4291,2.4709,2.4903,2.56,2.6258,2.6926,2.7405,2.76,2.76,2.76,2.7705,2.7899,2.8079,2.8154,2.8349,1.7997,1.8672,1.9226,1.9633,1.9708,1.9708,1.9708,0.0,0.0,0.0,0.0,0.0,1.9708,1.9708,1.9708,1.9708,1.9708,1.9708,1.9708,1.9708,1.9708,1.9708,1.9708,1.9708,1.9708,1.9708,1.9584,1.9369,1.8727,1.8204,1.7747,1.7126,1.671,1.6525,1.7124,1.741,1.7436,1.7877,1.8129,1.8191,1.7953,1.7865,1.7827,1.7524,1.7237,1.7036,1.7174,1.7137,1.7011,1.6911,1.7051,1.7394,1.7927,1.8669,1.935,1.9262,1.946,1.9708,1.9708,1.9708,1.9618,1.9211,0.0,0.0,1.8657,1.8627,1.8702,1.8702,1.8702,1.8822,1.9211,1.9446,1.9661,1.9917,2.0104,2.012,1.9747,1.9839,1.9947,1.9947,1.98,1.9764,1.9929,1.98,1.9708,1.9708,1.9708,1.9708,1.9708,1.9708,1.9708,1.9708,2.0991,2.1695,2.1695,2.2951,2.3595,2.361,2.4276,2.4246,2.3625,2.4575,2.4859,2.4649,2.5615,2.6243,2.6632,2.733,2.76,2.76,2.76,2.76,2.766,2.8229,2.8259,2.8233,0.0,1.9226,1.9708,1.9708,1.9708,1.9708,0.0,0.0,0.0,0.0,1.9708,1.9708,1.9708,1.9708,1.9708,1.9708,1.9708,1.9708,1.9708,1.9708,0.0,0.0,0.0,0.0,1.9708,1.9708,1.946,1.8987,1.893,1.838,1.7394,1.7333,1.7013,1.6525,1.7049,1.7373,1.7561,1.8518,1.8669,1.8254,1.7815,1.7637,1.7574,1.7524,1.7149,1.6801,1.7702,1.7428,1.6751,1.7247,1.7436,1.7546,1.7828,1.842,1.908,1.9431,1.967,1.9781,1.972,1.9753,1.9798,1.9723,1.9241,0.0,1.9465,1.9121,1.8687,1.8612,1.8597,1.8597,1.8633,1.9001,1.9479,2.0148,2.0637,2.0701,1.9962,2.0141,2.0382,2.0382,2.007,1.9962,2.0263,1.9965,1.9747,1.9693,1.9708,1.9708,1.9708,1.9708,1.9708,1.9708,2.0991,2.1695,2.1695,2.2951,2.3595,2.361,2.435,2.435,2.3759,2.5106,2.5337,2.4784,2.6048,2.6587,2.6632,2.733,2.76,2.76,2.76,2.76,2.775,2.9022,2.9101,2.8876,1.8672,1.9226,1.9708,1.9708,1.9708,1.9708,0.0,0.0,1.9708,1.9708,1.9708,1.9708,1.9708,1.9708,1.9708,1.9708,1.9708,1.9708,1.9708,1.9708,0.0,0.0,0.0,0.0,1.9708,1.9708,1.9639,1.9548,1.9114,1.8574,1.7927,1.7504,1.7013,1.65,1.6613,1.7187,1.8053,1.8279,1.8531,1.887,1.9208,1.9083,1.8632,1.8216,1.7978,1.779,1.7064,1.7265,1.7827,1.7524,1.7962,1.8446,1.7205,1.8108,1.9453,1.8655,1.9401,2.0389,1.9849,2.0094,2.0378,1.9842,1.9603,0.0,1.8986,1.8792,1.8553,1.8012,1.7908,1.7976,1.8251,1.8377,1.8765,1.9799,2.0326,2.0641,2.0734,2.0813,2.0862,2.0862,2.0797,2.0632,2.0331,2.0229,2.0052,1.9711,1.9708,1.9708,1.9708,1.9708,1.9708,1.9708,2.0991,2.1695,2.1695,2.2951,2.3595,2.361,2.4837,2.5053,2.4455,2.5794,2.6033,2.5442,2.6243,2.6587,2.6632,2.733,2.76,2.76,2.76,2.76,2.7705,2.8487,2.8712,2.8801,1.9136,1.9465,1.9708,1.9708,0.0,0.0,0.0,0.0,1.9708,1.9708,1.9708,1.9708,1.9708,1.9708,1.9708,1.9708,1.9708,0.0,0.0,0.0,0.0,0.0,0.0,0.0,0.0,1.9708,1.9566,1.9299,1.9299,1.8746,1.7706,1.7706,1.7271,1.65,1.6823,1.7413,1.8229,1.8481,1.8907,1.9384,1.9384,1.907,1.8556,1.8304,1.8028,1.7752,1.7463,1.7727,1.8166,1.789,1.7984,1.8148,1.7852,1.8533,1.937,1.9005,1.999,2.1033,2.0378,2.0453,2.0613,2.0288,1.9962,0.0,0.0,1.9196,1.9016,1.8326,1.839,1.8603,1.8764,1.9136,1.9689,2.0613,2.1116,2.1335,2.113,2.1217,2.1291,2.1291,2.1118,2.091,2.0666,2.0649,2.0482,2.0035,2.0,2.0061,2.0202,2.0198,2.0348,2.0696,2.1684,2.2209,2.2209,2.3131,2.3595,2.361,2.4971,2.5247,2.4664,2.6333,2.6542,2.5659,2.6647,2.6926,2.6632,2.733,2.76,2.76,2.76,2.76,2.772,2.8738,2.9086,2.928,1.9588,1.9708,1.9708,1.9708,0.0,0.0,0.0,0.0,1.9708,1.9708,1.9689,1.97,1.9705,1.9704,1.97,1.969,1.9708,1.9708,1.9708,1.9708,0.0,0.0,0.0,1.9708,0.0,0.0,1.9479,1.9043,1.9479,1.893,1.7463,1.8007,1.7626,1.6534,1.7109,1.769,1.8242,1.8657,1.9233,1.9761,1.9321,1.8882,1.8505,1.8405,1.8091,1.7752,1.8204,1.8355,1.8342,1.8242,1.7978,1.7806,1.8364,1.8786,1.9111,1.9323,2.0498,2.1562,2.087,2.0882,2.1017,0.0,0.0,2.0022,0.0,0.0,0.0,1.8867,1.9058,1.9387,1.9327,0.0,0.0,2.1189,0.0,0.0,0.0,2.1504,0.0,2.1551,2.1234,0.0,2.1118,2.0959,2.0682,2.0227,2.0177,2.0279,2.0501,2.0628,2.0942,2.1485,2.2283,2.2703,2.2703,2.343,2.3789,2.3819,2.5151,2.5501,2.5038,2.6806,2.7016,2.6048,2.7285,2.742,2.6826,2.7525,2.772,2.76,2.76,2.76,2.7764,2.9112,2.9606,2.9786,1.9693,1.9708,1.9708,1.9708,0.0,0.0,0.0,0.0,1.9708,1.9708,1.9704,1.9701,1.9713,1.9685,1.9706,1.9698,1.9708,1.9708,1.9708,1.9708,1.9708,0.0,0.0,0.0,1.9708,0.0,1.9672,1.9603,1.9672,1.9132,1.8027,1.8554,1.7987,1.6522,1.7057,1.7639,1.8204,1.8279,1.8882,1.9798,1.9736,1.9673,1.9572,1.9083,1.887,1.882,1.8895,1.8907,1.8845,0.0,1.8493,1.8593,0.0,1.7814,1.8924,1.8419,1.9892,2.1555,0.0,0.0,0.0,0.0,2.1096,0.0,1.9977,0.0,2.0243,1.8972,0.0,1.9311,1.9017,0.0,0.0,0.0,0.0,0.0,2.1207,2.1778,2.1987,2.1326,2.1214,0.0,0.0,2.083,2.021,1.98,1.9764,1.9792,1.9813,2.0378,2.0733,2.0808,2.2044,2.2703,2.2703,2.3894,2.4485,2.45,2.5854,2.6437,2.6393,2.7225,2.751,2.7405,2.8143,2.8124,2.754,2.8203,2.8154,2.76,2.76,2.76,2.7764,2.9112,2.9606,2.9786,1.9708,1.9708,1.9708,1.9708,0.0,0.0,0.0,0.0,1.9708,1.9708,2.0034,2.0125,1.9731,2.0393,2.0543,1.9779,2.0049,2.0109,1.9738,2.0064,2.0109,1.9723,0.0,2.0501,0.0,0.0,0.0,1.9811,1.9741,1.9564,1.926,1.9011,1.8582,1.7977,1.7519,1.78,1.8647,1.8333,1.8832,1.9798,1.9798,1.9798,1.9748,1.9196,1.8807,1.8569,1.8895,1.9008,1.9008,0.0,1.8869,0.0,0.0,0.0,0.0,1.8997,0.0,0.0,0.0,0.0,0.0,0.0,0.0,0.0,1.9932,0.0,1.9959,0.0,0.0,0.0,0.0,0.0,0.0,0.0,2.1432,0.0,0.0,0.0,2.1701,0.0,0.0,0.0,0.0,0.0,0.0,0.0,2.0403,2.0688,2.0846,2.1505,2.2024,2.2368,2.331,2.3804,2.3804,2.4709,2.5173,2.5187,2.6153,2.6587,2.6617,2.73,2.76,2.7615,2.7899,2.7869,2.7615,2.7899,2.7854,2.76,2.76,2.76,2.7764,2.9112,2.9606,2.9786,1.9708,1.9708,1.9708,1.9708,1.9708,0.0,0.0,0.0,2.0262,2.0262,2.0659,2.0709,2.0045,2.102,2.1159,1.9824,2.0318,2.0423,1.9753,2.0333,2.0407,1.9738,2.0989,2.1172,2.0004,0.0,0.0,2.0118,2.0209,2.0182,2.0056,1.9598,1.9299,1.9058,1.8139,1.8203,1.8979,1.8579,1.8957,1.9798,1.9798,1.9798,1.9761,1.9359,1.8995,1.8694,1.907,1.9221,1.9259,1.951,1.9045,0.0,1.9369,0.0,1.8688,0.0,0.0,0.0,2.1771,0.0,0.0,0.0,0.0,0.0,0.0,0.0,0.0,0.0,0.0,0.0,0.0,0.0,2.1502,2.1168,0.0,2.1998,0.0,2.1292,0.0,0.0,0.0,0.0,0.0,0.0,0.0,2.0452,2.086,2.1291,2.1684,2.2343,2.2897,2.3325,2.4156,2.4605,2.4605,2.5442,2.5869,2.5884,2.6542,2.6881,2.6896,2.7375,2.76,2.76,2.7794,2.7764,2.76,2.7809,2.7764,2.76,2.76,2.76,2.7764,2.9112,2.9711,2.9998,1.9708,1.9708,1.9708,1.9708,1.9708,1.9914,0.0,0.0,2.1635,2.1635,2.1643,2.1409,2.0735,2.1286,2.1154,1.9818,2.0318,2.0423,1.9753,2.0333,2.0395,1.9721,2.0976,2.1375,2.0686,2.1325,0.0,2.0669,2.1316,2.105,1.9915,2.041,2.0094,1.9086,1.8914,1.8922,1.9006,1.8975,1.9284,1.9798,1.9798,1.9798,1.9798,0.0,1.9761,1.9748,1.9773,0.0,0.0,1.9196,1.9008,0.0,0.0,0.0,0.0,0.0,0.0,0.0,0.0,0.0,0.0,2.1704,0.0,0.0,0.0,0.0,2.1261,0.0,0.0,0.0,0.0,0.0,2.1248,2.0126,2.1275,0.0,0.0,0.0,0.0,0.0,0.0,0.0,0.0,0.0,2.0914,2.0693,2.0707,2.1006,2.1665,2.2343,2.2703,2.2733,2.3954,2.4605,2.4605,2.5914,2.6581,2.6572,2.7255,2.757,2.757,2.7585,2.76,2.763,2.8278,2.8188,2.7645,2.8293,2.8173,2.76,2.76,2.76,2.7764,2.9112,2.9968,3.0567,1.9708,1.9708,1.9708,1.9708,1.9708,1.9932,2.0598,2.1276,2.1695,2.1695,2.2084,2.2117,2.1436,2.2316,2.2443,2.1137,2.1231,2.1081,2.0408,2.0991,2.1059,2.0386,2.2042,2.2465,2.1399,2.2017,2.2254,2.2009,2.1799,2.1928,2.2327,2.1675,2.1396,2.1445,2.0602,2.0208,2.0179,1.9811,1.9719,1.9824,2.0283,2.0207,1.9798,0.0,1.9798,1.9798,1.9798,2.0049,0.0,1.9723,1.9547,1.9522,1.9571,1.933,1.9198,1.9938,2.0818,0.0,0.0,0.0,2.2845,2.2461,0.0,0.0,0.0,0.0,0.0,0.0,0.0,0.0,0.0,0.0,2.0604,2.0236,2.1098,2.168,0.0,0.0,0.0,0.0,2.1674,2.1553,0.0,0.0,0.0,2.07,2.1111,2.165,2.2328,2.2972,2.3295,2.3295,2.456,2.5247,2.5247,2.6572,2.727,2.727,2.748,2.76,2.76,2.76,2.76,2.763,2.8308,2.8472,2.8308,2.8981,2.8861,2.8248,2.8248,2.7958,2.7703,2.9074,2.9741,3.0058,1.9708,1.9708,1.9708,1.9708,2.0079,2.0468,2.0658,0.0,2.2293,2.2069,2.2628,2.2778,2.2134,0.0,2.3086,0.0,2.1924,2.1769,2.1111,2.168,0.0,2.1079,2.2697,2.2995,2.1733,0.0,2.2808,2.2343,2.2353,2.2682,2.3251,2.2428,2.2298,2.2652,2.1651,2.1155,2.1094,2.0737,2.0547,2.0521,2.0942,2.0733,0.0,0.0,2.0003,1.9798,0.0,2.0201,2.0603,1.9999,1.9936,2.0127,2.0144,2.0119,2.0162,2.0644,2.1428,2.2165,2.2298,2.2777,0.0,2.3076,2.2703,0.0,2.1261,0.0,2.1156,0.0,0.0,0.0,0.0,0.0,2.0323,2.0426,2.1086,2.1658,0.0,2.2557,0.0,2.2298,2.1868,2.143,0.0,0.0,2.056,2.1209,2.1538,2.2084,0.0,0.0,2.3595,2.3595,2.4911,2.5615,2.5615,2.6941,2.76,2.76,2.76,2.76,2.76,2.76,2.7735,2.7989,2.8412,2.8742,2.8966,2.9146,2.8981,2.8577,2.8323,2.7943,2.7662,2.8746,2.9238,2.9507,1.9708,1.9738,1.9768,1.9798,2.0891,2.153,2.0897,0.0,2.337,2.2778,2.3242,2.337,2.2763,2.3236,2.3116,2.1904,2.2358,2.2433,2.1784,2.2358,0.0,0.0,2.2935,2.3023,2.1773,0.0,0.0,2.1739,2.2951,2.3287,2.2748,2.2748,2.2748,2.2727,2.2076,2.178,2.1757,2.1755,2.1748,2.1752,2.1734,2.1431,2.0924,2.0947,2.0537,1.9925,1.9887,2.0264,2.0679,2.0049,2.0251,2.0735,2.0781,2.1243,2.1884,2.2442,2.2674,2.2842,2.3364,2.316,2.2937,2.3504,0.0,0.0,0.0,0.0,2.2418,0.0,0.0,0.0,0.0,0.0,0.0,2.0659,2.1204,2.1754,2.2216,2.3519,2.4176,2.3469,2.2355,2.1481,2.1135,2.0628,2.0879,2.2231,2.1935,2.2263,0.0,0.0,2.358,2.3655,2.4926,2.563,2.5659,2.6956,2.76,2.76,2.76,2.76,2.76,2.76,2.7959,2.8547,2.8622,2.9011,2.9562,2.8981,2.8727,2.8622,2.7959,2.7664,2.7686,2.8145,2.86,2.9002,1.9708,2.0094,2.0602,2.1096,2.1874,2.2388,0.0,0.0,0.0,0.0,2.3242,2.337,2.2763,2.3236,2.3475,2.3131,2.2868,0.0,0.0,0.0,0.0,2.2443,2.3202,2.3246,2.2458,2.2754,2.2778,2.2448,2.2778,2.3092,2.3355,2.3355,2.3355,2.3355,2.319,2.2864,2.2441,2.2426,2.2452,2.2432,2.2437,2.2638,2.2961,0.0,2.2517,2.1759,2.0816,2.1094,2.1744,2.0805,2.0842,2.1234,2.0855,2.1147,2.1771,2.2404,2.3611,2.4594,2.38,2.4547,2.5355,2.4505,2.4299,2.4261,0.0,0.0,0.0,0.0,0.0,0.0,0.0,0.0,0.0,2.0677,2.107,2.1542,2.2005,2.2831,2.3316,2.3121,2.2514,2.2244,2.2524,2.136,2.1148,2.2511,2.2044,0.0,0.0,0.0,0.0,2.4306,2.5158,2.5839,2.6333,2.718,2.76,2.76,2.76,2.76,2.76,2.76,2.769,2.7914,2.8918,2.9457,2.9666,3.0447,3.0449,2.9953,2.9337,2.8678,2.813,2.8267,2.86,2.9002,1.9708,2.0468,2.135,2.2009,0.0,0.0,2.2358,2.3011,0.0,2.2778,2.3002,0.0,2.2733,2.3002,2.3212,2.3212,2.3152,0.0,2.3092,0.0,0.0,2.3092,2.3415,2.331,2.2703,2.2703,0.0,2.2703,2.2703,2.3017,2.3595,2.3595,2.3595,2.3595,2.3595,2.3421,2.3105,2.3421,2.3537,2.3559,2.3853,2.4043,0.0,2.4143,2.3652,2.2854,2.2145,2.2262,2.2603,2.1443,2.1629,2.2251,2.1712,2.1928,2.2458,2.2828,2.4135,2.5242,2.4206,2.5229,2.6369,2.5594,2.5671,2.5764,2.5173,2.5038,2.4664,0.0,0.0,0.0,0.0,0.0,0.0,2.1379,2.186,2.2274,2.242,2.3319,2.3845,2.3524,2.307,0.0,0.0,0.0,2.1519,2.246,0.0,0.0,0.0,0.0,0.0,2.4575,2.5516,2.6363,2.7031,2.7405,2.775,2.8034,2.775,2.76,2.76,2.7899,2.8199,2.8528,2.9535,3.0163,3.0462,3.0883,3.0823,3.0447,2.9846,2.9247,2.8742,2.8742,2.884,2.9002,1.9932,2.0961,2.2044,2.2703,0.0,0.0,0.0,2.2817,0.0,2.2658,0.0,2.2568,2.2568,2.2643,2.2733,2.2808,2.3295,2.3595,2.3595,2.3595,2.3595,2.3595,2.3595,2.331,2.2703,2.2703,2.2703,0.0,0.0,2.3017,2.3595,2.3595,2.3595,2.3595,2.3595,2.3655,2.3774,2.435,2.4709,2.4903,2.5397,2.5405,2.5072,2.4985,2.446,2.3793,2.3793,2.3696,2.3338,2.215,2.2461,2.3317,2.2842,2.3027,2.3423,2.3613,2.4558,2.5411,2.4829,2.5629,2.6643,2.6609,2.7091,2.73,2.6123,2.5869,2.548,2.4148,2.343,2.3197,0.0,0.0,0.0,2.2191,0.0,0.0,0.0,2.4309,2.489,2.4246,2.3819,0.0,0.0,0.0,0.0,0.0,0.0,0.0,0.0,0.0,0.0,2.4709,2.5869,2.6811,2.7585,0.0,2.7989,2.8457,2.7974,2.7735,2.775,2.8323,2.8906,2.9517,3.0193,3.0806,3.1212,3.0806,3.0582,3.0462,3.0013,2.9699,2.945,2.958,2.9419,2.916,2.1126,2.1984,2.2718,2.3325,0.0,2.352,2.3295,2.3032,2.2628,2.1949,2.1874,2.1874,2.1874,2.2373,2.2897,2.3385,2.3535,0.0,0.0,0.0,0.0,2.3595,2.3595,2.331,2.2703,2.2703,2.2703,0.0,0.0,0.0,0.0,2.3595,2.3595,2.3595,2.3595,2.3924,2.4425,2.456,0.0,2.6213,2.5779,2.621,2.7031,2.6495,2.6134,2.5952,2.5952,2.5177,2.4041,2.3295,2.3219,2.3396,2.3291,2.333,2.3613,2.4722,2.5644,2.6295,2.6167,2.6765,2.7276,2.6669,2.7063,2.754,2.73,2.7255,2.6881,2.554,2.5181,2.4792,2.3789,0.0,0.0,0.0,0.0,0.0,0.0,0.0,2.4653,2.4532,2.4445,2.422,0.0,0.0,0.0,0.0,0.0,0.0,0.0,0.0,0.0,0.0,2.5659,0.0,0.0,0.0,2.8203,2.7779,2.8203,2.8412,2.8427,2.8547,2.8667,2.8831,2.9998,3.0283,2.9998,3.0928,3.0987,3.0552,3.0972,3.0826,3.037,3.0906,3.0675,2.9981,2.2029,2.2478,2.2897,2.349,0.0,0.0,0.0,2.3092,2.2703,2.2682,2.2113,2.1829,2.2179,2.2508,2.2823,2.3122,2.3415,2.3595,2.3595,2.3595,2.3595,2.3595,2.3939,2.3819,2.3176,2.3182,2.3182,2.3182,0.0,0.0,0.0,0.0,2.3595,2.361,2.3947,2.4291,2.4649,0.0,0.0,2.6587,2.6641,2.7031,2.7555,2.724,2.6872,2.651,2.651,2.6041,2.5329,2.4667,2.4182,2.3929,2.4322,2.39,2.3537,2.4968,2.5646,2.5943,2.5974,2.677,2.7434,2.6739,2.7079,2.76,2.76,2.76,2.7315,2.6318,2.5839,2.5196,2.3849,2.3595,0.0,0.0,0.0,0.0,0.0,0.0,2.4993,2.4649,2.4605,2.4335,0.0,0.0,0.0,0.0,0.0,0.0,0.0,0.0,0.0,0.0,0.0,0.0,0.0,0.0,0.0,2.8648,2.8951,2.8742,2.8124,2.9131,2.922,2.8697,3.03,3.0672,3.0133,3.1092,3.1316,3.1047,3.1376,3.1301,3.1047,3.1376,3.1026,3.0338,2.2598,2.2808,2.3047,0.0,2.3595,2.3595,2.3595,2.3092,2.2868,2.3362,2.2413,2.1969,2.2628,2.2703,2.2748,2.2882,2.3325,2.3595,2.3595,2.3595,2.3595,2.3595,2.4231,2.435,2.3819,2.3954,2.3969,0.0,0.0,0.0,0.0,0.0,0.0,0.0,0.0,0.0,0.0,0.0,2.6677,2.6866,2.739,2.76,2.76,2.76,2.7255,2.6747,2.6747,2.6642,2.6457,2.6,2.537,2.4879,2.5453,2.4796,2.4063,2.5287,2.5728,2.5887,2.594,2.6661,2.73,2.6926,2.7106,2.742,2.757,2.76,2.7375,2.6566,2.5734,2.4822,2.3625,2.3744,0.0,0.0,0.0,0.0,0.0,0.0,2.5397,2.4874,2.4694,2.4335,2.367,0.0,0.0,0.0,0.0,0.0,0.0,0.0,0.0,0.0,0.0,2.7959,2.9172,0.0,2.919,0.0,2.9714,2.9172,2.8079,2.9744,2.9804,2.8712,3.0658,3.1197,3.0761,3.1271,3.1511,3.1511,3.1511,3.1511,3.1511,3.1511,3.1066,3.0436,0.0,0.0,0.0,0.0,0.0,0.0,2.3595,2.3092,2.2718,2.2778,2.2164,2.1969,2.2628,2.2703,2.2927,2.346,2.3565,2.3595,2.3595,2.3595,2.3595,2.3595,2.4231,2.4575,2.4515,2.5098,2.5136,0.0,0.0,2.4455,0.0,0.0,0.0,0.0,0.0,0.0,0.0,2.6542,2.6956,2.751,2.757,2.76,2.76,2.76,2.7575,2.7484,2.7484,2.706,2.659,2.7188,2.6904,2.631,2.6377,2.6283,2.6203,2.6336,2.6878,2.7393,2.7409,2.7056,2.6811,2.7375,2.7106,2.6866,2.7465,2.76,2.724,2.5959,2.4687,2.358,2.2912,2.4223,2.5217,0.0,0.0,0.0,0.0,0.0,2.5585,2.5501,2.4963,2.4335,2.367,2.3595,0.0,0.0,2.4066,0.0,0.0,0.0,0.0,2.5585,0.0,2.7061,2.7779,2.946,3.0073,2.9621,3.0148,3.0058,2.9442,3.0163,2.9804,2.8712,3.0658,3.1466,3.1406,3.1481,3.1511,3.1511,3.1511,3.1511,3.1511,3.1511,3.0984,3.0212,0.0,0.0,0.0,0.0,0.0,0.0,0.0,2.3385,2.3236,2.3236,2.2703,2.2538,2.3182,2.3236,2.3325,2.358,2.3595,2.3595,2.3595,2.3595,2.3595,2.3595,2.4619,2.5008,2.4619,2.5659,2.5869,0.0,0.0,0.0,0.0,0.0,0.0,0.0,0.0,2.6093,2.6641,2.7031,2.7345,2.76,2.76,2.76,2.76,2.76,2.76,2.76,2.76,2.7408,2.7203,2.7484,2.6811,2.5933,2.6363,2.6203,2.5933,2.6363,2.6721,2.6946,2.6981,2.7106,2.7165,2.7046,2.7106,2.727,2.754,2.76,2.745,2.6926,2.6033,2.5196,2.4552,2.5076,2.5779,0.0,0.0,0.0,0.0,0.0,0.0,2.6303,0.0,2.4769,2.3699,2.3595,0.0,0.0,0.0,0.0,0.0,0.0,0.0,2.4993,0.0,2.7919,2.8188,2.9729,3.0372,3.0148,3.0806,3.0582,2.9636,3.0657,3.0823,3.036,3.0733,3.1122,3.1511,3.1511,3.1511,3.1511,3.1511,3.1511,3.1511,3.1511,3.1307,3.0837,2.3595,0.0,2.3595,0.0,2.3595,2.3595,2.3595,2.3595,2.3595,2.3595,2.3242,2.3137,2.355,2.3595,2.3595,2.3595,2.3595,2.3595,2.3595,2.3595,2.3684,2.3894,2.5001,0.0,2.5187,2.6303,2.6581,2.5899,2.5899,0.0,0.0,0.0,0.0,0.0,2.6378,2.6692,2.6941,2.7405,2.76,2.76,2.76,2.76,2.76,2.76,2.76,2.76,2.76,2.76,2.76,2.76,2.6916,2.6135,2.6654,2.6469,2.6162,2.6654,2.6826,2.6828,2.6867,2.7106,2.724,2.6971,2.7106,2.736,2.7555,2.76,2.754,2.7345,2.6752,2.6153,2.5689,2.5764,2.6198,2.7151,0.0,0.0,0.0,2.8427,0.0,2.6707,2.6019,2.5241,2.4283,2.4193,0.0,0.0,0.0,0.0,0.0,0.0,0.0,0.0,0.0,0.0,0.0,3.0163,3.0806,3.0806,3.1271,3.0913,2.9879,3.0627,3.1137,3.1466,3.0806,3.0896,3.1511,3.1511,3.1511,3.1511,3.1511,3.1351,3.1161,3.1161,3.097,3.0554,2.3595,2.3595,2.3595,2.3595,2.3595,2.3595,2.3595,2.3595,2.3595,2.3595,2.3595,2.3595,2.3595,2.3595,2.3595,2.3595,2.3595,2.3595,2.3595,2.3595,2.3909,0.0,0.0,2.5914,2.6557,2.724,2.727,2.6572,0.0,0.0,2.6572,0.0,2.6572,2.6572,2.6587,2.6971,2.7585,2.76,2.76,2.76,2.76,2.76,2.76,2.76,2.76,2.76,2.76,2.76,2.76,2.76,2.76,2.7575,2.7575,2.7575,2.7575,2.7575,2.76,2.76,2.7585,2.7121,2.6752,2.742,2.7106,2.6806,2.745,2.76,2.7405,2.6761,2.6078,2.5615,2.5615,2.6138,2.6572,2.6602,0.0,0.0,0.0,2.7061,0.0,2.6587,2.6019,2.56,2.5585,2.5585,0.0,0.0,0.0,0.0,0.0,0.0,0.0,2.7525,2.8233,0.0,2.9592,3.0838,3.1496,3.1496,3.1511,3.1137,3.0477,2.9879,3.0313,3.1466,3.0806,3.0896,3.1511,3.1511,3.1511,3.1511,3.1511,3.0999,3.0299,3.0299,2.9766,2.8907,2.3595,2.3595,2.3595,2.3595,2.3595,2.3595,2.3595,2.3595,2.3595,2.3595,2.3595,2.3595,2.3595,2.3595,2.3595,0.0,2.3595,2.3595,0.0,2.3595,2.3909,2.4575,2.5232,2.5914,2.6572,2.727,2.7495,2.7285,0.0,0.0,0.0,2.6821,2.6826,2.7285,2.7285,2.766,2.8248,2.7794,2.7869,2.8233,2.7779,2.76,2.76,2.76,2.76,2.76,2.76,2.76,2.76,2.76,2.76,2.76,2.76,2.76,2.76,2.76,2.76,2.76,2.76,2.745,2.733,2.754,2.7435,2.7345,2.754,2.76,2.754,2.733,2.7121,2.6971,2.6971,2.7151,2.7435,2.7889,2.8128,0.0,0.0,0.0,2.7784,2.7345,2.6701,2.6093,2.5636,2.5615,0.0,0.0,0.0,0.0,0.0,0.0,0.0,0.0,2.8846,0.0,2.9606,3.0853,3.1511,3.1511,3.1511,3.1391,3.1182,3.0972,3.1122,3.1496,3.1271,3.1301,3.1511,3.1511,3.119,3.0673,3.0673,3.0178,2.9411,2.9411,2.9254,2.8876,2.3595,2.3595,2.3595,2.3595,2.3595,2.3595,2.3595,2.3595,2.3595,2.3595,2.3595,2.3595,2.3595,2.3595,0.0,2.3595,2.3595,2.3595,2.3595,2.3595,2.3909,2.4575,2.5232,2.5914,2.6572,2.727,0.0,2.76,2.76,2.76,2.7585,2.718,2.7345,2.7989,2.7989,2.8203,2.8592,2.8423,2.8453,2.8562,2.8128,2.7989,2.7959,2.7705,2.76,2.76,2.76,2.76,2.76,2.76,2.76,2.76,2.76,2.76,2.76,2.76,2.76,2.76,2.76,2.76,2.76,2.76,2.76,2.76,2.76,2.76,2.76,2.76,2.76,2.76,2.76,2.76,2.7735,2.8169,2.8203,2.8353,2.8798,0.0,2.8143,0.0,0.0,0.0,0.0,2.6497,2.6452,0.0,0.0,0.0,0.0,0.0,0.0,2.8053,2.9654,0.0,2.9863,3.0934,3.119,3.0584,3.0896,3.1219,3.1511,3.1511,3.1511,3.1511,3.1511,3.1511,3.1511,3.1511,3.1029,3.0299,3.0299,2.9566,2.8524,2.8524,2.833,2.7986,2.3595,2.3595,0.0,0.0,2.3595,0.0,2.3595,2.3595,2.3595,2.3595,2.3595,2.3595,2.3595,2.3595,2.3595,2.3595,0.0,0.0,0.0,2.3595,2.3909,2.4575,2.5232,2.5914,2.6572,2.727,2.76,2.76,2.7645,2.766,2.766,2.772,2.8079,2.8667,2.8667,2.8697,2.8771,2.9367,2.925,2.8727,2.8682,2.8637,2.8532,2.7914,2.7645,2.76,2.76,2.76,2.76,2.76,2.76,2.76,2.76,2.76,2.76,2.76,2.76,2.76,2.76,2.76,2.76,2.76,2.76,2.76,2.76,2.76,2.76,2.76,2.76,2.76,2.76,2.76,2.76,2.76,2.76,2.76,2.76,0.0,0.0,0.0,0.0,0.0,0.0,2.8064,2.7959,0.0,0.0,0.0,0.0,0.0,2.8581,3.0447,3.0552,3.0481,3.0299,3.1029,3.0614,2.9097,2.9919,3.0718,3.1511,3.1511,3.1467,3.1409,3.1409,3.138,3.1322,3.1322,3.0837,3.0103,3.0103,2.9097,2.7604,2.7604,2.7129,2.6499,0.0,0.0,2.3595,2.3595,2.3595,2.3595,2.3595,2.3595,2.3595,2.3595,2.3595,2.3595,2.3595,2.3595,2.3595,2.3595,2.3595,2.3595,2.3595,2.3595,2.3909,2.4575,2.5232,2.5914,2.6572,2.727,2.76,2.76,2.8124,2.8353,2.8368,2.8903,2.9217,2.934,2.934,2.9609,3.0028,2.9714,2.9759,3.0013,2.9549,2.9056,2.8577,2.8412,2.8064,2.76,2.76,2.76,2.76,2.76,2.76,2.76,2.76,2.76,2.76,2.76,2.76,2.76,2.76,2.76,2.76,2.76,2.76,2.76,2.76,2.76,2.76,2.76,2.76,2.76,2.76,2.76,2.76,2.76,2.76,2.76,2.76,2.76,0.0,0.0,2.8457,2.8622,2.928,2.8742,2.8637,0.0,0.0,0.0,0.0,2.9398,2.9386,3.0464,3.0987,3.0954,3.0299,3.0494,3.0389,2.9981,3.0208,3.0718,3.1511,3.1511,3.1161,3.0584,3.0584,3.0208,2.9597,2.9597,2.9097,2.833,2.833,2.7703,2.6782,2.6782,2.6658,2.6499,2.3595,2.3595,2.3595,2.3595,2.3595,2.3595,2.3595,2.3815,2.3879,2.3638,2.3815,2.3879,2.3638,2.3595,2.3595,2.3595,2.3595,2.3595,2.3595,2.3595,2.3759,2.4126,2.5068,2.5779,2.6138,2.7106,2.76,2.76,2.8263,2.8607,2.8607,2.9307,2.9756,2.9998,2.9998,3.0193,3.0507,3.0477,3.0492,3.0477,3.0133,2.9624,2.9011,2.8712,2.8173,2.76,2.76,2.76,2.76,2.76,2.76,2.76,2.76,2.76,2.76,2.76,2.76,2.76,2.76,2.76,2.76,2.76,2.76,2.76,2.76,2.76,2.76,2.76,2.76,2.76,2.76,2.76,2.76,2.76,2.76,2.76,2.76,2.7869,0.0,2.8562,2.8861,2.919,2.9577,2.9265,2.931,2.9953,2.9415,0.0,3.0352,2.9697,2.9638,3.0382,3.0395,2.995,2.9129,2.8748,2.8939,2.969,2.969,2.9919,3.0359,3.0777,3.0494,2.969,2.969,2.9442,2.9002,2.9002,2.8492,2.7703,2.7703,2.7196,2.6499,2.6499,2.6499,2.6499,2.3567,2.3599,2.3565,2.3475,2.3535,2.3638,2.3724,2.4116,2.4225,2.3773,2.4116,2.4199,2.3659,2.3595,2.3638,2.3709,2.3709,2.3702,2.3595,2.3681,2.3726,2.3744,2.4941,2.5659,2.5749,2.6971,2.76,2.76,2.8368,2.8742,2.8771,2.952,3.0163,3.0657,3.0657,3.0657,3.0702,3.1256,3.1167,3.0657,3.0657,3.0283,2.9666,2.8996,2.8323,2.7735,2.763,2.76,2.76,2.76,2.76,2.76,2.76,2.76,2.76,2.76,2.76,2.76,2.76,2.76,2.76,2.76,2.76,2.76,2.76,2.76,2.76,2.76,2.76,2.76,2.76,2.766,2.771,2.761,2.7675,2.771,2.761,0.0,2.8637,2.8742,2.9325,2.9786,2.9864,2.9816,2.9983,3.0612,2.9963,2.9761,3.0271,2.9511,2.9304,2.9905,2.9317,2.8588,2.7703,2.6905,2.7297,2.8812,2.8812,2.8876,2.9034,2.9766,2.9628,2.8812,2.8812,2.8716,2.862,2.862,2.8182,2.7517,2.7517,2.7095,2.6499,2.6499,2.6549,2.6612,2.3446,2.3527,2.343,2.2927,2.3251,2.3752,2.422,2.4348,2.4369,2.4302,2.4348,2.4199,2.3659,2.3595,2.3773,2.4241,2.4266,2.4074,2.3638,2.4012,2.4328,2.4448,2.5196,2.5869,2.6422,2.721,2.76,2.76,2.8843,2.943,2.9487,3.0644,3.1256,3.1346,3.1346,3.1346,3.1346,3.1466,3.1451,3.1346,3.1346,3.0943,3.0298,2.9669,2.9026,2.8368,2.7809,2.76,2.76,2.76,2.76,2.76,2.76,2.76,2.76,2.76,2.76,2.76,2.76,2.76,2.76,2.76,2.76,2.76,2.76,2.76,2.76,2.76,2.76,2.76,2.76,2.8018,2.8189,2.7685,2.8018,2.8189,2.766,0.0,2.8801,2.9397,2.9983,3.0597,3.1152,3.0702,3.0642,3.1301,3.0089,2.9623,3.0256,2.8811,2.799,2.8103,2.8684,2.8588,2.7703,2.6905,2.6973,2.7887,2.7887,2.8298,2.9002,2.9129,2.8716,2.7887,2.7887,2.7517,2.6871,2.6871,2.6816,2.6679,2.6679,2.6624,2.6499,2.6499,2.6788,2.719,2.4007,2.4081,2.406,2.3672,2.3932,2.4338,2.4772,2.5086,2.5163,2.4871,2.507,2.495,2.4116,2.4287,2.445,2.441,2.5282,2.55,2.464,2.4795,2.4842,2.4612,2.56,2.6437,2.7121,2.7435,2.76,2.76,2.8948,2.9606,2.9636,3.0898,3.1511,3.1511,3.1511,3.1511,3.1511,3.1511,3.1511,3.1511,3.1511,3.1092,3.0477,3.0193,2.9684,2.9041,2.8368,2.8154,2.8068,2.772,2.76,2.766,2.8034,2.7899,2.766,2.8034,2.7884,2.76,2.76,2.76,2.76,2.76,2.76,2.76,2.76,2.76,2.76,2.76,2.76,2.76,2.76,2.8091,2.8295,2.7685,2.8421,0.0,0.0,2.8996,2.9624,2.9606,3.0447,3.1017,3.0957,3.1002,3.1008,3.0866,3.0219,2.9545,2.8925,2.8149,2.7517,2.7061,2.7451,2.7451,2.7074,2.6679,2.6679,2.7074,2.7484,2.767,2.767,2.8117,2.7835,2.704,2.704,2.685,2.6499,2.6499,2.6499,2.6499,2.6499,2.6499,2.6499,2.6499,2.6663,2.6914,2.463,2.4634,2.4637,2.4393,2.4678,2.5024,2.5335,2.5726,2.5901,2.5656,2.5858,2.5698,2.4932,2.5207,2.5261,2.4812,2.637,2.6847,2.567,2.5887,2.5771,2.5076,2.6198,2.7076,2.7585,2.76,2.76,2.76,2.8948,2.9606,2.9636,3.0898,3.1511,3.1511,3.1511,3.1511,3.1511,3.1511,3.1511,3.1511,3.1511,3.1182,3.0731,3.0567,3.0118,2.9517,2.8831,2.8502,2.8278,2.7779,2.7705,2.7929,2.8427,2.8233,2.7944,2.8442,2.8139,2.76,2.76,2.76,2.76,2.76,2.76,2.76,2.76,2.76,2.76,2.76,2.76,2.76,2.76,2.8091,2.8295,2.7685,0.0,0.0,0.0,2.9445,2.9943,2.9584,3.0389,3.0776,3.0219,3.0631,3.0644,3.0042,2.9827,2.9097,2.7769,2.7517,2.7129,2.6521,2.6499,2.6499,2.6499,2.6499,2.6499,2.6499,2.7129,2.7095,2.6521,2.7129,2.7061,2.6499,2.6499,2.6499,2.6499,2.6499,2.6499,2.6499,2.6499,2.6499,2.6499,2.6499,2.6575,2.6763,2.4982,2.4823,2.4599,2.4263,2.4994,2.5689,2.5906,2.5961,2.6242,2.6881,2.6389,2.6042,2.6154,2.6214,2.6118,2.5901,2.7248,2.7562,2.6238,2.7365,2.7597,2.651,2.7151,2.754,2.76,2.76,2.76,2.76,2.8948,2.9606,2.9636,3.0898,3.1511,3.1511,3.1511,3.1511,3.1511,3.1511,3.1511,3.1511,3.1511,3.1466,3.1361,3.0746,3.0118,2.9517,2.8831,2.8188,2.766,2.7615,2.8019,2.8532,2.8577,2.8562,2.8532,2.8592,2.8139,2.76,2.76,2.76,2.76,2.76,2.76,2.76,2.76,2.76,2.76,2.76,2.76,2.76,2.76,2.8091,2.8295,2.7685,0.0,0.0,2.8606,2.8682,2.8877,2.9276,2.9406,2.9354,2.9129,2.9164,2.916,2.9097,2.833,2.7835,2.7703,2.7007,2.6555,2.6499,2.6499,2.6499,2.6499,2.6499,2.6499,2.6499,2.6555,2.6555,2.6499,2.6555,2.6555,2.6499,2.6499,2.6499,2.6499,2.6499,2.6499,2.6499,2.6499,2.6499,2.6499,2.6499,2.6813,2.7341,2.5686,2.5781,2.5772,2.5238,2.5799,2.6349,2.6419,2.6436,2.6687,2.7441,2.6888,2.6712,2.7401,2.733,2.7263,2.737,2.8615,2.885,2.7566,2.8441,2.8465,2.726,2.7465,2.76,2.76,2.76,2.76,2.76,2.8948,2.9606,2.9636,3.0898,3.1511,3.1511,3.1511,3.1511,3.1511,3.1511,3.1511,3.1511,3.1511,3.1511,3.1466,3.1212,3.0972,3.0702,3.0028,2.9609,2.9325,2.8978,2.8727,2.8742,2.9535,2.9235,2.8682,2.9086,2.9052,2.8843,2.8843,2.8229,2.76,2.76,2.76,2.7705,2.8139,2.7899,2.7839,2.8678,2.8184,2.772,2.8128,2.8381,2.8295,2.7685,0.0,2.9147,2.9207,2.9535,2.9826,2.9897,2.9909,2.9693,2.9069,2.9002,2.878,2.8247,2.7887,2.7484,2.6973,2.6692,2.6499,2.6499,2.6499,2.6499,2.6499,2.6499,2.6499,2.6499,2.6839,2.7002,2.7014,2.7318,2.7329,2.7002,2.7002,2.6813,2.6499,2.6499,2.6499,2.6499,2.6499,2.6499,2.6499,2.6499,2.6625,2.6889,2.6279,2.647,2.6539,2.6087,2.6652,2.7063,2.6742,2.7114,2.7588,2.8094,2.774,2.7769,2.8696,2.8621,2.8509,2.8462,2.9683,2.9805,2.8322,2.8576,2.8428,2.7635,2.76,2.76,2.76,2.76,2.76,2.76,2.8948,2.9606,2.9636,3.0898,3.1511,3.1511,3.1511,3.1511,3.1511,3.1511,3.1511,3.1511,3.1511,3.1511,3.1511,3.1511,3.1376,3.1122,3.0672,3.0372,3.0148,2.9756,2.9415,2.9355,3.0223,2.9894,2.928,2.9744,2.9756,2.9651,2.9819,2.9082,2.8184,2.7974,2.7764,2.7779,2.8442,2.8233,2.8244,2.9382,2.8708,2.8124,2.8786,2.8541,2.8229,2.8231,2.8768,2.9367,2.9826,3.0073,3.0141,2.9911,2.9718,2.9232,2.8285,2.8214,2.7953,2.7384,2.7317,2.7061,2.6521,2.6499,2.6499,2.6499,2.6499,2.6499,2.6499,2.6499,2.6499,2.6499,2.7052,2.7281,2.7293,2.767,2.7645,2.7268,2.714,2.6851,2.6499,2.6499,2.6499,2.6499,2.6499,2.6499,2.6499,2.6499,2.6499,2.6575,2.6691,2.6691,2.6691,2.6708,2.7537,2.7858,2.686,2.8028,2.8993,2.901,2.8993,2.9281,3.004,3.0108,2.9803,2.9077,3.0364,3.0317,2.825,2.768,2.7485,2.7595,2.76,2.76,2.76,2.76,2.76,2.7625,2.8933,2.9606,2.9636,3.0883,3.1496,3.1511,3.1511,3.1511,3.1511,3.1511,3.1511,3.1511,3.1511,3.1511,3.1511,3.1511,3.1077,3.0507,3.0507,3.0118,2.9621,2.9621,2.9998,3.0507,3.0507,3.0507,3.0507,3.0507,3.0073,2.9756,3.0342,3.0058,2.9457,2.8771,2.8109,2.7779,2.8457,2.8607,2.8786,2.9487,2.9071,2.8801,2.946,2.8528,2.8049,2.9397,2.9026,2.9056,3.0328,2.9983,2.9443,2.9053,2.8415,2.7601,2.6607,2.6499,2.6499,2.6499,2.6499,2.6499,2.6499,2.6499,2.6499,2.6499,2.6499,2.6499,2.6499,2.6499,2.6499,2.6499,2.7052,2.7281,2.7281,2.7293,2.7281,2.7291,2.6738,2.6499,2.6499,2.6499,2.6499,2.6499,2.6499,2.6499,2.6499,2.6499,2.6499,2.6575,2.6691,2.6691,2.6911,2.7638,2.7841,2.8111,2.8722,2.8925,2.9196,2.9702,2.9331,2.9484,3.0734,3.0412,3.0226,3.0514,3.0937,3.0771,2.9704,2.8706,2.8175,2.8222,2.7835,2.76,2.76,2.76,2.781,2.8238,2.8675,2.9365,3.0225,3.0624,3.1032,3.1511,3.1511,3.1511,3.1511,3.1511,3.1511,3.1511,3.1511,3.1511,3.1511,3.1511,3.1376,3.1197,3.1197,3.1077,3.0913,3.0913,3.0746,3.0507,3.0507,3.0808,3.1197,3.1197,3.1062,3.0957,3.1152,3.0746,3.0073,2.9445,2.8786,2.8592,2.9684,2.9235,2.9041,3.0599,3.0058,2.949,3.0118,2.9549,2.9142,2.9532,2.9415,2.9564,3.0387,2.985,2.9288,2.9032,2.8278,2.7453,2.6577,2.6499,2.6499,2.6499,2.6499,2.6499,2.6499,2.6499,2.6499,2.6499,2.6499,2.6499,2.6499,2.6499,2.6499,2.6499,2.7052,2.7281,2.7293,2.7682,2.7645,2.7268,2.714,2.6851,2.6499,2.6499,2.6499,2.6499,2.6499,2.6499,2.6499,2.6499,2.6499,2.6512,2.708,2.7148,2.7435,2.8349,2.8619,2.8855,2.9348,2.9687,2.9922,3.0091,2.9973,3.0211,3.1089,3.0801,3.0717,3.1157,3.092,3.0636,3.0318,2.9333,2.8689,2.8496,2.8391,2.8076,2.7625,2.7835,2.8018,2.814,2.8454,2.8996,2.9765,3.0265,3.0731,3.1107,3.1376,3.1511,3.1511,3.1511,3.1511,3.1511,3.1511,3.1511,3.1511,3.1511,3.1511,3.1511,3.1511,3.1511,3.1511,3.1511,3.1227,3.0883,3.0883,3.1167,3.1511,3.1511,3.1511,3.1511,3.1511,3.1197,3.0821,3.0447,2.9669,2.925,3.0268,2.9909,2.9774,3.1197,3.0687,3.0148,3.0791,3.0178,2.9744,3.0268,3.0118,3.0052,3.0393,2.9988,2.9401,2.8579,2.8019,2.7384,2.6589,2.6499,2.6499,2.6499,2.6499,2.6499,2.6499,2.6499,2.6499,2.6499,2.6499,2.6499,2.6499,2.6499,2.6499,2.6499,2.7052,2.7281,2.7329,2.7632,2.7595,2.7268,2.709,2.6801,2.6499,2.6499,2.6499,2.6499,2.6499,2.6499,2.6499,2.6499,2.6499,2.6524,2.7756,2.7908,2.8145,2.8959,2.9651,2.9905,2.9297,3.0347,3.0954,3.0294,3.0784,3.119,3.119,3.119,3.119,3.119,3.0543,3.0174,3.0365,2.9646,2.9038,2.8599,2.9111,2.8834,2.7625,2.8189,2.8238,2.7685,2.8289,2.8648,2.879,2.9951,3.0537,3.0627,3.1227,3.1511,3.1511,3.157,3.1585,3.16,3.1645,3.1675,3.1675,3.1675,3.1675,3.1675,3.1615,3.1585,3.1585,3.1525,3.1511,3.1511,3.1511,3.1511,3.1511,3.1511,3.1511,3.1511,3.1511,3.1511,3.1511,3.1511,3.0642,2.9909,3.0462,3.0552,3.0702,3.1361,3.1002,3.0791,3.1391,3.0552,3.0148,3.1316,3.0915,3.045,3.0303,3.0178,2.9473,2.7887,2.7637,2.7284,2.6555,2.6537,2.6562,2.6562,2.6562,2.6562,2.6562,2.6524,2.6499,2.6499,2.6499,2.6499,2.6499,2.6499,2.6499,2.6499,2.7002,2.7241,2.7241,2.7241,2.7241,2.718,2.6713,2.6499,2.6499,2.6499,2.6499,2.6499,2.6499,2.6499,2.6499,2.6499,2.6524,2.665,2.8569,2.8756,2.8993,2.9736,2.9989,3.0243,3.0649,3.0987,3.114,3.097,3.1106,3.119,3.119,3.119,3.119,3.119,3.0627,3.0471,3.0978,2.9976,2.9313,2.9203,2.9339,2.8834,2.7625,2.8189,2.8455,2.8295,2.8505,2.9094,3.0099,3.0365,3.0791,3.1286,3.1436,3.1511,3.154,3.2049,3.2273,3.2318,3.2856,3.3066,3.3066,3.3066,3.3066,3.3006,3.2452,3.2273,3.2183,3.1675,3.1511,3.1511,3.1511,3.1511,3.1511,3.1511,3.1511,3.1511,3.1511,3.1511,3.1511,3.1511,3.1286,3.1122,3.1256,3.0896,3.0702,3.1361,3.1391,3.1331,3.1481,3.1271,3.1182,3.1466,3.0837,3.032,3.0315,2.9129,2.8117,2.7736,2.7129,2.6679,2.6521,2.6889,2.714,2.714,2.714,2.714,2.714,2.6738,2.6499,2.6499,2.6499,2.6499,2.6499,2.6499,2.6499,2.6499,2.6612,2.6675,2.6675,2.6675,2.6675,2.6663,2.6549,2.6499,2.6499,2.6499,2.6499,2.6499,2.6499,2.6499,2.6499,2.6499,2.6763,2.7278,2.9364,2.9516,2.9753,3.0497,3.0632,3.0751,3.114,3.119,3.119,3.119,3.119,3.119,3.119,3.119,3.119,3.119,3.0898,3.0858,3.1171,3.0335,2.9695,2.9406,2.9673,2.9255,2.8067,2.9242,2.9438,2.8545,2.887,2.9387,3.0083,3.0373,3.0702,3.1032,3.1361,3.1675,3.1989,3.2333,3.2691,3.3021,3.3365,3.3499,3.3499,3.3499,3.3499,3.344,3.3095,3.2781,3.2437,3.2093,3.1765,3.1511,3.1511,3.1511,3.1511,3.1511,3.1511,3.1511,3.1511,3.1511,3.1511,3.1511,3.1511,3.1511,3.1511,3.1227,3.1077,3.1436,3.1511,3.1511,3.1511,3.1511,3.1511,3.1511,3.0807,3.0133,2.9735,2.8524,2.7642,2.7537,2.7141,2.6989,2.7253,2.7507,2.767,2.767,2.767,2.767,2.767,2.719,2.6889,2.6889,2.6637,2.6499,2.6499,2.6499,2.6499,2.6499,2.6763,2.6751,2.6499,2.6763,2.6738,2.6499,2.6499,2.6499,2.6499,2.6499,2.6499,2.6499,2.6499,2.6499,2.6499,2.6499,2.7014,2.7795,3.0142,3.0294,3.048,3.1089,3.119,3.119,3.119,3.119,3.119,3.119,3.119,3.119,3.119,3.119,3.119,3.119,3.119,3.1151,3.1055,3.0477,2.987,2.9271,2.9717,2.9518,2.8511,3.0396,3.0459,2.8568,2.9444,2.9781,2.9621,3.0328,3.0672,3.0717,3.1361,3.1914,3.2333,3.2706,3.3095,3.3514,3.3739,3.3844,3.3844,3.3844,3.3844,3.3829,3.3709,3.317,3.2467,3.2377,3.1959,3.1511,3.1511,3.1511,3.1511,3.1511,3.1511,3.1511,3.1511,3.1511,3.1525,3.1645,3.1585,3.1525,3.1645,3.1585,3.1511,3.1511,3.1511,3.1511,3.1511,3.1511,3.1511,3.1511,3.0703,2.9856,2.9236,2.8264,2.7579,2.745,2.7419,2.7607,2.8059,2.8185,2.8247,2.8247,2.8247,2.8247,2.8247,2.772,2.7381,2.7281,2.6876,2.6587,2.6499,2.6587,2.6587,2.6499,2.7153,2.7115,2.6512,2.7065,2.7014,2.6499,2.6499,2.6499,2.6499,2.6499,2.6499,2.6499,2.6499,2.6499,2.6499,2.66,2.7278,2.8185,3.0903,3.1055,3.1072,3.1173,3.119,3.119,3.119,3.119,3.119,3.119,3.119,3.119,3.119,3.119,3.119,3.119,3.119,3.0975,3.0456,2.9848,2.9248,2.8654,2.8685,2.8677,2.8511,3.0396,3.0461,2.8506,3.0407,3.0727,2.9636,3.0821,3.1361,3.1391,3.2064,3.2079,3.175,3.3484,3.3933,3.3604,3.4756,3.5235,3.5235,3.5235,3.5235,3.516,3.4562,3.3559,3.2392,3.1824,3.157,3.1511,3.1511,3.1511,3.1511,3.1511,3.1511,3.1511,3.1511,3.1511,3.1645,3.2213,3.1929,3.1645,3.2228,3.1914,3.1511,3.1511,3.1511,3.1511,3.1511,3.1511,3.1511,3.1511,3.0208,2.9309,2.9642,2.8339,2.7511,2.7921,2.7996,2.8021,2.8097,2.8536,2.8775,2.8775,2.8775,2.8775,2.8775,2.8298,2.777,2.7293,2.7241,2.6977,2.6499,2.6964,2.6964,2.6512,2.7507,2.7457,2.6512,2.7065,2.7014,2.6499,2.6499,2.6499,2.6499,2.6499,2.6499,2.6499,2.6499,2.6499,2.6549,2.7027,2.757,2.8185,3.114,3.119,3.119,3.119,3.119,3.119,3.119,3.119,3.119,3.119,3.119,3.119,3.119,3.119,3.119,3.119,3.0878,3.058,3.0314,2.9429,2.8779,2.8511,2.8826,2.885,2.8511,3.1138,3.1389,2.906,3.1099,3.161,3.0687,3.1241,3.1511,3.1511,3.1809,3.2183,3.2691,3.3559,3.4188,3.4666,3.5265,3.5504,3.5504,3.5504,3.5504,3.5474,3.516,3.4427,3.3499,3.2841,3.2377,3.1989,3.1615,3.1765,3.2049,3.2049,3.2303,3.2632,3.2632,3.2632,3.2706,3.2991,3.2557,3.2123,3.2422,3.2258,3.1944,3.1585,3.1511,3.1511,3.1511,3.1511,3.1351,3.0896,3.0049,2.9369,2.912,2.8295,2.7946,2.8461,2.885,2.9051,2.9051,2.9264,2.9415,2.9415,2.9415,2.9415,2.9415,2.8586,2.8134,2.8197,2.7607,2.7203,2.6952,2.7469,2.7341,2.6512,2.7582,2.7532,2.6512,2.7065,2.7014,2.6499,2.6499,2.6499,2.6499,2.6499,2.6499,2.6499,2.6499,2.6499,2.66,2.7419,2.7896,2.8235]}]]